Darstellungsparameter: Aktuell verwendete Einstellungen:
Skalierung der Graphiken ... ?
xyx+y,   Skalierungsfaktor:      Skalierung: Modus: x, Faktor: 1
Darstellungszeitraum ... ?
Vom - - bis: - -   Zeitraum: 02.07.2019 - 01.01.2020
Min/Max/Avg-Anzeige ... ?
Zeige MMA aktuell
Zeige MMA Monat
Zeige MMA alles
Zeige --A aktuell
Zeige --A Monat
Zeige --A alles
Keine MMA-Anzeige
MMA:
Average (ber die Originaldaten)
MMA-Basis: 02.07.2019 - 01.01.2020
Quicknavigation für Darstellung... ?
Tage:      1T, 2T, 3T, 5T -1T -2T -3T -5T +1T +2T +3T +5T
Wochen: 1W, 2W, 3W -1W -2W -3W +1W +2W +3W
Monate: 1M, 3M, 6M -1M -3M -6M +1M +3M +6M
Jahre:    1J, 3J, 5J, 10J -1J -3J -5J -10J +1J +3J +5J +10J
Nutze für die Darstellung ... ?
Originaldaten oder Mittelwerte auf ...
Stundenbasis Tagesbasis Wochenbasis
Monatsbasis Jahresbasis      Datenbasis: Original-Daten
Darstellen als:
Statistik (Auto) Statistik J:M      Darstellung:
Zur Graphik,    zurück zur Übersicht aller Sensoren.
 
Tabellarische Datenbersicht: ?
 
Sensor: Nr:Datum:Temp:Feuchte:
Aussen-T/F 1 02-07-2019 00:04:17 19.8 C 20 %
2 02-07-2019 00:16:17 19.2 C 20 %
3 02-07-2019 00:28:17 18.5 C 20 %
4 02-07-2019 00:40:17 18.2 C 20 %
5 02-07-2019 00:52:18 17.4 C 20 %
6 02-07-2019 01:04:18 17.2 C 20 %
7 02-07-2019 01:16:18 17.2 C 20 %
8 02-07-2019 01:28:18 16.8 C 20 %
9 02-07-2019 01:40:18 16.5 C 20 %
10 02-07-2019 01:52:18 16 C 20 %
11 02-07-2019 02:04:18 15.9 C 20 %
12 02-07-2019 02:16:18 16 C 20 %
13 02-07-2019 02:28:18 15.8 C 20 %
14 02-07-2019 02:40:17 15.5 C 20 %
15 02-07-2019 02:52:18 15.4 C 20 %
16 02-07-2019 03:04:17 15.1 C 20 %
17 02-07-2019 03:16:17 15.2 C 20 %
18 02-07-2019 03:28:17 16.1 C 20 %
19 02-07-2019 03:40:17 15.9 C 20 %
20 02-07-2019 03:52:17 15.3 C 20 %
21 02-07-2019 04:04:17 14.9 C 20 %
22 02-07-2019 04:16:18 14.6 C 23 %
23 02-07-2019 04:28:18 14.2 C 25 %
24 02-07-2019 04:40:18 13.9 C 27 %
25 02-07-2019 04:52:17 13.7 C 29 %
Sensor: Nr:Datum:Temp:Feuchte:
Aussen-T/F 26 02-07-2019 05:04:17 13.7 C 29 %
27 02-07-2019 05:16:18 13.6 C 30 %
28 02-07-2019 05:28:18 13.5 C 30 %
29 02-07-2019 05:40:18 13.4 C 30 %
30 02-07-2019 05:52:18 13.3 C 31 %
31 02-07-2019 06:04:17 13.3 C 32 %
32 02-07-2019 06:16:18 13.3 C 33 %
33 02-07-2019 06:28:18 13.3 C 33 %
34 02-07-2019 06:40:18 13.2 C 32 %
35 02-07-2019 06:52:18 13.3 C 34 %
36 02-07-2019 07:04:17 13.3 C 34 %
37 02-07-2019 07:16:17 13.3 C 34 %
38 02-07-2019 07:28:17 13.5 C 34 %
39 02-07-2019 07:40:18 13.7 C 34 %
40 02-07-2019 07:52:18 14 C 32 %
41 02-07-2019 08:04:17 14.2 C 32 %
42 02-07-2019 08:16:17 15 C 26 %
43 02-07-2019 08:28:18 15.8 C 20 %
44 02-07-2019 08:40:18 17 C 20 %
45 02-07-2019 08:52:17 17.9 C 20 %
46 02-07-2019 09:04:17 17.7 C 20 %
47 02-07-2019 09:16:17 18.7 C 20 %
48 02-07-2019 09:28:17 19.5 C 20 %
49 02-07-2019 09:40:17 20.7 C 20 %
50 02-07-2019 09:52:17 22 C 20 %
Sensor: Nr:Datum:Temp:Feuchte:
Aussen-T/F 51 02-07-2019 10:04:18 21.4 C 20 %
52 02-07-2019 10:16:17 19.9 C 20 %
53 02-07-2019 10:28:17 20.1 C 20 %
54 02-07-2019 10:40:18 21.4 C 20 %
55 02-07-2019 10:52:17 20.2 C 20 %
56 02-07-2019 11:04:17 21.3 C 20 %
57 02-07-2019 11:16:17 21.2 C 20 %
58 02-07-2019 11:28:17 20.8 C 20 %
59 02-07-2019 11:40:17 21.8 C 20 %
60 02-07-2019 11:52:17 21.1 C 20 %
61 02-07-2019 12:04:18 21 C 20 %
62 02-07-2019 12:16:17 22 C 20 %
63 02-07-2019 12:28:17 22.4 C 20 %
64 02-07-2019 12:40:18 22 C 20 %
65 02-07-2019 12:52:18 22.2 C 20 %
66 02-07-2019 13:04:17 22.5 C 20 %
67 02-07-2019 13:16:17 22 C 20 %
68 02-07-2019 13:28:17 22.5 C 20 %
69 02-07-2019 13:40:17 22.8 C 20 %
70 02-07-2019 13:52:17 23.4 C 20 %
71 02-07-2019 14:04:18 23.6 C 20 %
72 02-07-2019 14:16:17 23.2 C 20 %
73 02-07-2019 14:28:17 24.2 C 20 %
74 02-07-2019 14:40:17 24.6 C 20 %
75 02-07-2019 14:52:18 23 C 20 %
Sensor: Nr:Datum:Temp:Feuchte:
Aussen-T/F 76 02-07-2019 15:04:18 23.2 C 20 %
77 02-07-2019 15:16:17 24.8 C 20 %
78 02-07-2019 15:28:17 25.2 C 20 %
79 02-07-2019 15:40:18 23.4 C 20 %
80 02-07-2019 15:52:18 24.6 C 20 %
81 02-07-2019 16:04:17 25.6 C 20 %
82 02-07-2019 16:16:17 26.1 C 20 %
83 02-07-2019 16:28:17 25.9 C 20 %
84 02-07-2019 16:40:17 26.2 C 20 %
85 02-07-2019 16:52:17 26.2 C 20 %
86 02-07-2019 17:04:18 26.3 C 20 %
87 02-07-2019 17:16:17 27.4 C 20 %
88 02-07-2019 17:28:17 26 C 20 %
89 02-07-2019 17:40:17 26.8 C 20 %
90 02-07-2019 17:52:18 26.6 C 20 %
91 02-07-2019 18:04:18 24.7 C 20 %
92 02-07-2019 18:16:18 24.5 C 20 %
93 02-07-2019 18:28:18 25.3 C 20 %
94 02-07-2019 18:40:17 25.1 C 20 %
95 02-07-2019 18:52:18 26.1 C 20 %
96 02-07-2019 19:04:18 26.3 C 20 %
97 02-07-2019 19:16:17 25.6 C 20 %
98 02-07-2019 19:28:17 25 C 20 %
99 02-07-2019 19:40:17 24.4 C 20 %
100 02-07-2019 19:52:17 23.9 C 20 %
Sensor: Nr:Datum:Temp:Feuchte:
Aussen-T/F 101 02-07-2019 20:04:17 23.4 C 20 %
102 02-07-2019 20:16:17 23.3 C 20 %
103 02-07-2019 20:28:17 23.1 C 20 %
104 02-07-2019 20:40:17 22.6 C 20 %
105 02-07-2019 20:52:18 22.2 C 20 %
106 02-07-2019 21:04:18 22.1 C 20 %
107 02-07-2019 21:16:18 21.6 C 20 %
108 02-07-2019 21:28:18 20.7 C 20 %
109 02-07-2019 21:40:18 19.2 C 20 %
110 02-07-2019 21:52:17 18.6 C 20 %
111 02-07-2019 22:04:17 18 C 20 %
112 02-07-2019 22:16:17 17.5 C 20 %
113 02-07-2019 22:28:17 17.5 C 20 %
114 02-07-2019 22:40:17 17.5 C 20 %
115 02-07-2019 22:52:17 16.9 C 20 %
116 02-07-2019 23:04:18 16.7 C 20 %
117 02-07-2019 23:16:18 16.6 C 20 %
118 02-07-2019 23:28:18 16.2 C 20 %
119 02-07-2019 23:40:17 16.1 C 20 %
120 02-07-2019 23:52:18 15.9 C 20 %
121 03-07-2019 00:04:18 15.2 C 20 %
122 03-07-2019 00:16:18 15 C 20 %
123 03-07-2019 00:28:18 14.5 C 20 %
124 03-07-2019 00:40:18 14.4 C 20 %
125 03-07-2019 00:52:17 14.1 C 20 %
Sensor: Nr:Datum:Temp:Feuchte:
Aussen-T/F 126 03-07-2019 01:04:18 13.7 C 20 %
127 03-07-2019 01:16:18 13.5 C 20 %
128 03-07-2019 01:28:18 13.2 C 20 %
129 03-07-2019 01:40:18 13 C 20 %
130 03-07-2019 01:52:17 12.9 C 20 %
131 03-07-2019 02:04:18 12.6 C 20 %
132 03-07-2019 02:16:17 12.5 C 20 %
133 03-07-2019 02:28:17 12.3 C 22 %
134 03-07-2019 02:40:17 12.1 C 20 %
135 03-07-2019 02:52:18 12.2 C 26 %
136 03-07-2019 03:04:18 11.8 C 25 %
137 03-07-2019 03:16:18 11.8 C 27 %
138 03-07-2019 03:28:18 11.7 C 28 %
139 03-07-2019 03:40:17 11.4 C 27 %
140 03-07-2019 03:52:18 11.2 C 28 %
141 03-07-2019 04:04:18 11.1 C 29 %
142 03-07-2019 04:16:18 10.9 C 30 %
143 03-07-2019 04:28:18 10.8 C 32 %
144 03-07-2019 04:40:18 10.7 C 32 %
145 03-07-2019 04:52:17 10.6 C 32 %
146 03-07-2019 05:04:18 10.4 C 32 %
147 03-07-2019 05:16:18 10.3 C 33 %
148 03-07-2019 05:28:18 10.3 C 35 %
149 03-07-2019 05:40:18 10.2 C 34 %
150 03-07-2019 05:52:17 10.2 C 35 %
Sensor: Nr:Datum:Temp:Feuchte:
Aussen-T/F 151 03-07-2019 06:04:18 10.2 C 35 %
152 03-07-2019 06:16:18 10.4 C 36 %
153 03-07-2019 06:28:18 10.5 C 36 %
154 03-07-2019 06:40:18 10.5 C 36 %
155 03-07-2019 06:52:17 10.6 C 37 %
156 03-07-2019 07:04:18 10.9 C 38 %
157 03-07-2019 07:16:18 11.1 C 36 %
158 03-07-2019 07:28:18 11.4 C 36 %
159 03-07-2019 07:40:17 11.6 C 34 %
160 03-07-2019 07:52:17 11.9 C 33 %
161 03-07-2019 08:04:18 12.2 C 31 %
162 03-07-2019 08:16:18 12.5 C 30 %
163 03-07-2019 08:28:18 13.1 C 28 %
164 03-07-2019 08:40:17 13.7 C 25 %
165 03-07-2019 08:52:17 14.4 C 20 %
166 03-07-2019 09:04:17 14.7 C 20 %
167 03-07-2019 09:16:17 15.8 C 20 %
168 03-07-2019 09:28:17 17.2 C 20 %
169 03-07-2019 09:40:17 21.2 C 20 %
170 03-07-2019 09:52:18 24.2 C 20 %
171 03-07-2019 10:04:18 21.5 C 20 %
172 03-07-2019 10:16:17 19.7 C 20 %
173 03-07-2019 10:28:17 19.9 C 20 %
174 03-07-2019 10:40:18 20.4 C 20 %
175 03-07-2019 10:52:18 21.1 C 20 %
Sensor: Nr:Datum:Temp:Feuchte:
Aussen-T/F 176 03-07-2019 11:04:17 21.1 C 20 %
177 03-07-2019 11:16:17 22 C 20 %
178 03-07-2019 11:28:17 22.1 C 20 %
179 03-07-2019 11:40:17 22.5 C 20 %
180 03-07-2019 11:52:17 23.3 C 20 %
181 03-07-2019 12:04:18 23 C 20 %
182 03-07-2019 12:16:18 21.7 C 20 %
183 03-07-2019 12:28:18 23.5 C 20 %
184 03-07-2019 12:40:17 22.3 C 20 %
185 03-07-2019 12:52:17 22.4 C 20 %
186 03-07-2019 13:04:17 21.9 C 20 %
187 03-07-2019 13:16:17 22 C 20 %
188 03-07-2019 13:28:17 22.4 C 20 %
189 03-07-2019 13:40:18 22.7 C 20 %
190 03-07-2019 13:52:18 23.1 C 20 %
191 03-07-2019 14:04:17 23.2 C 20 %
192 03-07-2019 14:16:17 23.6 C 20 %
193 03-07-2019 14:28:18 23 C 20 %
194 03-07-2019 14:40:18 23 C 20 %
195 03-07-2019 14:52:17 23.1 C 20 %
196 03-07-2019 15:04:17 23.4 C 20 %
197 03-07-2019 15:16:18 24.1 C 20 %
198 03-07-2019 15:28:18 23.4 C 20 %
199 03-07-2019 15:40:17 23.6 C 20 %
200 03-07-2019 15:52:17 24.3 C 20 %
Sensor: Nr:Datum:Temp:Feuchte:
Aussen-T/F 201 03-07-2019 16:04:18 24.5 C 20 %
202 03-07-2019 16:16:18 25.3 C 20 %
203 03-07-2019 16:28:18 25.1 C 20 %
204 03-07-2019 16:40:17 24.6 C 20 %
205 03-07-2019 16:52:17 24.8 C 20 %
206 03-07-2019 17:04:18 24.5 C 20 %
207 03-07-2019 17:16:17 25.5 C 20 %
208 03-07-2019 17:28:17 24.7 C 20 %
209 03-07-2019 17:40:18 25 C 20 %
210 03-07-2019 17:52:17 24.6 C 20 %
211 03-07-2019 18:04:18 26 C 20 %
212 03-07-2019 18:16:17 25.4 C 20 %
213 03-07-2019 18:28:17 25.2 C 20 %
214 03-07-2019 18:40:17 24.5 C 20 %
215 03-07-2019 18:52:17 25.4 C 20 %
216 03-07-2019 19:04:18 24.9 C 20 %
217 03-07-2019 19:16:17 24.6 C 20 %
218 03-07-2019 19:28:17 23.8 C 20 %
219 03-07-2019 19:40:18 23.3 C 20 %
220 03-07-2019 19:52:17 23.2 C 20 %
221 03-07-2019 20:04:17 22.9 C 20 %
222 03-07-2019 20:16:17 22.7 C 20 %
223 03-07-2019 20:28:18 22.3 C 20 %
224 03-07-2019 20:40:18 22.2 C 20 %
225 03-07-2019 20:52:17 21.7 C 20 %
Sensor: Nr:Datum:Temp:Feuchte:
Aussen-T/F 226 03-07-2019 21:04:18 21.4 C 20 %
227 03-07-2019 21:16:18 20.9 C 20 %
228 03-07-2019 21:28:18 20.6 C 20 %
229 03-07-2019 21:40:18 20.2 C 20 %
230 03-07-2019 21:52:17 19.4 C 20 %
231 03-07-2019 22:04:18 18 C 20 %
232 03-07-2019 22:16:18 17.4 C 20 %
233 03-07-2019 22:28:18 17.2 C 20 %
234 03-07-2019 22:40:17 16.9 C 20 %
235 03-07-2019 22:52:18 16.3 C 20 %
236 03-07-2019 23:04:18 16.2 C 20 %
237 03-07-2019 23:16:18 15.4 C 20 %
238 03-07-2019 23:28:18 15.2 C 20 %
239 03-07-2019 23:40:18 14.9 C 20 %
240 03-07-2019 23:52:18 14.8 C 20 %
241 04-07-2019 00:04:18 14.5 C 20 %
242 04-07-2019 00:16:18 14.2 C 20 %
243 04-07-2019 00:28:18 14.1 C 20 %
244 04-07-2019 00:40:18 14 C 20 %
245 04-07-2019 00:52:18 13.9 C 20 %
246 04-07-2019 01:04:18 13.8 C 20 %
247 04-07-2019 01:16:18 13.7 C 20 %
248 04-07-2019 01:28:18 13.4 C 20 %
249 04-07-2019 01:40:18 13.4 C 20 %
250 04-07-2019 01:52:17 13.3 C 20 %
Sensor: Nr:Datum:Temp:Feuchte:
Aussen-T/F 251 04-07-2019 02:04:18 13.1 C 20 %
252 04-07-2019 02:16:18 13 C 20 %
253 04-07-2019 02:28:18 12.5 C 20 %
254 04-07-2019 02:40:18 12.2 C 20 %
255 04-07-2019 02:52:17 11.8 C 20 %
256 04-07-2019 03:04:18 11.5 C 20 %
257 04-07-2019 03:16:18 11.2 C 20 %
258 04-07-2019 03:28:18 11.1 C 20 %
259 04-07-2019 03:40:18 11.1 C 22 %
260 04-07-2019 03:52:17 11.3 C 25 %
261 04-07-2019 04:04:17 11.4 C 23 %
262 04-07-2019 04:16:17 11.1 C 24 %
263 04-07-2019 04:28:17 11.1 C 26 %
264 04-07-2019 04:40:18 11.2 C 25 %
265 04-07-2019 04:52:17 10.8 C 26 %
266 04-07-2019 05:04:18 10.6 C 26 %
267 04-07-2019 05:16:17 10.7 C 28 %
268 04-07-2019 05:28:17 10.9 C 30 %
269 04-07-2019 05:40:17 10.8 C 26 %
270 04-07-2019 05:52:18 10.8 C 29 %
271 04-07-2019 06:04:17 10.7 C 30 %
272 04-07-2019 06:16:17 10.6 C 30 %
273 04-07-2019 06:28:17 10.4 C 31 %
274 04-07-2019 06:40:17 10.5 C 32 %
275 04-07-2019 06:52:17 10.5 C 32 %
Sensor: Nr:Datum:Temp:Feuchte:
Aussen-T/F 276 04-07-2019 07:04:18 10.4 C 33 %
277 04-07-2019 07:16:17 10.5 C 34 %
278 04-07-2019 07:28:17 10.8 C 32 %
279 04-07-2019 07:40:17 11.1 C 31 %
280 04-07-2019 07:52:18 11.3 C 30 %
281 04-07-2019 08:04:18 11.5 C 30 %
282 04-07-2019 08:16:18 11.9 C 30 %
283 04-07-2019 08:28:18 12.4 C 26 %
284 04-07-2019 08:40:17 13.1 C 20 %
285 04-07-2019 08:52:17 14 C 20 %
286 04-07-2019 09:04:18 14.1 C 20 %
287 04-07-2019 09:16:17 15.5 C 20 %
288 04-07-2019 09:28:17 16.9 C 20 %
289 04-07-2019 09:40:17 21.2 C 20 %
290 04-07-2019 09:52:17 22.6 C 20 %
291 04-07-2019 10:04:18 20.4 C 20 %
292 04-07-2019 10:16:18 19.3 C 20 %
293 04-07-2019 10:28:18 19.7 C 20 %
294 04-07-2019 10:40:17 20.5 C 20 %
295 04-07-2019 10:52:17 20.7 C 20 %
296 04-07-2019 11:04:18 21.2 C 20 %
297 04-07-2019 11:16:18 21.5 C 20 %
298 04-07-2019 11:28:18 21.6 C 20 %
299 04-07-2019 11:40:17 22.5 C 20 %
300 04-07-2019 11:52:18 23 C 20 %
Sensor: Nr:Datum:Temp:Feuchte:
Aussen-T/F 301 04-07-2019 12:04:17 22.9 C 20 %
302 04-07-2019 12:16:17 21.6 C 20 %
303 04-07-2019 12:28:17 23.2 C 20 %
304 04-07-2019 12:40:18 21.8 C 20 %
305 04-07-2019 12:52:18 21.8 C 20 %
306 04-07-2019 13:04:18 22 C 20 %
307 04-07-2019 13:16:18 22.7 C 20 %
308 04-07-2019 13:28:18 22.7 C 20 %
309 04-07-2019 13:40:17 22.8 C 20 %
310 04-07-2019 13:52:17 23.1 C 20 %
311 04-07-2019 14:04:17 22.9 C 20 %
312 04-07-2019 14:16:17 24 C 20 %
313 04-07-2019 14:28:17 24.5 C 20 %
314 04-07-2019 14:40:17 24.9 C 20 %
315 04-07-2019 14:52:17 25.7 C 20 %
316 04-07-2019 15:04:17 25.4 C 20 %
317 04-07-2019 15:16:18 25.8 C 20 %
318 04-07-2019 15:28:18 26.4 C 20 %
319 04-07-2019 15:40:18 27 C 20 %
320 04-07-2019 15:52:17 26.6 C 20 %
321 04-07-2019 16:04:17 26.5 C 20 %
322 04-07-2019 16:16:18 27.8 C 20 %
323 04-07-2019 16:28:18 28 C 20 %
324 04-07-2019 16:40:18 27.5 C 20 %
325 04-07-2019 16:52:17 26.9 C 20 %
Sensor: Nr:Datum:Temp:Feuchte:
Aussen-T/F 326 04-07-2019 17:04:17 27.3 C 20 %
327 04-07-2019 17:16:17 28.2 C 20 %
328 04-07-2019 17:28:17 26.9 C 20 %
329 04-07-2019 17:40:18 28 C 20 %
330 04-07-2019 17:52:17 28 C 20 %
331 04-07-2019 18:04:17 28.5 C 20 %
332 04-07-2019 18:16:18 28 C 20 %
333 04-07-2019 18:28:18 28.9 C 20 %
334 04-07-2019 18:40:17 27.6 C 20 %
335 04-07-2019 18:52:17 27.9 C 20 %
336 04-07-2019 19:04:18 28.6 C 20 %
337 04-07-2019 19:16:18 27.3 C 20 %
338 04-07-2019 19:28:18 27.1 C 20 %
339 04-07-2019 19:40:18 26.9 C 20 %
340 04-07-2019 19:52:17 26.3 C 20 %
341 04-07-2019 20:04:18 25.7 C 20 %
342 04-07-2019 20:16:17 25.4 C 20 %
343 04-07-2019 20:28:17 24.9 C 20 %
344 04-07-2019 20:40:17 24.6 C 20 %
345 04-07-2019 20:52:18 23.7 C 20 %
346 04-07-2019 21:04:18 23.4 C 20 %
347 04-07-2019 21:16:18 21.8 C 20 %
348 04-07-2019 21:28:18 20.4 C 20 %
349 04-07-2019 21:40:17 19.8 C 20 %
350 04-07-2019 21:52:17 19.1 C 20 %
Sensor: Nr:Datum:Temp:Feuchte:
Aussen-T/F 351 04-07-2019 22:04:17 19.1 C 20 %
352 04-07-2019 22:16:17 18.7 C 20 %
353 04-07-2019 22:28:17 18.2 C 20 %
354 04-07-2019 22:40:17 18 C 20 %
355 04-07-2019 22:52:18 17.8 C 20 %
356 04-07-2019 23:04:18 17.7 C 20 %
357 04-07-2019 23:16:18 17.5 C 20 %
358 04-07-2019 23:28:18 17.5 C 20 %
359 04-07-2019 23:40:18 17.6 C 20 %
360 04-07-2019 23:52:18 17.3 C 20 %
361 05-07-2019 00:04:18 17 C 20 %
362 05-07-2019 00:16:17 16.6 C 20 %
363 05-07-2019 00:28:17 16.1 C 20 %
364 05-07-2019 00:40:17 16.1 C 20 %
365 05-07-2019 00:52:18 16 C 20 %
366 05-07-2019 01:04:18 15.4 C 20 %
367 05-07-2019 01:16:18 15.1 C 20 %
368 05-07-2019 01:28:18 14.8 C 20 %
369 05-07-2019 01:40:18 14.8 C 20 %
370 05-07-2019 01:52:17 14.6 C 20 %
371 05-07-2019 02:04:18 14.3 C 20 %
372 05-07-2019 02:16:17 14.1 C 20 %
373 05-07-2019 02:28:17 13.9 C 20 %
374 05-07-2019 02:40:17 13.7 C 20 %
375 05-07-2019 02:52:18 13.7 C 20 %
Sensor: Nr:Datum:Temp:Feuchte:
Aussen-T/F 376 05-07-2019 03:04:18 13.7 C 20 %
377 05-07-2019 03:16:18 13.8 C 20 %
378 05-07-2019 03:28:18 13.8 C 20 %
379 05-07-2019 03:40:18 14 C 20 %
380 05-07-2019 03:52:17 14.4 C 20 %
381 05-07-2019 04:04:18 14.6 C 20 %
382 05-07-2019 04:16:18 14.5 C 20 %
383 05-07-2019 04:28:18 14.3 C 20 %
384 05-07-2019 04:40:18 14.3 C 20 %
385 05-07-2019 04:52:17 14.2 C 20 %
386 05-07-2019 05:04:17 14 C 20 %
387 05-07-2019 05:16:18 13.9 C 20 %
388 05-07-2019 05:28:18 13.9 C 20 %
389 05-07-2019 05:40:18 14 C 20 %
390 05-07-2019 05:52:18 14.2 C 20 %
391 05-07-2019 06:04:18 14.3 C 20 %
392 05-07-2019 06:16:17 14.4 C 20 %
393 05-07-2019 06:28:17 14.4 C 20 %
394 05-07-2019 06:40:17 14.4 C 20 %
395 05-07-2019 06:52:17 14.6 C 20 %
396 05-07-2019 07:04:18 14.6 C 20 %
397 05-07-2019 07:16:17 14.8 C 20 %
398 05-07-2019 07:28:17 15.2 C 20 %
399 05-07-2019 07:40:17 15.4 C 20 %
400 05-07-2019 07:52:18 15.4 C 20 %
Sensor: Nr:Datum:Temp:Feuchte:
Aussen-T/F 401 05-07-2019 08:04:17 15.7 C 20 %
402 05-07-2019 08:16:17 16.4 C 20 %
403 05-07-2019 08:28:17 16.6 C 20 %
404 05-07-2019 08:40:17 16.9 C 20 %
405 05-07-2019 08:52:17 17.3 C 20 %
406 05-07-2019 09:04:18 17.5 C 20 %
407 05-07-2019 09:16:17 17.8 C 20 %
408 05-07-2019 09:28:17 18.2 C 20 %
409 05-07-2019 09:40:17 18.8 C 20 %
410 05-07-2019 09:52:17 20.4 C 20 %
411 05-07-2019 10:04:17 22 C 20 %
412 05-07-2019 10:16:17 21.8 C 20 %
413 05-07-2019 10:28:17 22.4 C 20 %
414 05-07-2019 10:40:17 23.3 C 20 %
415 05-07-2019 10:52:17 23 C 20 %
416 05-07-2019 11:04:17 22.6 C 20 %
417 05-07-2019 11:16:17 22.8 C 20 %
418 05-07-2019 11:28:17 23.5 C 20 %
419 05-07-2019 11:40:18 24 C 20 %
420 05-07-2019 11:52:17 24.2 C 20 %
421 05-07-2019 12:04:17 25 C 20 %
422 05-07-2019 12:16:17 24.2 C 20 %
423 05-07-2019 12:28:17 25.8 C 20 %
424 05-07-2019 12:40:17 24.5 C 20 %
425 05-07-2019 12:52:17 24.8 C 20 %
Sensor: Nr:Datum:Temp:Feuchte:
Aussen-T/F 426 05-07-2019 13:04:18 24.7 C 20 %
427 05-07-2019 13:16:17 25.1 C 20 %
428 05-07-2019 13:28:17 25.4 C 20 %
429 05-07-2019 13:40:17 25.8 C 20 %
430 05-07-2019 13:52:18 25.8 C 20 %
431 05-07-2019 14:04:17 26 C 20 %
432 05-07-2019 14:16:17 26.6 C 20 %
433 05-07-2019 14:28:17 26.8 C 20 %
434 05-07-2019 14:40:17 27.7 C 20 %
435 05-07-2019 14:52:17 28.3 C 20 %
436 05-07-2019 15:04:18 28.6 C 20 %
437 05-07-2019 15:16:17 28.5 C 20 %
438 05-07-2019 15:28:17 28.4 C 20 %
439 05-07-2019 15:40:17 28.9 C 20 %
440 05-07-2019 15:52:17 28.3 C 20 %
441 05-07-2019 16:04:18 28.6 C 20 %
442 05-07-2019 16:16:18 29.3 C 20 %
443 05-07-2019 16:28:18 28.9 C 20 %
444 05-07-2019 16:40:17 29.5 C 20 %
445 05-07-2019 16:52:18 29.3 C 20 %
446 05-07-2019 17:04:18 29.4 C 20 %
447 05-07-2019 17:16:18 30.2 C 20 %
448 05-07-2019 17:28:18 29.7 C 20 %
449 05-07-2019 17:40:18 29.7 C 20 %
450 05-07-2019 17:52:17 30.7 C 20 %
Sensor: Nr:Datum:Temp:Feuchte:
Aussen-T/F 451 05-07-2019 18:04:18 29.5 C 20 %
452 05-07-2019 18:16:17 30.3 C 20 %
453 05-07-2019 18:28:17 29.5 C 20 %
454 05-07-2019 18:40:17 29.9 C 20 %
455 05-07-2019 18:52:18 28.7 C 20 %
456 05-07-2019 19:04:18 29.2 C 20 %
457 05-07-2019 19:16:18 28.7 C 20 %
458 05-07-2019 19:28:18 28.2 C 20 %
459 05-07-2019 19:40:18 27.6 C 20 %
460 05-07-2019 19:52:17 26.9 C 20 %
461 05-07-2019 20:04:18 26.8 C 20 %
462 05-07-2019 20:16:18 26.7 C 20 %
463 05-07-2019 20:28:18 26.5 C 20 %
464 05-07-2019 20:40:18 26.1 C 20 %
465 05-07-2019 20:52:17 25.4 C 20 %
466 05-07-2019 21:04:18 24.3 C 20 %
467 05-07-2019 21:16:18 23 C 20 %
468 05-07-2019 21:28:18 22.6 C 20 %
469 05-07-2019 21:40:18 21.8 C 20 %
470 05-07-2019 21:52:17 21.3 C 20 %
471 05-07-2019 22:04:18 21.2 C 20 %
472 05-07-2019 22:16:18 21.1 C 20 %
473 05-07-2019 22:28:18 21.1 C 20 %
474 05-07-2019 22:40:18 21.2 C 20 %
475 05-07-2019 22:52:17 21.1 C 20 %
Sensor: Nr:Datum:Temp:Feuchte:
Aussen-T/F 476 05-07-2019 23:04:17 20.8 C 20 %
477 05-07-2019 23:16:17 20.5 C 20 %
478 05-07-2019 23:28:17 20.1 C 20 %
479 05-07-2019 23:40:18 19.5 C 20 %
480 05-07-2019 23:52:18 19 C 20 %
481 06-07-2019 00:04:18 18.7 C 20 %
482 06-07-2019 00:16:18 18.4 C 20 %
483 06-07-2019 00:28:18 18.3 C 20 %
484 06-07-2019 00:40:17 18.1 C 20 %
485 06-07-2019 00:52:18 18.1 C 20 %
486 06-07-2019 01:04:18 18.1 C 20 %
487 06-07-2019 01:16:18 17.8 C 20 %
488 06-07-2019 01:28:18 17.3 C 20 %
489 06-07-2019 01:40:18 17.2 C 20 %
490 06-07-2019 01:52:17 17.2 C 20 %
491 06-07-2019 02:04:18 17.2 C 20 %
492 06-07-2019 02:16:18 17.1 C 20 %
493 06-07-2019 02:28:18 17.2 C 20 %
494 06-07-2019 02:40:17 17.2 C 20 %
495 06-07-2019 02:52:17 17.2 C 20 %
496 06-07-2019 03:04:17 17.3 C 20 %
497 06-07-2019 03:16:17 17.3 C 20 %
498 06-07-2019 03:28:17 17 C 20 %
499 06-07-2019 03:40:17 16.9 C 20 %
500 06-07-2019 03:52:18 16.7 C 20 %
Sensor: Nr:Datum:Temp:Feuchte:
Aussen-T/F 501 06-07-2019 04:04:18 16.6 C 22 %
502 06-07-2019 04:16:18 16.3 C 22 %
503 06-07-2019 04:28:18 16.1 C 25 %
504 06-07-2019 04:40:18 16 C 25 %
505 06-07-2019 04:52:17 15.9 C 25 %
506 06-07-2019 05:04:18 15.7 C 26 %
507 06-07-2019 05:16:17 15.6 C 26 %
508 06-07-2019 05:28:17 15.4 C 26 %
509 06-07-2019 05:40:17 14.9 C 29 %
510 06-07-2019 05:52:17 15.1 C 30 %
511 06-07-2019 06:04:17 15.2 C 30 %
512 06-07-2019 06:16:18 15.6 C 28 %
513 06-07-2019 06:28:18 15.6 C 28 %
514 06-07-2019 06:40:18 15.6 C 29 %
515 06-07-2019 06:52:17 15.5 C 29 %
516 06-07-2019 07:04:18 15.2 C 28 %
517 06-07-2019 07:16:18 15 C 31 %
518 06-07-2019 07:28:18 15 C 32 %
519 06-07-2019 07:40:18 15.4 C 32 %
520 06-07-2019 07:52:17 15.9 C 27 %
521 06-07-2019 08:04:18 16.5 C 24 %
522 06-07-2019 08:16:18 17 C 21 %
523 06-07-2019 08:28:18 17.6 C 20 %
524 06-07-2019 08:40:17 18.1 C 20 %
525 06-07-2019 08:52:18 18.7 C 20 %
Sensor: Nr:Datum:Temp:Feuchte:
Aussen-T/F 526 06-07-2019 09:04:18 19.2 C 20 %
527 06-07-2019 09:16:18 20 C 20 %
528 06-07-2019 09:28:18 21.3 C 20 %
529 06-07-2019 09:40:18 23.1 C 20 %
530 06-07-2019 09:52:17 27.4 C 20 %
531 06-07-2019 10:04:18 25.6 C 20 %
532 06-07-2019 10:16:18 23.5 C 20 %
533 06-07-2019 10:28:18 23.7 C 20 %
534 06-07-2019 10:40:18 24.6 C 20 %
535 06-07-2019 10:52:17 25.2 C 20 %
536 06-07-2019 11:04:18 26 C 20 %
537 06-07-2019 11:16:18 26.8 C 20 %
538 06-07-2019 11:28:18 27 C 20 %
539 06-07-2019 11:40:18 27.3 C 20 %
540 06-07-2019 11:52:17 27.8 C 20 %
541 06-07-2019 12:04:18 26.6 C 20 %
542 06-07-2019 12:16:18 26.6 C 20 %
543 06-07-2019 12:28:18 26.2 C 20 %
544 06-07-2019 12:40:18 27.1 C 20 %
545 06-07-2019 12:52:17 27.2 C 20 %
546 06-07-2019 13:04:18 27.8 C 20 %
547 06-07-2019 13:16:17 27.7 C 20 %
548 06-07-2019 13:28:17 28.1 C 20 %
549 06-07-2019 13:40:17 28.3 C 20 %
550 06-07-2019 13:52:18 28.5 C 20 %
Sensor: Nr:Datum:Temp:Feuchte:
Aussen-T/F 551 06-07-2019 14:04:18 28.6 C 20 %
552 06-07-2019 14:16:17 29.6 C 20 %
553 06-07-2019 14:28:17 30.5 C 20 %
554 06-07-2019 14:40:18 30 C 20 %
555 06-07-2019 14:52:17 31.2 C 20 %
556 06-07-2019 15:04:18 31.8 C 20 %
557 06-07-2019 15:16:18 32.3 C 20 %
558 06-07-2019 15:28:18 32.5 C 20 %
559 06-07-2019 15:40:18 32.2 C 20 %
560 06-07-2019 15:52:18 31.2 C 20 %
561 06-07-2019 16:04:18 30.5 C 20 %
562 06-07-2019 16:16:18 30.2 C 20 %
563 06-07-2019 16:28:18 29.5 C 20 %
564 06-07-2019 16:40:18 29.2 C 20 %
565 06-07-2019 16:52:17 29.1 C 20 %
566 06-07-2019 17:04:18 29.1 C 20 %
567 06-07-2019 17:16:18 29.4 C 20 %
568 06-07-2019 17:28:18 28.8 C 20 %
569 06-07-2019 17:40:18 28.3 C 20 %
570 06-07-2019 17:52:18 27.7 C 20 %
571 06-07-2019 18:04:18 26.6 C 20 %
572 06-07-2019 18:16:17 22.2 C 20 %
573 06-07-2019 18:28:17 21 C 20 %
574 06-07-2019 18:40:18 21.8 C 20 %
575 06-07-2019 18:52:17 22 C 20 %
Sensor: Nr:Datum:Temp:Feuchte:
Aussen-T/F 576 06-07-2019 19:04:18 22.2 C 20 %
577 06-07-2019 19:16:17 22.4 C 20 %
578 06-07-2019 19:28:17 22.5 C 20 %
579 06-07-2019 19:40:18 22.5 C 20 %
580 06-07-2019 19:52:17 21.2 C 20 %
581 06-07-2019 20:04:18 20.3 C 20 %
582 06-07-2019 20:16:18 21 C 20 %
583 06-07-2019 20:28:18 19.5 C 20 %
584 06-07-2019 20:40:18 19.7 C 20 %
585 06-07-2019 20:52:17 20.3 C 20 %
586 06-07-2019 21:04:18 20.2 C 20 %
587 06-07-2019 21:16:18 20.3 C 20 %
588 06-07-2019 21:28:18 20.3 C 20 %
589 06-07-2019 21:40:18 19.9 C 20 %
590 06-07-2019 21:52:17 19.9 C 20 %
591 06-07-2019 22:04:18 19.8 C 20 %
592 06-07-2019 22:16:17 19.5 C 20 %
593 06-07-2019 22:28:18 20.4 C 20 %
594 06-07-2019 22:40:18 20.8 C 20 %
595 06-07-2019 22:52:17 21 C 20 %
596 06-07-2019 23:04:17 20.9 C 20 %
597 06-07-2019 23:16:17 20.8 C 20 %
598 06-07-2019 23:28:17 20.4 C 20 %
599 06-07-2019 23:40:17 20.1 C 20 %
600 06-07-2019 23:52:17 19.6 C 20 %
Sensor: Nr:Datum:Temp:Feuchte:
Aussen-T/F 601 07-07-2019 00:04:17 19.5 C 20 %
602 07-07-2019 00:16:17 19.2 C 20 %
603 07-07-2019 00:28:17 19 C 20 %
604 07-07-2019 00:40:18 18.8 C 20 %
605 07-07-2019 00:52:17 18.6 C 20 %
606 07-07-2019 01:04:18 18.3 C 20 %
607 07-07-2019 01:16:18 18.2 C 20 %
608 07-07-2019 01:28:18 18.2 C 20 %
609 07-07-2019 01:40:18 17.7 C 20 %
610 07-07-2019 01:52:17 17.7 C 20 %
611 07-07-2019 02:04:18 17.7 C 20 %
612 07-07-2019 02:16:18 17.7 C 20 %
613 07-07-2019 02:28:18 17.6 C 20 %
614 07-07-2019 02:40:18 17.6 C 20 %
615 07-07-2019 02:52:17 17.4 C 20 %
616 07-07-2019 03:04:17 17.4 C 20 %
617 07-07-2019 03:16:18 17.3 C 20 %
618 07-07-2019 03:28:18 17.2 C 20 %
619 07-07-2019 03:40:18 17.2 C 20 %
620 07-07-2019 03:52:17 17.2 C 20 %
621 07-07-2019 04:04:18 17.2 C 20 %
622 07-07-2019 04:16:18 17.2 C 20 %
623 07-07-2019 04:28:18 17.2 C 20 %
624 07-07-2019 04:40:18 17.1 C 20 %
625 07-07-2019 04:52:17 17 C 20 %
Sensor: Nr:Datum:Temp:Feuchte:
Aussen-T/F 626 07-07-2019 05:04:18 16.8 C 20 %
627 07-07-2019 05:16:18 16.7 C 20 %
628 07-07-2019 05:28:18 16.6 C 20 %
629 07-07-2019 05:40:18 15.9 C 26 %
630 07-07-2019 05:52:17 14.9 C 36 %
631 07-07-2019 06:04:18 14.6 C 43 %
632 07-07-2019 06:16:17 14.4 C 44 %
633 07-07-2019 06:28:17 14.3 C 46 %
634 07-07-2019 06:40:17 14.4 C 46 %
635 07-07-2019 06:52:17 14.5 C 46 %
636 07-07-2019 07:04:17 14.5 C 47 %
637 07-07-2019 07:16:17 14.5 C 47 %
638 07-07-2019 07:28:17 14.5 C 47 %
639 07-07-2019 07:40:17 14.3 C 47 %
640 07-07-2019 07:52:17 14.1 C 47 %
641 07-07-2019 08:04:18 14 C 46 %
642 07-07-2019 08:16:18 13.8 C 46 %
643 07-07-2019 08:28:18 13.9 C 47 %
644 07-07-2019 08:40:17 13.9 C 47 %
645 07-07-2019 08:52:18 14.2 C 47 %
646 07-07-2019 09:04:18 14.1 C 45 %
647 07-07-2019 09:16:17 14.2 C 44 %
648 07-07-2019 09:28:17 14.8 C 40 %
649 07-07-2019 09:40:17 15.6 C 37 %
650 07-07-2019 09:52:17 15.6 C 34 %
Sensor: Nr:Datum:Temp:Feuchte:
Aussen-T/F 651 07-07-2019 10:04:18 15.8 C 33 %
652 07-07-2019 10:16:18 15.8 C 29 %
653 07-07-2019 10:28:18 15.9 C 27 %
654 07-07-2019 10:40:18 15.5 C 24 %
655 07-07-2019 10:52:17 16.8 C 22 %
656 07-07-2019 11:04:18 16.6 C 20 %
657 07-07-2019 11:16:18 16.8 C 20 %
658 07-07-2019 11:28:18 17.2 C 20 %
659 07-07-2019 11:40:18 18.1 C 20 %
660 07-07-2019 11:52:17 18.7 C 20 %
661 07-07-2019 12:04:18 19.1 C 20 %
662 07-07-2019 12:16:18 18.4 C 20 %
663 07-07-2019 12:28:18 18.9 C 20 %
664 07-07-2019 12:40:18 19.1 C 20 %
665 07-07-2019 12:52:17 19 C 20 %
666 07-07-2019 13:04:18 18.9 C 20 %
667 07-07-2019 13:16:18 19 C 20 %
668 07-07-2019 13:28:18 19.6 C 20 %
669 07-07-2019 13:40:18 19.7 C 20 %
670 07-07-2019 13:52:17 19.7 C 20 %
671 07-07-2019 14:04:17 19.3 C 20 %
672 07-07-2019 14:16:18 19.8 C 20 %
673 07-07-2019 14:28:18 20.8 C 20 %
674 07-07-2019 14:40:17 19.8 C 20 %
675 07-07-2019 14:52:18 20.5 C 20 %
Sensor: Nr:Datum:Temp:Feuchte:
Aussen-T/F 676 07-07-2019 15:04:18 22.1 C 20 %
677 07-07-2019 15:16:18 21.9 C 20 %
678 07-07-2019 15:28:18 21.8 C 20 %
679 07-07-2019 15:40:18 22.1 C 20 %
680 07-07-2019 15:52:18 22.6 C 20 %
681 07-07-2019 16:04:18 22.4 C 20 %
682 07-07-2019 16:16:17 22.2 C 20 %
683 07-07-2019 16:28:17 22.1 C 20 %
684 07-07-2019 16:40:18 22.3 C 20 %
685 07-07-2019 16:52:18 22.2 C 20 %
686 07-07-2019 17:04:17 21.1 C 20 %
687 07-07-2019 17:16:17 21.5 C 20 %
688 07-07-2019 17:28:18 23.1 C 20 %
689 07-07-2019 17:40:18 22.5 C 20 %
690 07-07-2019 17:52:18 22.6 C 20 %
691 07-07-2019 18:04:18 22.4 C 20 %
692 07-07-2019 18:16:17 22 C 20 %
693 07-07-2019 18:28:17 21.9 C 20 %
694 07-07-2019 18:40:17 22.8 C 20 %
695 07-07-2019 18:52:17 22.5 C 20 %
696 07-07-2019 19:04:17 22 C 20 %
697 07-07-2019 19:16:17 21.8 C 20 %
698 07-07-2019 19:28:17 22 C 20 %
699 07-07-2019 19:40:17 21.2 C 20 %
700 07-07-2019 19:52:18 20.9 C 20 %
Sensor: Nr:Datum:Temp:Feuchte:
Aussen-T/F 701 07-07-2019 20:04:17 20.4 C 20 %
702 07-07-2019 20:16:18 20.3 C 20 %
703 07-07-2019 20:28:18 20.3 C 20 %
704 07-07-2019 20:40:18 20.3 C 20 %
705 07-07-2019 20:52:17 19.9 C 20 %
706 07-07-2019 21:04:18 19.3 C 20 %
707 07-07-2019 21:16:17 19 C 20 %
708 07-07-2019 21:28:17 18.8 C 20 %
709 07-07-2019 21:40:17 18.3 C 20 %
710 07-07-2019 21:52:18 17 C 20 %
711 07-07-2019 22:04:18 15.8 C 20 %
712 07-07-2019 22:16:17 15.1 C 20 %
713 07-07-2019 22:28:17 14.9 C 20 %
714 07-07-2019 22:40:18 14.3 C 20 %
715 07-07-2019 22:52:17 13.9 C 20 %
716 07-07-2019 23:04:17 13.7 C 20 %
717 07-07-2019 23:16:17 13.5 C 20 %
718 07-07-2019 23:28:17 13.4 C 20 %
719 07-07-2019 23:40:17 13.3 C 20 %
720 07-07-2019 23:52:17 13.1 C 20 %
721 08-07-2019 00:04:18 13 C 21 %
722 08-07-2019 00:16:17 12.8 C 20 %
723 08-07-2019 00:28:17 12.8 C 21 %
724 08-07-2019 00:40:18 12.7 C 21 %
725 08-07-2019 00:52:18 12.6 C 22 %
Sensor: Nr:Datum:Temp:Feuchte:
Aussen-T/F 726 08-07-2019 01:04:18 12.1 C 26 %
727 08-07-2019 01:16:18 12 C 25 %
728 08-07-2019 01:28:18 11.7 C 29 %
729 08-07-2019 01:40:18 11.6 C 31 %
730 08-07-2019 01:52:17 11.2 C 30 %
731 08-07-2019 02:04:17 11.2 C 31 %
732 08-07-2019 02:16:17 11 C 30 %
733 08-07-2019 02:28:17 11.1 C 30 %
734 08-07-2019 02:40:18 11.1 C 30 %
735 08-07-2019 02:52:17 11.1 C 28 %
736 08-07-2019 03:04:18 11 C 30 %
737 08-07-2019 03:16:18 11 C 30 %
738 08-07-2019 03:28:18 10.8 C 30 %
739 08-07-2019 03:40:18 11.1 C 29 %
740 08-07-2019 03:52:17 11.1 C 27 %
741 08-07-2019 04:04:17 11.2 C 26 %
742 08-07-2019 04:16:17 10.7 C 28 %
743 08-07-2019 04:28:18 10.6 C 30 %
744 08-07-2019 04:40:18 10.4 C 31 %
745 08-07-2019 04:52:17 10.2 C 33 %
746 08-07-2019 05:04:18 10 C 35 %
747 08-07-2019 05:16:17 9.9 C 35 %
748 08-07-2019 05:28:17 9.8 C 37 %
749 08-07-2019 05:40:17 9.6 C 37 %
750 08-07-2019 05:52:18 9.4 C 37 %
Sensor: Nr:Datum:Temp:Feuchte:
Aussen-T/F 751 08-07-2019 06:04:18 9.3 C 38 %
752 08-07-2019 06:16:17 9.4 C 39 %
753 08-07-2019 06:28:17 9.6 C 40 %
754 08-07-2019 06:40:18 9.7 C 40 %
755 08-07-2019 06:52:17 9.9 C 40 %
756 08-07-2019 07:04:18 9.8 C 40 %
757 08-07-2019 07:16:18 10 C 40 %
758 08-07-2019 07:28:18 10.2 C 40 %
759 08-07-2019 07:40:18 10.4 C 40 %
760 08-07-2019 07:52:17 10.6 C 40 %
761 08-07-2019 08:04:18 10.7 C 39 %
762 08-07-2019 08:16:17 11.1 C 38 %
763 08-07-2019 08:28:17 11.8 C 33 %
764 08-07-2019 08:40:17 12.8 C 30 %
765 08-07-2019 08:52:17 13.8 C 20 %
766 08-07-2019 09:04:18 14 C 20 %
767 08-07-2019 09:16:17 15.5 C 20 %
768 08-07-2019 09:28:17 16.4 C 20 %
769 08-07-2019 09:40:17 18 C 20 %
770 08-07-2019 09:52:18 17.7 C 20 %
771 08-07-2019 10:04:17 16.5 C 20 %
772 08-07-2019 10:16:18 16.3 C 20 %
773 08-07-2019 10:28:18 15.9 C 20 %
774 08-07-2019 10:40:17 15.9 C 20 %
775 08-07-2019 10:52:18 16.5 C 20 %
Sensor: Nr:Datum:Temp:Feuchte:
Aussen-T/F 776 08-07-2019 11:04:17 16.7 C 20 %
777 08-07-2019 11:16:17 17.7 C 20 %
778 08-07-2019 11:28:17 16.8 C 20 %
779 08-07-2019 11:40:17 16.5 C 20 %
780 08-07-2019 11:52:17 17 C 20 %
781 08-07-2019 12:04:18 17.1 C 20 %
782 08-07-2019 12:16:17 17.4 C 20 %
783 08-07-2019 12:28:17 17.5 C 20 %
784 08-07-2019 12:40:18 17.5 C 20 %
785 08-07-2019 12:52:17 17.3 C 20 %
786 08-07-2019 13:04:17 17.8 C 20 %
787 08-07-2019 13:16:17 17.7 C 20 %
788 08-07-2019 13:28:17 18.1 C 20 %
789 08-07-2019 13:40:17 17.6 C 20 %
790 08-07-2019 13:52:17 17.6 C 20 %
791 08-07-2019 14:04:17 17.8 C 20 %
792 08-07-2019 14:16:17 18.2 C 20 %
793 08-07-2019 14:28:17 18.6 C 20 %
794 08-07-2019 14:40:17 17.6 C 20 %
795 08-07-2019 14:52:17 17.7 C 20 %
796 08-07-2019 15:04:18 17.4 C 20 %
797 08-07-2019 15:16:17 18.6 C 20 %
798 08-07-2019 15:28:17 18.1 C 20 %
799 08-07-2019 15:40:18 18.1 C 20 %
800 08-07-2019 15:52:17 18.2 C 20 %
Sensor: Nr:Datum:Temp:Feuchte:
Aussen-T/F 801 08-07-2019 16:04:17 18.4 C 20 %
802 08-07-2019 16:16:18 18.3 C 20 %
803 08-07-2019 16:28:18 18.5 C 20 %
804 08-07-2019 16:40:18 19.3 C 20 %
805 08-07-2019 16:52:17 18.7 C 20 %
806 08-07-2019 17:04:18 18.7 C 20 %
807 08-07-2019 17:16:18 18.9 C 20 %
808 08-07-2019 17:28:18 18.7 C 20 %
809 08-07-2019 17:40:18 18.4 C 20 %
810 08-07-2019 17:52:17 18.7 C 20 %
811 08-07-2019 18:04:17 18.7 C 20 %
812 08-07-2019 18:16:17 18.8 C 20 %
813 08-07-2019 18:28:17 18.3 C 20 %
814 08-07-2019 18:40:17 18.1 C 20 %
815 08-07-2019 18:52:17 18.4 C 20 %
816 08-07-2019 19:04:18 18.1 C 20 %
817 08-07-2019 19:16:17 17.9 C 20 %
818 08-07-2019 19:28:17 18.1 C 20 %
819 08-07-2019 19:40:18 18.3 C 20 %
820 08-07-2019 19:52:18 18.3 C 20 %
821 08-07-2019 20:04:18 18.5 C 20 %
822 08-07-2019 20:16:17 18.2 C 20 %
823 08-07-2019 20:28:17 17.6 C 20 %
824 08-07-2019 20:40:17 17.4 C 20 %
825 08-07-2019 20:52:18 17.5 C 20 %
Sensor: Nr:Datum:Temp:Feuchte:
Aussen-T/F 826 08-07-2019 21:04:18 17.1 C 20 %
827 08-07-2019 21:16:18 16.6 C 20 %
828 08-07-2019 21:28:18 15.7 C 20 %
829 08-07-2019 21:40:18 14.8 C 20 %
830 08-07-2019 21:52:17 14 C 20 %
831 08-07-2019 22:04:17 13.7 C 20 %
832 08-07-2019 22:16:17 13.5 C 20 %
833 08-07-2019 22:28:17 13.7 C 20 %
834 08-07-2019 22:40:17 14 C 20 %
835 08-07-2019 22:52:17 14.4 C 20 %
836 08-07-2019 23:04:17 14.5 C 20 %
837 08-07-2019 23:16:17 14.3 C 20 %
838 08-07-2019 23:28:17 14 C 20 %
839 08-07-2019 23:40:18 13.6 C 20 %
840 08-07-2019 23:52:18 13.2 C 20 %
841 09-07-2019 00:04:18 13.2 C 20 %
842 09-07-2019 00:16:18 13 C 22 %
843 09-07-2019 00:28:18 13.1 C 23 %
844 09-07-2019 00:40:18 13.1 C 23 %
845 09-07-2019 00:52:17 13.2 C 25 %
846 09-07-2019 01:04:18 12.7 C 25 %
847 09-07-2019 01:16:18 12.4 C 26 %
848 09-07-2019 01:28:18 12.5 C 27 %
849 09-07-2019 01:40:18 12.3 C 28 %
850 09-07-2019 01:52:17 12.2 C 28 %
Sensor: Nr:Datum:Temp:Feuchte:
Aussen-T/F 851 09-07-2019 02:04:18 12.1 C 29 %
852 09-07-2019 02:16:17 11.8 C 30 %
853 09-07-2019 02:28:17 11.6 C 32 %
854 09-07-2019 02:40:17 11.2 C 31 %
855 09-07-2019 02:52:18 11.1 C 34 %
856 09-07-2019 03:04:18 11.3 C 35 %
857 09-07-2019 03:16:18 11.1 C 35 %
858 09-07-2019 03:28:18 10.8 C 35 %
859 09-07-2019 03:40:18 10.7 C 36 %
860 09-07-2019 03:52:17 10.6 C 37 %
861 09-07-2019 04:04:18 10.5 C 38 %
862 09-07-2019 04:16:18 10.4 C 38 %
863 09-07-2019 04:28:18 10 C 38 %
864 09-07-2019 04:40:17 9.9 C 40 %
865 09-07-2019 04:52:18 9.7 C 40 %
866 09-07-2019 05:04:17 9.6 C 40 %
867 09-07-2019 05:16:17 9.7 C 42 %
868 09-07-2019 05:28:17 9.7 C 41 %
869 09-07-2019 05:40:17 9.6 C 41 %
870 09-07-2019 05:52:17 9.6 C 41 %
871 09-07-2019 06:04:18 9.6 C 42 %
872 09-07-2019 06:16:17 9.6 C 42 %
873 09-07-2019 06:28:18 9.7 C 42 %
874 09-07-2019 06:40:17 9.7 C 42 %
875 09-07-2019 06:52:18 10.1 C 42 %
Sensor: Nr:Datum:Temp:Feuchte:
Aussen-T/F 876 09-07-2019 07:04:17 10.5 C 41 %
877 09-07-2019 07:16:17 10.7 C 39 %
878 09-07-2019 07:28:17 11.2 C 37 %
879 09-07-2019 07:40:17 12.3 C 28 %
880 09-07-2019 07:52:17 12.8 C 25 %
881 09-07-2019 08:04:17 13.2 C 20 %
882 09-07-2019 08:16:17 13.5 C 20 %
883 09-07-2019 08:28:17 13.8 C 20 %
884 09-07-2019 08:40:17 13.8 C 20 %
885 09-07-2019 08:52:17 14.1 C 20 %
886 09-07-2019 09:04:18 14.7 C 20 %
887 09-07-2019 09:16:17 14.3 C 20 %
888 09-07-2019 09:28:17 14.8 C 20 %
889 09-07-2019 09:40:17 15.7 C 20 %
890 09-07-2019 09:52:17 15.3 C 20 %
891 09-07-2019 10:04:17 15.1 C 20 %
892 09-07-2019 10:16:18 15.2 C 20 %
893 09-07-2019 10:28:18 15.1 C 20 %
894 09-07-2019 10:40:18 15.6 C 20 %
895 09-07-2019 10:52:17 16.4 C 20 %
896 09-07-2019 11:04:18 16.7 C 20 %
897 09-07-2019 11:17:17 16.4 C 20 %
898 09-07-2019 11:28:17 17.7 C 20 %
899 09-07-2019 11:40:17 17.7 C 20 %
900 09-07-2019 11:52:18 17.2 C 20 %
Sensor: Nr:Datum:Temp:Feuchte:
Aussen-T/F 901 09-07-2019 12:04:17 17.5 C 20 %
902 09-07-2019 12:16:18 17.6 C 20 %
903 09-07-2019 12:28:18 17.7 C 20 %
904 09-07-2019 12:40:18 17.5 C 20 %
905 09-07-2019 12:52:18 18.3 C 20 %
906 09-07-2019 13:04:17 17.7 C 20 %
907 09-07-2019 13:17:17 18.1 C 20 %
908 09-07-2019 13:28:17 18.8 C 20 %
909 09-07-2019 13:40:17 18.7 C 20 %
910 09-07-2019 13:53:17 19.3 C 20 %
911 09-07-2019 14:04:17 19.3 C 20 %
912 09-07-2019 14:17:17 19 C 20 %
913 09-07-2019 14:29:17 20.4 C 20 %
914 09-07-2019 14:40:17 19.4 C 20 %
915 09-07-2019 14:52:17 19.6 C 20 %
916 09-07-2019 15:04:18 21.1 C 20 %
917 09-07-2019 15:16:17 19.5 C 20 %
918 09-07-2019 15:28:17 21.6 C 20 %
919 09-07-2019 15:40:18 20.9 C 20 %
920 09-07-2019 15:53:17 20.6 C 20 %
921 09-07-2019 16:04:17 20.8 C 20 %
922 09-07-2019 16:17:17 20.5 C 20 %
923 09-07-2019 16:29:17 20.2 C 20 %
924 09-07-2019 16:41:17 22 C 20 %
925 09-07-2019 16:52:17 22 C 20 %
Sensor: Nr:Datum:Temp:Feuchte:
Aussen-T/F 926 09-07-2019 17:04:18 21.8 C 20 %
927 09-07-2019 17:16:18 21.9 C 20 %
928 09-07-2019 17:28:18 22.3 C 20 %
929 09-07-2019 17:41:17 22.6 C 20 %
930 09-07-2019 17:53:17 22.3 C 20 %
931 09-07-2019 18:05:17 21.5 C 20 %
932 09-07-2019 18:17:17 21.2 C 20 %
933 09-07-2019 18:29:17 20.5 C 20 %
934 09-07-2019 18:41:17 21.9 C 20 %
935 09-07-2019 18:53:17 21.9 C 20 %
936 09-07-2019 19:04:18 21.6 C 20 %
937 09-07-2019 19:17:17 21.9 C 20 %
938 09-07-2019 19:29:17 21.3 C 20 %
939 09-07-2019 19:40:18 20.8 C 20 %
940 09-07-2019 19:52:17 20.4 C 20 %
941 09-07-2019 20:04:18 20 C 20 %
942 09-07-2019 20:16:18 19.6 C 20 %
943 09-07-2019 20:28:18 19.4 C 20 %
944 09-07-2019 20:40:18 19.2 C 20 %
945 09-07-2019 20:52:18 18.4 C 20 %
946 09-07-2019 21:04:18 17.4 C 20 %
947 09-07-2019 21:17:17 16.7 C 20 %
948 09-07-2019 21:29:17 16.2 C 20 %
949 09-07-2019 21:41:17 16 C 20 %
950 09-07-2019 21:52:18 15.3 C 20 %
Sensor: Nr:Datum:Temp:Feuchte:
Aussen-T/F 951 09-07-2019 22:04:18 14.9 C 20 %
952 09-07-2019 22:16:18 14.7 C 20 %
953 09-07-2019 22:28:18 14.4 C 20 %
954 09-07-2019 22:40:18 14.1 C 20 %
955 09-07-2019 22:52:18 13.7 C 20 %
956 09-07-2019 23:04:18 13.3 C 20 %
957 09-07-2019 23:16:18 12.8 C 20 %
958 09-07-2019 23:28:18 13 C 20 %
959 09-07-2019 23:40:18 13.4 C 20 %
960 09-07-2019 23:52:18 13 C 20 %
961 10-07-2019 00:05:17 12.5 C 20 %
962 10-07-2019 00:17:17 12.1 C 20 %
963 10-07-2019 00:29:17 11.6 C 20 %
964 10-07-2019 00:41:17 11.3 C 20 %
965 10-07-2019 00:52:18 11.2 C 20 %
966 10-07-2019 01:05:17 11.1 C 20 %
967 10-07-2019 01:17:17 11.1 C 20 %
968 10-07-2019 01:29:17 11 C 20 %
969 10-07-2019 01:41:17 10.8 C 20 %
970 10-07-2019 01:53:18 10.4 C 21 %
971 10-07-2019 02:04:18 10.2 C 22 %
972 10-07-2019 02:16:18 10 C 25 %
973 10-07-2019 02:28:18 9.8 C 26 %
974 10-07-2019 02:41:17 9.8 C 30 %
975 10-07-2019 02:53:17 9.6 C 31 %
Sensor: Nr:Datum:Temp:Feuchte:
Aussen-T/F 976 10-07-2019 03:05:17 9.5 C 30 %
977 10-07-2019 03:17:17 9.1 C 32 %
978 10-07-2019 03:29:17 8.9 C 32 %
979 10-07-2019 03:41:17 8.9 C 33 %
980 10-07-2019 03:53:18 8.9 C 34 %
981 10-07-2019 04:05:18 8.6 C 34 %
982 10-07-2019 04:17:18 8.5 C 35 %
983 10-07-2019 04:29:18 8.5 C 35 %
984 10-07-2019 04:41:18 8.5 C 36 %
985 10-07-2019 04:53:18 8.5 C 36 %
986 10-07-2019 05:05:17 8.4 C 35 %
987 10-07-2019 05:17:18 8.2 C 37 %
988 10-07-2019 05:29:18 8.2 C 37 %
989 10-07-2019 05:41:18 8.2 C 37 %
990 10-07-2019 05:53:18 8.2 C 38 %
991 10-07-2019 06:05:17 8.1 C 38 %
992 10-07-2019 06:17:17 8.2 C 38 %
993 10-07-2019 06:29:17 8.2 C 38 %
994 10-07-2019 06:41:17 8.1 C 38 %
995 10-07-2019 06:53:17 8.3 C 39 %
996 10-07-2019 07:05:17 8.5 C 39 %
997 10-07-2019 07:17:18 8.5 C 39 %
998 10-07-2019 07:29:18 8.7 C 39 %
999 10-07-2019 07:41:18 8.9 C 39 %
1000 10-07-2019 07:53:17 9.3 C 38 %
Sensor: Nr:Datum:Temp:Feuchte:
Aussen-T/F 1001 10-07-2019 08:05:18 9.8 C 37 %
1002 10-07-2019 08:17:17 10.4 C 36 %
1003 10-07-2019 08:29:17 11 C 31 %
1004 10-07-2019 08:41:18 11.4 C 30 %
1005 10-07-2019 08:53:17 11.8 C 27 %
1006 10-07-2019 09:05:17 12.2 C 23 %
1007 10-07-2019 09:17:18 13.4 C 20 %
1008 10-07-2019 09:29:18 14.3 C 20 %
1009 10-07-2019 09:41:17 18.7 C 20 %
1010 10-07-2019 09:53:17 20.7 C 20 %
1011 10-07-2019 10:05:17 19.5 C 20 %
1012 10-07-2019 10:17:17 18.2 C 20 %
1013 10-07-2019 10:29:17 17.8 C 20 %
1014 10-07-2019 10:41:17 18.2 C 20 %
1015 10-07-2019 10:53:17 18.9 C 20 %
1016 10-07-2019 11:05:17 19.5 C 20 %
1017 10-07-2019 11:17:17 21.6 C 20 %
1018 10-07-2019 11:29:17 20.5 C 20 %
1019 10-07-2019 11:41:17 22 C 20 %
1020 10-07-2019 11:53:17 21.8 C 20 %
1021 10-07-2019 12:05:17 21.7 C 20 %
1022 10-07-2019 12:17:18 21.1 C 20 %
1023 10-07-2019 12:29:18 21.4 C 20 %
1024 10-07-2019 12:41:17 21.4 C 20 %
1025 10-07-2019 12:53:17 21 C 20 %
Sensor: Nr:Datum:Temp:Feuchte:
Aussen-T/F 1026 10-07-2019 13:05:17 21.8 C 20 %
1027 10-07-2019 13:17:17 21.6 C 20 %
1028 10-07-2019 13:29:17 22.2 C 20 %
1029 10-07-2019 13:41:17 22.4 C 20 %
1030 10-07-2019 13:53:17 22.6 C 20 %
1031 10-07-2019 14:05:18 23.2 C 20 %
1032 10-07-2019 14:17:18 23.6 C 20 %
1033 10-07-2019 14:29:18 23.8 C 20 %
1034 10-07-2019 14:41:17 24.5 C 20 %
1035 10-07-2019 14:53:17 24.4 C 20 %
1036 10-07-2019 15:05:17 25.4 C 20 %
1037 10-07-2019 15:17:18 25.4 C 20 %
1038 10-07-2019 15:29:18 25.9 C 20 %
1039 10-07-2019 15:41:17 26.4 C 20 %
1040 10-07-2019 15:53:17 25.9 C 20 %
1041 10-07-2019 16:05:18 25.3 C 20 %
1042 10-07-2019 16:17:18 25.6 C 20 %
1043 10-07-2019 16:29:18 26.2 C 20 %
1044 10-07-2019 16:41:17 26 C 20 %
1045 10-07-2019 16:53:17 26.9 C 20 %
1046 10-07-2019 17:05:17 26.5 C 20 %
1047 10-07-2019 17:17:17 27.1 C 20 %
1048 10-07-2019 17:29:17 27.2 C 20 %
1049 10-07-2019 17:41:17 26.3 C 20 %
1050 10-07-2019 17:53:17 26.8 C 20 %
Sensor: Nr:Datum:Temp:Feuchte:
Aussen-T/F 1051 10-07-2019 18:05:18 28.3 C 20 %
1052 10-07-2019 18:17:17 28.7 C 20 %
1053 10-07-2019 18:29:17 27.3 C 20 %
1054 10-07-2019 18:41:18 27.9 C 20 %
1055 10-07-2019 18:53:18 26 C 20 %
1056 10-07-2019 19:05:17 26.3 C 20 %
1057 10-07-2019 19:17:18 26.3 C 20 %
1058 10-07-2019 19:29:18 26.4 C 20 %
1059 10-07-2019 19:41:18 25.6 C 20 %
1060 10-07-2019 19:53:17 25 C 20 %
1061 10-07-2019 20:05:18 24.4 C 20 %
1062 10-07-2019 20:17:17 24 C 20 %
1063 10-07-2019 20:29:17 23.8 C 20 %
1064 10-07-2019 20:41:17 23.3 C 20 %
1065 10-07-2019 20:53:17 22.8 C 20 %
1066 10-07-2019 21:05:17 21 C 20 %
1067 10-07-2019 21:17:17 20.5 C 20 %
1068 10-07-2019 21:29:17 20.3 C 20 %
1069 10-07-2019 21:41:18 20 C 20 %
1070 10-07-2019 21:53:18 19.8 C 20 %
1071 10-07-2019 22:05:18 19.7 C 20 %
1072 10-07-2019 22:17:17 19.3 C 20 %
1073 10-07-2019 22:29:17 18.8 C 20 %
1074 10-07-2019 22:41:18 18.7 C 20 %
1075 10-07-2019 22:53:17 18.9 C 20 %
Sensor: Nr:Datum:Temp:Feuchte:
Aussen-T/F 1076 10-07-2019 23:05:18 18.9 C 20 %
1077 10-07-2019 23:17:18 18.8 C 20 %
1078 10-07-2019 23:29:18 19 C 20 %
1079 10-07-2019 23:41:18 19.4 C 20 %
1080 10-07-2019 23:53:17 20 C 20 %
1081 11-07-2019 00:05:18 19.8 C 20 %
1082 11-07-2019 00:17:17 19.8 C 20 %
1083 11-07-2019 00:29:17 19 C 20 %
1084 11-07-2019 00:41:17 18.7 C 20 %
1085 11-07-2019 00:53:17 18.3 C 20 %
1086 11-07-2019 01:05:18 18 C 20 %
1087 11-07-2019 01:17:17 17.9 C 20 %
1088 11-07-2019 01:29:17 17.8 C 20 %
1089 11-07-2019 01:41:18 17.6 C 20 %
1090 11-07-2019 01:53:17 17.5 C 20 %
1091 11-07-2019 02:05:17 17.4 C 20 %
1092 11-07-2019 02:17:17 17.4 C 20 %
1093 11-07-2019 02:29:17 17.4 C 20 %
1094 11-07-2019 02:41:17 17.2 C 20 %
1095 11-07-2019 02:53:18 17.2 C 20 %
1096 11-07-2019 03:05:18 17.2 C 20 %
1097 11-07-2019 03:17:18 17.1 C 20 %
1098 11-07-2019 03:29:18 17.1 C 20 %
1099 11-07-2019 03:41:18 17 C 20 %
1100 11-07-2019 03:53:17 17 C 20 %
Sensor: Nr:Datum:Temp:Feuchte:
Aussen-T/F 1101 11-07-2019 04:05:18 16.9 C 20 %
1102 11-07-2019 04:17:18 16.8 C 20 %
1103 11-07-2019 04:29:18 16.8 C 20 %
1104 11-07-2019 04:41:18 16.7 C 20 %
1105 11-07-2019 04:53:17 16.6 C 20 %
1106 11-07-2019 05:05:18 16.6 C 20 %
1107 11-07-2019 05:17:17 16.6 C 20 %
1108 11-07-2019 05:29:17 16.6 C 20 %
1109 11-07-2019 05:41:17 16.5 C 20 %
1110 11-07-2019 05:53:18 16.4 C 20 %
1111 11-07-2019 06:05:18 16.4 C 20 %
1112 11-07-2019 06:17:17 16.5 C 20 %
1113 11-07-2019 06:29:18 16.7 C 20 %
1114 11-07-2019 06:41:18 17 C 20 %
1115 11-07-2019 06:53:17 17.1 C 20 %
1116 11-07-2019 07:05:17 17.4 C 20 %
1117 11-07-2019 07:17:17 17.8 C 20 %
1118 11-07-2019 07:29:17 17.9 C 20 %
1119 11-07-2019 07:41:17 18 C 20 %
1120 11-07-2019 07:53:17 18 C 20 %
1121 11-07-2019 08:05:17 18 C 20 %
1122 11-07-2019 08:17:17 18.1 C 20 %
1123 11-07-2019 08:29:17 18.2 C 20 %
1124 11-07-2019 08:41:17 18.5 C 20 %
1125 11-07-2019 08:53:17 18.9 C 20 %
Sensor: Nr:Datum:Temp:Feuchte:
Aussen-T/F 1126 11-07-2019 09:05:17 19.3 C 20 %
1127 11-07-2019 09:17:17 19.3 C 20 %
1128 11-07-2019 09:29:18 19 C 20 %
1129 11-07-2019 09:41:18 18.9 C 20 %
1130 11-07-2019 09:53:17 18.8 C 20 %
1131 11-07-2019 10:05:17 18.7 C 20 %
1132 11-07-2019 10:17:18 18.7 C 20 %
1133 11-07-2019 10:29:18 18.8 C 20 %
1134 11-07-2019 10:41:17 18.9 C 20 %
1135 11-07-2019 10:53:17 18.9 C 20 %
1136 11-07-2019 11:05:18 18.6 C 20 %
1137 11-07-2019 11:17:17 18.5 C 20 %
1138 11-07-2019 11:29:17 18.9 C 20 %
1139 11-07-2019 11:41:17 19.3 C 20 %
1140 11-07-2019 11:53:17 19.3 C 20 %
1141 11-07-2019 12:05:18 17.3 C 20 %
1142 11-07-2019 12:17:17 16.6 C 27 %
1143 11-07-2019 12:29:17 16.4 C 35 %
1144 11-07-2019 12:41:18 16.4 C 35 %
1145 11-07-2019 12:53:18 16.2 C 40 %
1146 11-07-2019 13:05:17 16 C 41 %
1147 11-07-2019 13:17:18 16.2 C 43 %
1148 11-07-2019 13:29:18 15.9 C 44 %
1149 11-07-2019 13:41:18 16 C 43 %
1150 11-07-2019 13:53:17 16.1 C 42 %
Sensor: Nr:Datum:Temp:Feuchte:
Aussen-T/F 1151 11-07-2019 14:05:17 16.6 C 41 %
1152 11-07-2019 14:17:17 16.7 C 42 %
1153 11-07-2019 14:29:17 16.7 C 43 %
1154 11-07-2019 14:41:18 16.7 C 42 %
1155 11-07-2019 14:53:17 16.6 C 42 %
1156 11-07-2019 15:05:18 17.2 C 42 %
1157 11-07-2019 15:17:17 17.3 C 42 %
1158 11-07-2019 15:29:17 17.5 C 41 %
1159 11-07-2019 15:41:18 17.6 C 41 %
1160 11-07-2019 15:53:17 18.2 C 39 %
1161 11-07-2019 16:05:17 18.4 C 38 %
1162 11-07-2019 16:17:17 18.7 C 37 %
1163 11-07-2019 16:29:17 19.5 C 32 %
1164 11-07-2019 16:41:17 19.8 C 28 %
1165 11-07-2019 16:53:17 20.8 C 25 %
1166 11-07-2019 17:05:18 21.2 C 25 %
1167 11-07-2019 17:17:18 21.3 C 22 %
1168 11-07-2019 17:29:18 20.3 C 26 %
1169 11-07-2019 17:41:18 19.5 C 30 %
1170 11-07-2019 17:53:18 19.5 C 42 %
1171 11-07-2019 18:05:17 18.9 C 41 %
1172 11-07-2019 18:17:17 18.8 C 45 %
1173 11-07-2019 18:29:17 18.5 C 44 %
1174 11-07-2019 18:41:17 18 C 44 %
1175 11-07-2019 18:53:18 17.8 C 46 %
Sensor: Nr:Datum:Temp:Feuchte:
Aussen-T/F 1176 11-07-2019 19:05:18 17.6 C 46 %
1177 11-07-2019 19:17:17 17.5 C 46 %
1178 11-07-2019 19:29:17 17.6 C 47 %
1179 11-07-2019 19:41:17 17.6 C 47 %
1180 11-07-2019 19:53:17 17.6 C 47 %
1181 11-07-2019 20:05:17 17.5 C 46 %
1182 11-07-2019 20:17:17 17.4 C 46 %
1183 11-07-2019 20:29:17 17.5 C 46 %
1184 11-07-2019 20:41:17 17.5 C 46 %
1185 11-07-2019 20:53:17 17.4 C 46 %
1186 11-07-2019 21:05:17 17.3 C 46 %
1187 11-07-2019 21:17:17 17.1 C 46 %
1188 11-07-2019 21:29:17 16.8 C 47 %
1189 11-07-2019 21:41:18 16.7 C 47 %
1190 11-07-2019 21:53:17 16.6 C 48 %
1191 11-07-2019 22:05:18 16.5 C 48 %
1192 11-07-2019 22:17:18 16.4 C 49 %
1193 11-07-2019 22:29:18 16.3 C 49 %
1194 11-07-2019 22:41:18 16.3 C 52 %
1195 11-07-2019 22:53:18 16.3 C 56 %
1196 11-07-2019 23:05:18 16.2 C 58 %
1197 11-07-2019 23:17:17 16.1 C 58 %
1198 11-07-2019 23:29:17 16.2 C 57 %
1199 11-07-2019 23:41:17 15.8 C 58 %
1200 11-07-2019 23:53:18 15.8 C 59 %
Sensor: Nr:Datum:Temp:Feuchte:
Aussen-T/F 1201 12-07-2019 00:05:18 15.9 C 60 %
1202 12-07-2019 00:17:18 15.8 C 57 %
1203 12-07-2019 00:29:18 15.7 C 53 %
1204 12-07-2019 00:41:18 15.7 C 54 %
1205 12-07-2019 00:53:17 15.6 C 53 %
1206 12-07-2019 01:05:18 15.6 C 54 %
1207 12-07-2019 01:17:18 15.5 C 54 %
1208 12-07-2019 01:29:18 15.5 C 56 %
1209 12-07-2019 01:41:18 15.3 C 54 %
1210 12-07-2019 01:53:17 15.1 C 53 %
1211 12-07-2019 02:05:18 14.9 C 55 %
1212 12-07-2019 02:17:18 14.8 C 56 %
1213 12-07-2019 02:29:18 14.8 C 58 %
1214 12-07-2019 02:41:18 14.8 C 59 %
1215 12-07-2019 02:53:18 14.9 C 61 %
1216 12-07-2019 03:05:18 15.2 C 62 %
1217 12-07-2019 03:17:18 15.1 C 62 %
1218 12-07-2019 03:29:18 14.9 C 61 %
1219 12-07-2019 03:41:17 14.7 C 60 %
1220 12-07-2019 03:53:18 14.8 C 62 %
1221 12-07-2019 04:05:18 14.7 C 61 %
1222 12-07-2019 04:17:17 14.5 C 60 %
1223 12-07-2019 04:29:17 14.3 C 58 %
1224 12-07-2019 04:41:17 14.1 C 59 %
1225 12-07-2019 04:53:18 14 C 59 %
Sensor: Nr:Datum:Temp:Feuchte:
Aussen-T/F 1226 12-07-2019 05:05:17 14 C 61 %
1227 12-07-2019 05:17:17 14 C 61 %
1228 12-07-2019 05:29:17 14.2 C 62 %
1229 12-07-2019 05:41:17 14.3 C 62 %
1230 12-07-2019 05:53:17 14.2 C 61 %
1231 12-07-2019 06:05:17 14.2 C 61 %
1232 12-07-2019 06:17:17 14.2 C 60 %
1233 12-07-2019 06:29:17 14.3 C 62 %
1234 12-07-2019 06:41:18 14.5 C 62 %
1235 12-07-2019 06:53:17 14.9 C 64 %
1236 12-07-2019 07:05:18 15.5 C 65 %
1237 12-07-2019 07:17:18 15.7 C 62 %
1238 12-07-2019 07:29:18 15.5 C 57 %
1239 12-07-2019 07:41:18 15.5 C 57 %
1240 12-07-2019 07:53:18 15.6 C 58 %
1241 12-07-2019 08:05:18 15.8 C 58 %
1242 12-07-2019 08:17:18 16 C 54 %
1243 12-07-2019 08:29:18 16.3 C 52 %
1244 12-07-2019 08:41:17 16.5 C 49 %
1245 12-07-2019 08:53:18 16.7 C 49 %
1246 12-07-2019 09:05:17 17 C 48 %
1247 12-07-2019 09:17:18 17.5 C 47 %
1248 12-07-2019 09:29:18 17.9 C 45 %
1249 12-07-2019 09:41:17 20.1 C 39 %
1250 12-07-2019 09:53:17 18.9 C 37 %
Sensor: Nr:Datum:Temp:Feuchte:
Aussen-T/F 1251 12-07-2019 10:05:17 19.3 C 31 %
1252 12-07-2019 10:17:17 19.5 C 31 %
1253 12-07-2019 10:29:17 20.6 C 30 %
1254 12-07-2019 10:41:17 21.1 C 29 %
1255 12-07-2019 10:53:17 20.8 C 30 %
1256 12-07-2019 11:05:17 20.9 C 30 %
1257 12-07-2019 11:17:18 20.8 C 29 %
1258 12-07-2019 11:29:18 20.4 C 29 %
1259 12-07-2019 11:41:17 19.6 C 33 %
1260 12-07-2019 11:53:17 19 C 38 %
1261 12-07-2019 12:05:17 18.6 C 43 %
1262 12-07-2019 12:17:17 18.4 C 45 %
1263 12-07-2019 12:29:18 18 C 46 %
1264 12-07-2019 12:41:17 17.8 C 47 %
1265 12-07-2019 12:53:17 17.4 C 47 %
1266 12-07-2019 13:05:18 17.6 C 47 %
1267 12-07-2019 13:17:17 17.9 C 48 %
1268 12-07-2019 13:29:17 17.4 C 47 %
1269 12-07-2019 13:41:18 16.8 C 45 %
1270 12-07-2019 13:53:17 16.5 C 45 %
1271 12-07-2019 14:05:18 16.8 C 45 %
1272 12-07-2019 14:17:18 17.5 C 45 %
1273 12-07-2019 14:29:18 17.8 C 41 %
1274 12-07-2019 14:41:17 18.4 C 38 %
1275 12-07-2019 14:53:17 18.5 C 35 %
Sensor: Nr:Datum:Temp:Feuchte:
Aussen-T/F 1276 12-07-2019 15:05:18 19 C 32 %
1277 12-07-2019 15:17:17 20.4 C 31 %
1278 12-07-2019 15:29:17 20.1 C 28 %
1279 12-07-2019 15:41:17 20.3 C 28 %
1280 12-07-2019 15:53:18 21.7 C 27 %
1281 12-07-2019 16:05:17 21.3 C 26 %
1282 12-07-2019 16:17:17 20.7 C 33 %
1283 12-07-2019 16:29:17 20.2 C 36 %
1284 12-07-2019 16:41:17 19.3 C 33 %
1285 12-07-2019 16:53:18 20 C 33 %
1286 12-07-2019 17:05:18 20.2 C 28 %
1287 12-07-2019 17:17:17 20 C 31 %
1288 12-07-2019 17:29:17 19.7 C 25 %
1289 12-07-2019 17:41:17 19.6 C 24 %
1290 12-07-2019 17:53:18 19.3 C 22 %
1291 12-07-2019 18:05:18 18.9 C 27 %
1292 12-07-2019 18:17:17 18.3 C 27 %
1293 12-07-2019 18:29:17 18 C 33 %
1294 12-07-2019 18:41:17 17.6 C 30 %
1295 12-07-2019 18:53:17 17.5 C 34 %
1296 12-07-2019 19:05:17 17.1 C 32 %
1297 12-07-2019 19:17:17 17.2 C 35 %
1298 12-07-2019 19:29:18 17.3 C 33 %
1299 12-07-2019 19:41:18 17.5 C 33 %
1300 12-07-2019 19:53:17 17.7 C 36 %
Sensor: Nr:Datum:Temp:Feuchte:
Aussen-T/F 1301 12-07-2019 20:05:18 17.6 C 38 %
1302 12-07-2019 20:17:17 17.9 C 35 %
1303 12-07-2019 20:29:17 18.3 C 33 %
1304 12-07-2019 20:41:17 18.1 C 33 %
1305 12-07-2019 20:53:17 17.7 C 34 %
1306 12-07-2019 21:05:17 17.6 C 33 %
1307 12-07-2019 21:17:17 17.5 C 32 %
1308 12-07-2019 21:29:18 17.5 C 32 %
1309 12-07-2019 21:41:18 17.6 C 31 %
1310 12-07-2019 21:53:18 17.7 C 30 %
1311 12-07-2019 22:05:18 17.1 C 32 %
1312 12-07-2019 22:17:18 17.2 C 32 %
1313 12-07-2019 22:29:18 17.1 C 31 %
1314 12-07-2019 22:41:18 17 C 33 %
1315 12-07-2019 22:53:18 16.8 C 33 %
1316 12-07-2019 23:05:18 16.7 C 32 %
1317 12-07-2019 23:17:18 16.4 C 36 %
1318 12-07-2019 23:29:18 16.1 C 36 %
1319 12-07-2019 23:41:17 16.1 C 38 %
1320 12-07-2019 23:53:17 16.1 C 37 %
1321 13-07-2019 00:05:17 16.4 C 32 %
1322 13-07-2019 00:17:17 16.5 C 31 %
1323 13-07-2019 00:29:17 16.5 C 30 %
1324 13-07-2019 00:41:17 16.3 C 31 %
1325 13-07-2019 00:53:18 16.3 C 32 %
Sensor: Nr:Datum:Temp:Feuchte:
Aussen-T/F 1326 13-07-2019 01:05:18 16.2 C 33 %
1327 13-07-2019 01:17:18 15.4 C 40 %
1328 13-07-2019 01:29:18 15.2 C 45 %
1329 13-07-2019 01:41:18 15 C 46 %
1330 13-07-2019 01:53:17 14.9 C 48 %
1331 13-07-2019 02:05:17 14.9 C 49 %
1332 13-07-2019 02:17:17 14.9 C 49 %
1333 13-07-2019 02:29:18 15 C 48 %
1334 13-07-2019 02:41:18 14.9 C 49 %
1335 13-07-2019 02:53:17 14.8 C 50 %
1336 13-07-2019 03:05:18 14.7 C 50 %
1337 13-07-2019 03:17:17 14.7 C 50 %
1338 13-07-2019 03:29:17 14.5 C 50 %
1339 13-07-2019 03:41:17 14.6 C 51 %
1340 13-07-2019 03:53:17 14.5 C 50 %
1341 13-07-2019 04:05:17 14.5 C 51 %
1342 13-07-2019 04:17:17 14.5 C 52 %
1343 13-07-2019 04:29:17 14.5 C 53 %
1344 13-07-2019 04:41:18 14.5 C 55 %
1345 13-07-2019 04:53:17 14.4 C 54 %
1346 13-07-2019 05:05:17 14.5 C 54 %
1347 13-07-2019 05:17:17 14.5 C 56 %
1348 13-07-2019 05:29:17 14.4 C 56 %
1349 13-07-2019 05:41:17 14.5 C 58 %
1350 13-07-2019 05:53:18 14.4 C 58 %
Sensor: Nr:Datum:Temp:Feuchte:
Aussen-T/F 1351 13-07-2019 06:05:17 14.4 C 59 %
1352 13-07-2019 06:17:17 14.4 C 59 %
1353 13-07-2019 06:29:17 14.3 C 57 %
1354 13-07-2019 06:41:18 14.3 C 58 %
1355 13-07-2019 06:53:17 14.3 C 57 %
1356 13-07-2019 07:05:18 14.4 C 52 %
1357 13-07-2019 07:17:17 14.5 C 50 %
1358 13-07-2019 07:29:18 14.6 C 49 %
1359 13-07-2019 07:41:18 14.9 C 48 %
1360 13-07-2019 07:53:17 15 C 43 %
1361 13-07-2019 08:05:17 15.2 C 41 %
1362 13-07-2019 08:17:17 15.5 C 40 %
1363 13-07-2019 08:29:18 15.6 C 39 %
1364 13-07-2019 08:41:18 15.8 C 39 %
1365 13-07-2019 08:53:17 15.7 C 40 %
1366 13-07-2019 09:05:18 15.6 C 41 %
1367 13-07-2019 09:17:18 15.7 C 43 %
1368 13-07-2019 09:29:18 16.2 C 41 %
1369 13-07-2019 09:41:18 16.2 C 35 %
1370 13-07-2019 09:53:18 16.3 C 35 %
1371 13-07-2019 10:05:18 16.7 C 34 %
1372 13-07-2019 10:17:18 16.8 C 32 %
1373 13-07-2019 10:29:18 17 C 31 %
1374 13-07-2019 10:41:18 16.6 C 32 %
1375 13-07-2019 10:53:17 16.4 C 36 %
Sensor: Nr:Datum:Temp:Feuchte:
Aussen-T/F 1376 13-07-2019 11:05:17 16.9 C 35 %
1377 13-07-2019 11:17:18 17.5 C 32 %
1378 13-07-2019 11:29:18 18 C 29 %
1379 13-07-2019 11:41:17 18.4 C 28 %
1380 13-07-2019 11:53:17 18.7 C 27 %
1381 13-07-2019 12:05:18 18.6 C 26 %
1382 13-07-2019 12:17:17 19 C 26 %
1383 13-07-2019 12:29:17 19.5 C 25 %
1384 13-07-2019 12:41:17 19.7 C 26 %
1385 13-07-2019 12:53:17 20.1 C 24 %
1386 13-07-2019 13:05:18 19.9 C 24 %
1387 13-07-2019 13:17:18 20.7 C 23 %
1388 13-07-2019 13:29:18 20 C 21 %
1389 13-07-2019 13:41:17 20 C 21 %
1390 13-07-2019 13:53:18 20.8 C 20 %
1391 13-07-2019 14:05:18 21.4 C 20 %
1392 13-07-2019 14:17:18 21.8 C 20 %
1393 13-07-2019 14:29:18 22.3 C 20 %
1394 13-07-2019 14:41:18 22.3 C 20 %
1395 13-07-2019 14:53:17 20.6 C 20 %
1396 13-07-2019 15:05:17 21.3 C 20 %
1397 13-07-2019 15:17:18 21.8 C 20 %
1398 13-07-2019 15:29:18 22.4 C 20 %
1399 13-07-2019 15:41:18 22.6 C 20 %
1400 13-07-2019 15:53:17 21.8 C 20 %
Sensor: Nr:Datum:Temp:Feuchte:
Aussen-T/F 1401 13-07-2019 16:05:18 22.3 C 20 %
1402 13-07-2019 16:17:18 20.9 C 20 %
1403 13-07-2019 16:29:18 20.8 C 20 %
1404 13-07-2019 16:41:18 20.6 C 20 %
1405 13-07-2019 16:53:17 20.8 C 20 %
1406 13-07-2019 17:05:18 20.9 C 20 %
1407 13-07-2019 17:17:18 21.4 C 20 %
1408 13-07-2019 17:29:18 22.5 C 20 %
1409 13-07-2019 17:41:17 23.6 C 20 %
1410 13-07-2019 17:53:18 23.4 C 20 %
1411 13-07-2019 18:05:18 22.2 C 20 %
1412 13-07-2019 18:17:17 22.5 C 20 %
1413 13-07-2019 18:29:17 22.2 C 20 %
1414 13-07-2019 18:41:17 22.5 C 20 %
1415 13-07-2019 18:53:17 23.5 C 20 %
1416 13-07-2019 19:05:17 23.5 C 20 %
1417 13-07-2019 19:17:18 23.3 C 20 %
1418 13-07-2019 19:29:18 22.9 C 20 %
1419 13-07-2019 19:41:18 22.1 C 20 %
1420 13-07-2019 19:53:17 21.4 C 20 %
1421 13-07-2019 20:05:18 20.8 C 20 %
1422 13-07-2019 20:17:18 20.6 C 20 %
1423 13-07-2019 20:29:18 20.4 C 20 %
1424 13-07-2019 20:41:18 20.1 C 20 %
1425 13-07-2019 20:53:18 19.8 C 20 %
Sensor: Nr:Datum:Temp:Feuchte:
Aussen-T/F 1426 13-07-2019 21:05:18 19.5 C 20 %
1427 13-07-2019 21:17:18 19.1 C 24 %
1428 13-07-2019 21:29:18 18.7 C 25 %
1429 13-07-2019 21:41:18 18.8 C 25 %
1430 13-07-2019 21:53:18 18.9 C 25 %
1431 13-07-2019 22:05:18 18.5 C 27 %
1432 13-07-2019 22:17:18 17.5 C 34 %
1433 13-07-2019 22:29:18 17.1 C 40 %
1434 13-07-2019 22:41:18 17 C 41 %
1435 13-07-2019 22:53:17 16.9 C 41 %
1436 13-07-2019 23:05:17 17 C 41 %
1437 13-07-2019 23:17:17 16.9 C 42 %
1438 13-07-2019 23:29:18 16.9 C 41 %
1439 13-07-2019 23:41:18 16.9 C 41 %
1440 13-07-2019 23:53:18 16.8 C 39 %
1441 14-07-2019 00:05:18 16.8 C 37 %
1442 14-07-2019 00:17:18 16.8 C 38 %
1443 14-07-2019 00:29:18 17 C 36 %
1444 14-07-2019 00:41:18 16.9 C 37 %
1445 14-07-2019 00:53:17 16.9 C 37 %
1446 14-07-2019 01:05:17 17 C 36 %
1447 14-07-2019 01:17:17 17 C 35 %
1448 14-07-2019 01:29:17 17 C 34 %
1449 14-07-2019 01:41:17 17 C 35 %
1450 14-07-2019 01:53:17 16.9 C 35 %
Sensor: Nr:Datum:Temp:Feuchte:
Aussen-T/F 1451 14-07-2019 02:05:17 16.7 C 35 %
1452 14-07-2019 02:17:17 16.3 C 37 %
1453 14-07-2019 02:29:17 15.8 C 40 %
1454 14-07-2019 02:41:17 15.7 C 42 %
1455 14-07-2019 02:53:17 15.3 C 42 %
1456 14-07-2019 03:05:17 15.2 C 43 %
1457 14-07-2019 03:17:17 15 C 42 %
1458 14-07-2019 03:29:17 14.8 C 42 %
1459 14-07-2019 03:41:17 14.8 C 42 %
1460 14-07-2019 03:53:18 14.8 C 42 %
1461 14-07-2019 04:05:18 14.8 C 43 %
1462 14-07-2019 04:17:18 14.8 C 42 %
1463 14-07-2019 04:29:18 14.9 C 40 %
1464 14-07-2019 04:41:18 14.9 C 39 %
1465 14-07-2019 04:53:18 14.9 C 39 %
1466 14-07-2019 05:05:18 14.8 C 38 %
1467 14-07-2019 05:17:18 14.8 C 38 %
1468 14-07-2019 05:29:18 14.6 C 38 %
1469 14-07-2019 05:41:18 14.6 C 40 %
1470 14-07-2019 05:53:18 14.6 C 40 %
1471 14-07-2019 06:05:17 14.6 C 40 %
1472 14-07-2019 06:17:17 14.6 C 40 %
1473 14-07-2019 06:29:18 14.7 C 40 %
1474 14-07-2019 06:41:18 14.7 C 40 %
1475 14-07-2019 06:53:17 14.7 C 36 %
Sensor: Nr:Datum:Temp:Feuchte:
Aussen-T/F 1476 14-07-2019 07:05:17 14.8 C 33 %
1477 14-07-2019 07:17:17 14.9 C 33 %
1478 14-07-2019 07:29:17 15.1 C 31 %
1479 14-07-2019 07:41:17 15.1 C 29 %
1480 14-07-2019 07:53:17 15.3 C 28 %
1481 14-07-2019 08:05:17 15.5 C 28 %
1482 14-07-2019 08:17:17 15.6 C 28 %
1483 14-07-2019 08:29:17 15.7 C 30 %
1484 14-07-2019 08:41:17 15.7 C 30 %
1485 14-07-2019 08:53:18 15.9 C 30 %
1486 14-07-2019 09:05:18 15.5 C 30 %
1487 14-07-2019 09:17:18 15.2 C 29 %
1488 14-07-2019 09:29:18 15.2 C 27 %
1489 14-07-2019 09:41:18 15.4 C 27 %
1490 14-07-2019 09:53:17 16 C 25 %
1491 14-07-2019 10:05:18 16.1 C 22 %
1492 14-07-2019 10:17:18 16.4 C 20 %
1493 14-07-2019 10:29:18 16.5 C 20 %
1494 14-07-2019 10:41:18 16.6 C 20 %
1495 14-07-2019 10:53:17 17 C 20 %
1496 14-07-2019 11:05:17 16.8 C 20 %
1497 14-07-2019 11:17:18 17.1 C 20 %
1498 14-07-2019 11:29:18 17.5 C 20 %
1499 14-07-2019 11:41:18 18 C 20 %
1500 14-07-2019 11:53:17 17.6 C 20 %
Sensor: Nr:Datum:Temp:Feuchte:
Aussen-T/F 1501 14-07-2019 12:05:18 17.9 C 20 %
1502 14-07-2019 12:17:18 18.1 C 20 %
1503 14-07-2019 12:29:18 18.4 C 20 %
1504 14-07-2019 12:41:18 18.5 C 20 %
1505 14-07-2019 12:53:17 18.7 C 20 %
1506 14-07-2019 13:05:18 18.1 C 20 %
1507 14-07-2019 13:17:18 18.1 C 20 %
1508 14-07-2019 13:29:18 18.4 C 20 %
1509 14-07-2019 13:41:17 18.6 C 20 %
1510 14-07-2019 13:53:18 19 C 20 %
1511 14-07-2019 14:05:18 18.5 C 20 %
1512 14-07-2019 14:17:17 18.6 C 20 %
1513 14-07-2019 14:29:17 18.8 C 20 %
1514 14-07-2019 14:41:17 18.9 C 20 %
1515 14-07-2019 14:53:17 19.5 C 20 %
1516 14-07-2019 15:05:17 19.2 C 20 %
1517 14-07-2019 15:17:17 19.5 C 20 %
1518 14-07-2019 15:29:17 19.3 C 20 %
1519 14-07-2019 15:41:18 20 C 20 %
1520 14-07-2019 15:53:18 20.3 C 20 %
1521 14-07-2019 16:05:18 19.6 C 20 %
1522 14-07-2019 16:17:18 19.6 C 20 %
1523 14-07-2019 16:29:18 19.9 C 20 %
1524 14-07-2019 16:41:18 19.8 C 20 %
1525 14-07-2019 16:53:17 19.9 C 20 %
Sensor: Nr:Datum:Temp:Feuchte:
Aussen-T/F 1526 14-07-2019 17:05:18 20.4 C 20 %
1527 14-07-2019 17:17:18 19.7 C 20 %
1528 14-07-2019 17:29:18 19.7 C 20 %
1529 14-07-2019 17:41:18 19.8 C 20 %
1530 14-07-2019 17:53:17 19.5 C 20 %
1531 14-07-2019 18:05:18 19.1 C 20 %
1532 14-07-2019 18:17:17 19 C 20 %
1533 14-07-2019 18:29:17 19.1 C 20 %
1534 14-07-2019 18:41:18 18.9 C 20 %
1535 14-07-2019 18:53:18 18.9 C 20 %
1536 14-07-2019 19:05:18 18.9 C 20 %
1537 14-07-2019 19:17:18 18.7 C 20 %
1538 14-07-2019 19:29:18 18.7 C 20 %
1539 14-07-2019 19:41:18 18.6 C 20 %
1540 14-07-2019 19:53:18 18.5 C 20 %
1541 14-07-2019 20:05:18 18.3 C 20 %
1542 14-07-2019 20:17:17 18.1 C 20 %
1543 14-07-2019 20:29:17 18 C 20 %
1544 14-07-2019 20:41:17 18 C 20 %
1545 14-07-2019 20:53:18 17.8 C 20 %
1546 14-07-2019 21:05:18 17.7 C 20 %
1547 14-07-2019 21:17:18 17.7 C 20 %
1548 14-07-2019 21:29:18 17.6 C 20 %
1549 14-07-2019 21:41:18 17.4 C 20 %
1550 14-07-2019 21:53:18 17.4 C 20 %
Sensor: Nr:Datum:Temp:Feuchte:
Aussen-T/F 1551 14-07-2019 22:05:18 17.2 C 20 %
1552 14-07-2019 22:17:18 17.2 C 20 %
1553 14-07-2019 22:29:18 17.3 C 20 %
1554 14-07-2019 22:41:18 17.2 C 20 %
1555 14-07-2019 22:53:17 17 C 20 %
1556 14-07-2019 23:05:18 17 C 20 %
1557 14-07-2019 23:17:18 17 C 20 %
1558 14-07-2019 23:29:18 16.9 C 20 %
1559 14-07-2019 23:41:18 16.6 C 20 %
1560 14-07-2019 23:53:18 16.2 C 20 %
1561 15-07-2019 00:05:17 16.3 C 20 %
1562 15-07-2019 00:17:17 16.2 C 20 %
1563 15-07-2019 00:29:17 15.9 C 20 %
1564 15-07-2019 00:41:17 15.5 C 25 %
1565 15-07-2019 00:53:17 15.4 C 26 %
1566 15-07-2019 01:05:17 15.5 C 25 %
1567 15-07-2019 01:17:17 15.4 C 26 %
1568 15-07-2019 01:29:17 15.9 C 20 %
1569 15-07-2019 01:41:18 16 C 20 %
1570 15-07-2019 01:53:18 16 C 20 %
1571 15-07-2019 02:05:18 15.9 C 20 %
1572 15-07-2019 02:17:18 15.5 C 25 %
1573 15-07-2019 02:29:18 15.2 C 27 %
1574 15-07-2019 02:41:17 15 C 28 %
1575 15-07-2019 02:53:18 15 C 29 %
Sensor: Nr:Datum:Temp:Feuchte:
Aussen-T/F 1576 15-07-2019 03:05:18 15 C 30 %
1577 15-07-2019 03:17:18 15 C 30 %
1578 15-07-2019 03:29:18 15 C 28 %
1579 15-07-2019 03:41:18 15 C 29 %
1580 15-07-2019 03:53:17 14.9 C 30 %
1581 15-07-2019 04:05:18 15.2 C 21 %
1582 15-07-2019 04:17:17 15.6 C 20 %
1583 15-07-2019 04:29:18 15.6 C 21 %
1584 15-07-2019 04:41:18 15.6 C 20 %
1585 15-07-2019 04:53:17 15.7 C 20 %
1586 15-07-2019 05:05:18 15.7 C 20 %
1587 15-07-2019 05:17:17 15.8 C 20 %
1588 15-07-2019 05:29:17 15.7 C 20 %
1589 15-07-2019 05:41:17 15.6 C 20 %
1590 15-07-2019 05:53:17 15.6 C 20 %
1591 15-07-2019 06:05:18 15.6 C 20 %
1592 15-07-2019 06:17:18 15.6 C 20 %
1593 15-07-2019 06:29:18 15.6 C 20 %
1594 15-07-2019 06:41:17 15.6 C 20 %
1595 15-07-2019 06:53:17 15.6 C 20 %
1596 15-07-2019 07:05:17 15.7 C 20 %
1597 15-07-2019 07:17:17 15.7 C 20 %
1598 15-07-2019 07:29:17 15.8 C 20 %
1599 15-07-2019 07:41:18 15.8 C 20 %
1600 15-07-2019 07:53:17 15.7 C 20 %
Sensor: Nr:Datum:Temp:Feuchte:
Aussen-T/F 1601 15-07-2019 08:05:17 15.7 C 20 %
1602 15-07-2019 08:17:17 15.8 C 20 %
1603 15-07-2019 08:29:17 15.9 C 20 %
1604 15-07-2019 08:41:18 16.3 C 20 %
1605 15-07-2019 08:53:18 16.5 C 20 %
1606 15-07-2019 09:05:18 16.6 C 20 %
1607 15-07-2019 09:17:17 16.7 C 20 %
1608 15-07-2019 09:29:17 17.1 C 20 %
1609 15-07-2019 09:41:18 17.1 C 20 %
1610 15-07-2019 09:53:18 17.2 C 20 %
1611 15-07-2019 10:05:17 17.2 C 20 %
1612 15-07-2019 10:17:17 17 C 20 %
1613 15-07-2019 10:29:17 17.1 C 20 %
1614 15-07-2019 10:41:17 17.1 C 20 %
1615 15-07-2019 10:53:17 17.2 C 20 %
1616 15-07-2019 11:05:17 17.4 C 20 %
1617 15-07-2019 11:17:18 17.4 C 20 %
1618 15-07-2019 11:29:18 17.2 C 20 %
1619 15-07-2019 11:41:17 17.4 C 20 %
1620 15-07-2019 11:53:18 17.5 C 20 %
1621 15-07-2019 12:05:17 17.8 C 20 %
1622 15-07-2019 12:17:17 17.7 C 20 %
1623 15-07-2019 12:29:17 17.6 C 20 %
1624 15-07-2019 12:41:18 17.6 C 20 %
1625 15-07-2019 12:53:17 17.6 C 20 %
Sensor: Nr:Datum:Temp:Feuchte:
Aussen-T/F 1626 15-07-2019 13:05:18 17.5 C 20 %
1627 15-07-2019 13:17:18 17.8 C 20 %
1628 15-07-2019 13:29:18 18.2 C 20 %
1629 15-07-2019 13:41:18 18.4 C 20 %
1630 15-07-2019 13:53:17 18.4 C 20 %
1631 15-07-2019 14:05:18 18.9 C 20 %
1632 15-07-2019 14:17:17 19.1 C 20 %
1633 15-07-2019 14:29:18 19.1 C 20 %
1634 15-07-2019 14:41:18 18.8 C 20 %
1635 15-07-2019 14:53:17 19 C 20 %
1636 15-07-2019 15:05:17 18.5 C 20 %
1637 15-07-2019 15:17:17 18 C 20 %
1638 15-07-2019 15:29:17 18.5 C 20 %
1639 15-07-2019 15:41:17 18.2 C 20 %
1640 15-07-2019 15:53:17 18.3 C 20 %
1641 15-07-2019 16:05:17 17.7 C 20 %
1642 15-07-2019 16:17:18 17.8 C 20 %
1643 15-07-2019 16:29:18 17.5 C 20 %
1644 15-07-2019 16:41:17 17.5 C 20 %
1645 15-07-2019 16:53:18 17.4 C 20 %
1646 15-07-2019 17:05:17 17.4 C 20 %
1647 15-07-2019 17:17:18 17.1 C 20 %
1648 15-07-2019 17:29:18 17.1 C 20 %
1649 15-07-2019 17:41:18 16.8 C 20 %
1650 15-07-2019 17:53:18 16.8 C 20 %
Sensor: Nr:Datum:Temp:Feuchte:
Aussen-T/F 1651 15-07-2019 18:05:17 17 C 20 %
1652 15-07-2019 18:17:17 16.9 C 20 %
1653 15-07-2019 18:29:17 17 C 20 %
1654 15-07-2019 18:41:17 17.1 C 20 %
1655 15-07-2019 18:53:17 17.3 C 20 %
1656 15-07-2019 19:05:18 17.1 C 20 %
1657 15-07-2019 19:17:18 17 C 20 %
1658 15-07-2019 19:29:18 17 C 20 %
1659 15-07-2019 19:41:17 17 C 20 %
1660 15-07-2019 19:53:17 16.9 C 20 %
1661 15-07-2019 20:05:17 16.9 C 20 %
1662 15-07-2019 20:17:17 16.9 C 20 %
1663 15-07-2019 20:29:17 16.9 C 20 %
1664 15-07-2019 20:41:17 16.9 C 20 %
1665 15-07-2019 20:53:18 16.7 C 20 %
1666 15-07-2019 21:05:18 16.5 C 20 %
1667 15-07-2019 21:17:17 16.5 C 20 %
1668 15-07-2019 21:29:17 16.4 C 20 %
1669 15-07-2019 21:41:17 16.2 C 20 %
1670 15-07-2019 21:53:17 15.8 C 23 %
1671 15-07-2019 22:05:18 15.6 C 23 %
1672 15-07-2019 22:17:18 15.5 C 25 %
1673 15-07-2019 22:29:18 15.4 C 25 %
1674 15-07-2019 22:41:18 15.4 C 25 %
1675 15-07-2019 22:53:17 15.2 C 25 %
Sensor: Nr:Datum:Temp:Feuchte:
Aussen-T/F 1676 15-07-2019 23:05:17 15.7 C 20 %
1677 15-07-2019 23:17:17 15.7 C 20 %
1678 15-07-2019 23:29:17 15.6 C 20 %
1679 15-07-2019 23:41:18 15.2 C 20 %
1680 15-07-2019 23:53:18 14.8 C 25 %
1681 16-07-2019 00:05:18 14.7 C 27 %
1682 16-07-2019 00:17:18 14.5 C 26 %
1683 16-07-2019 00:29:18 14.6 C 26 %
1684 16-07-2019 00:41:18 14.5 C 27 %
1685 16-07-2019 00:53:18 14.4 C 27 %
1686 16-07-2019 01:05:18 13.8 C 27 %
1687 16-07-2019 01:17:18 13.1 C 30 %
1688 16-07-2019 01:29:18 12.9 C 32 %
1689 16-07-2019 01:41:18 12.7 C 33 %
1690 16-07-2019 01:53:17 12.5 C 34 %
1691 16-07-2019 02:05:18 12.3 C 36 %
1692 16-07-2019 02:17:18 11.8 C 38 %
1693 16-07-2019 02:29:18 11.4 C 39 %
1694 16-07-2019 02:41:18 11.1 C 41 %
1695 16-07-2019 02:53:18 10.8 C 42 %
1696 16-07-2019 03:05:18 10.7 C 44 %
1697 16-07-2019 03:17:18 10.6 C 45 %
1698 16-07-2019 03:29:18 10.6 C 45 %
1699 16-07-2019 03:41:18 10.4 C 45 %
1700 16-07-2019 03:53:18 10.3 C 45 %
Sensor: Nr:Datum:Temp:Feuchte:
Aussen-T/F 1701 16-07-2019 04:05:17 10.2 C 45 %
1702 16-07-2019 04:17:17 10 C 45 %
1703 16-07-2019 04:29:17 9.9 C 46 %
1704 16-07-2019 04:41:18 9.9 C 47 %
1705 16-07-2019 04:53:18 9.9 C 47 %
1706 16-07-2019 05:05:17 10 C 47 %
1707 16-07-2019 05:17:17 9.8 C 47 %
1708 16-07-2019 05:29:17 9.8 C 48 %
1709 16-07-2019 05:41:17 9.7 C 48 %
1710 16-07-2019 05:53:17 9.7 C 48 %
1711 16-07-2019 06:05:17 9.8 C 49 %
1712 16-07-2019 06:17:17 9.9 C 49 %
1713 16-07-2019 06:29:17 10.2 C 48 %
1714 16-07-2019 06:41:17 10.5 C 48 %
1715 16-07-2019 06:53:17 10.7 C 45 %
1716 16-07-2019 07:05:17 11 C 42 %
1717 16-07-2019 07:17:17 11.2 C 40 %
1718 16-07-2019 07:29:17 11.3 C 39 %
1719 16-07-2019 07:41:17 11.7 C 38 %
1720 16-07-2019 07:53:17 12 C 36 %
1721 16-07-2019 08:05:18 12.4 C 36 %
1722 16-07-2019 08:17:17 12.8 C 35 %
1723 16-07-2019 08:29:17 13.3 C 32 %
1724 16-07-2019 08:41:17 13.9 C 30 %
1725 16-07-2019 08:53:18 14.5 C 29 %
Sensor: Nr:Datum:Temp:Feuchte:
Aussen-T/F 1726 16-07-2019 09:05:17 14.8 C 27 %
1727 16-07-2019 09:17:17 15.3 C 26 %
1728 16-07-2019 09:29:18 15.6 C 25 %
1729 16-07-2019 09:41:17 15.3 C 24 %
1730 16-07-2019 09:53:17 15.4 C 23 %
1731 16-07-2019 10:05:18 16 C 21 %
1732 16-07-2019 10:17:17 15.8 C 20 %
1733 16-07-2019 10:29:17 15.8 C 20 %
1734 16-07-2019 10:41:18 16.2 C 20 %
1735 16-07-2019 10:53:17 16.2 C 20 %
1736 16-07-2019 11:05:17 16.4 C 20 %
1737 16-07-2019 11:17:17 16.5 C 20 %
1738 16-07-2019 11:29:17 16 C 20 %
1739 16-07-2019 11:41:18 16.4 C 20 %
1740 16-07-2019 11:53:17 17 C 20 %
1741 16-07-2019 12:05:17 17.1 C 20 %
1742 16-07-2019 12:17:18 17.2 C 20 %
1743 16-07-2019 12:29:18 17.2 C 20 %
1744 16-07-2019 12:41:17 17.7 C 20 %
1745 16-07-2019 12:53:17 17.6 C 20 %
1746 16-07-2019 13:05:18 18.2 C 20 %
1747 16-07-2019 13:17:18 18 C 20 %
1748 16-07-2019 13:29:18 18.3 C 20 %
1749 16-07-2019 13:41:17 18.4 C 20 %
1750 16-07-2019 13:53:17 18.3 C 20 %
Sensor: Nr:Datum:Temp:Feuchte:
Aussen-T/F 1751 16-07-2019 14:05:18 19.1 C 20 %
1752 16-07-2019 14:17:17 19.4 C 20 %
1753 16-07-2019 14:29:17 19.8 C 20 %
1754 16-07-2019 14:41:17 20.4 C 20 %
1755 16-07-2019 14:53:17 20.4 C 20 %
1756 16-07-2019 15:05:18 20.8 C 20 %
1757 16-07-2019 15:17:17 21.5 C 20 %
1758 16-07-2019 15:29:17 22.1 C 20 %
1759 16-07-2019 15:41:17 21.8 C 20 %
1760 16-07-2019 15:53:18 22.2 C 20 %
1761 16-07-2019 16:05:17 22.9 C 20 %
1762 16-07-2019 16:17:17 22.9 C 20 %
1763 16-07-2019 16:29:17 23.2 C 20 %
1764 16-07-2019 16:41:17 22.2 C 20 %
1765 16-07-2019 16:53:17 23.2 C 20 %
1766 16-07-2019 17:05:18 23.3 C 20 %
1767 16-07-2019 17:17:18 22.8 C 20 %
1768 16-07-2019 17:29:18 23.5 C 20 %
1769 16-07-2019 17:41:18 23.4 C 20 %
1770 16-07-2019 17:53:18 23.6 C 20 %
1771 16-07-2019 18:05:17 23 C 20 %
1772 16-07-2019 18:17:17 23.7 C 20 %
1773 16-07-2019 18:29:17 24.1 C 20 %
1774 16-07-2019 18:41:17 23.6 C 20 %
1775 16-07-2019 18:53:18 22.9 C 20 %
Sensor: Nr:Datum:Temp:Feuchte:
Aussen-T/F 1776 16-07-2019 19:05:18 22.9 C 20 %
1777 16-07-2019 19:17:18 22.9 C 20 %
1778 16-07-2019 19:29:18 22.1 C 20 %
1779 16-07-2019 19:41:18 21.4 C 20 %
1780 16-07-2019 19:53:18 21.8 C 20 %
1781 16-07-2019 20:05:18 21.7 C 20 %
1782 16-07-2019 20:17:17 21.4 C 20 %
1783 16-07-2019 20:29:17 20.7 C 20 %
1784 16-07-2019 20:41:17 20.4 C 20 %
1785 16-07-2019 20:53:17 20 C 20 %
1786 16-07-2019 21:05:17 19.4 C 20 %
1787 16-07-2019 21:17:17 18.2 C 20 %
1788 16-07-2019 21:29:17 17.3 C 20 %
1789 16-07-2019 21:41:17 16.7 C 20 %
1790 16-07-2019 21:53:17 16.4 C 22 %
1791 16-07-2019 22:05:18 15.9 C 25 %
1792 16-07-2019 22:17:18 15.8 C 25 %
1793 16-07-2019 22:29:18 15.7 C 26 %
1794 16-07-2019 22:41:18 15.6 C 26 %
1795 16-07-2019 22:53:18 15.5 C 25 %
1796 16-07-2019 23:05:18 15.5 C 25 %
1797 16-07-2019 23:17:18 15.2 C 26 %
1798 16-07-2019 23:29:18 15.1 C 26 %
1799 16-07-2019 23:41:17 14.8 C 29 %
1800 16-07-2019 23:53:17 14.5 C 30 %
Sensor: Nr:Datum:Temp:Feuchte:
Aussen-T/F 1801 17-07-2019 00:05:18 14.3 C 31 %
1802 17-07-2019 00:17:18 14 C 31 %
1803 17-07-2019 00:29:18 13.8 C 34 %
1804 17-07-2019 00:41:18 13.6 C 35 %
1805 17-07-2019 00:53:17 13.4 C 35 %
1806 17-07-2019 01:05:18 13.1 C 36 %
1807 17-07-2019 01:17:17 13 C 37 %
1808 17-07-2019 01:29:18 13.1 C 38 %
1809 17-07-2019 01:41:18 12.9 C 38 %
1810 17-07-2019 01:53:17 12.8 C 39 %
1811 17-07-2019 02:05:18 12.4 C 39 %
1812 17-07-2019 02:17:18 12.2 C 40 %
1813 17-07-2019 02:29:18 12.2 C 41 %
1814 17-07-2019 02:41:18 12 C 41 %
1815 17-07-2019 02:53:18 11.8 C 42 %
1816 17-07-2019 03:05:18 11.7 C 42 %
1817 17-07-2019 03:17:18 11.6 C 43 %
1818 17-07-2019 03:29:18 11.6 C 44 %
1819 17-07-2019 03:41:18 11.5 C 45 %
1820 17-07-2019 03:53:17 11.4 C 45 %
1821 17-07-2019 04:05:18 11.3 C 45 %
1822 17-07-2019 04:17:18 11.2 C 45 %
1823 17-07-2019 04:29:18 11 C 45 %
1824 17-07-2019 04:41:18 11 C 45 %
1825 17-07-2019 04:53:18 11 C 45 %
Sensor: Nr:Datum:Temp:Feuchte:
Aussen-T/F 1826 17-07-2019 05:05:17 10.9 C 46 %
1827 17-07-2019 05:17:17 10.9 C 47 %
1828 17-07-2019 05:29:17 10.8 C 47 %
1829 17-07-2019 05:41:17 10.7 C 47 %
1830 17-07-2019 05:53:18 10.8 C 47 %
1831 17-07-2019 06:05:18 10.8 C 47 %
1832 17-07-2019 06:17:17 10.7 C 47 %
1833 17-07-2019 06:29:17 10.9 C 48 %
1834 17-07-2019 06:41:17 11.1 C 47 %
1835 17-07-2019 06:53:18 11.2 C 46 %
1836 17-07-2019 07:05:17 11.4 C 46 %
1837 17-07-2019 07:17:17 11.6 C 46 %
1838 17-07-2019 07:29:18 11.9 C 46 %
1839 17-07-2019 07:41:17 12.1 C 45 %
1840 17-07-2019 07:53:18 12.5 C 45 %
1841 17-07-2019 08:05:17 12.9 C 43 %
1842 17-07-2019 08:17:17 13.2 C 40 %
1843 17-07-2019 08:29:17 13.5 C 37 %
1844 17-07-2019 08:41:17 13.9 C 35 %
1845 17-07-2019 08:53:18 14.4 C 32 %
1846 17-07-2019 09:05:17 14.9 C 31 %
1847 17-07-2019 09:17:17 15.5 C 28 %
1848 17-07-2019 09:29:17 16.1 C 26 %
1849 17-07-2019 09:41:17 16.4 C 26 %
1850 17-07-2019 09:53:17 17.3 C 23 %
Sensor: Nr:Datum:Temp:Feuchte:
Aussen-T/F 1851 17-07-2019 10:05:18 17.7 C 21 %
1852 17-07-2019 10:17:17 18.1 C 20 %
1853 17-07-2019 10:29:17 18.7 C 20 %
1854 17-07-2019 10:41:18 18.7 C 20 %
1855 17-07-2019 10:53:18 19.1 C 20 %
1856 17-07-2019 11:05:17 19.7 C 20 %
1857 17-07-2019 11:17:17 20.3 C 20 %
1858 17-07-2019 11:29:17 19.7 C 20 %
1859 17-07-2019 11:41:17 19.6 C 20 %
1860 17-07-2019 11:53:18 20.2 C 20 %
1861 17-07-2019 12:05:18 19.9 C 20 %
1862 17-07-2019 12:17:17 20.2 C 20 %
1863 17-07-2019 12:29:17 20.3 C 20 %
1864 17-07-2019 12:41:18 20.8 C 20 %
1865 17-07-2019 12:53:18 20.7 C 20 %
1866 17-07-2019 13:05:17 20.8 C 20 %
1867 17-07-2019 13:17:17 21.2 C 20 %
1868 17-07-2019 13:29:17 21.7 C 20 %
1869 17-07-2019 13:41:18 21.7 C 20 %
1870 17-07-2019 13:53:18 22 C 20 %
1871 17-07-2019 14:05:17 22.4 C 20 %
1872 17-07-2019 14:17:18 22.6 C 20 %
1873 17-07-2019 14:29:18 23.1 C 20 %
1874 17-07-2019 14:41:17 23.2 C 20 %
1875 17-07-2019 14:53:17 23.3 C 20 %
Sensor: Nr:Datum:Temp:Feuchte:
Aussen-T/F 1876 17-07-2019 15:05:17 23.3 C 20 %
1877 17-07-2019 15:17:18 23.7 C 20 %
1878 17-07-2019 15:29:18 23.6 C 20 %
1879 17-07-2019 15:41:18 23.9 C 20 %
1880 17-07-2019 15:53:17 23.9 C 20 %
1881 17-07-2019 16:05:17 23.6 C 20 %
1882 17-07-2019 16:17:18 23.3 C 20 %
1883 17-07-2019 16:29:18 24.5 C 20 %
1884 17-07-2019 16:41:18 24.4 C 20 %
1885 17-07-2019 16:53:17 23.6 C 20 %
1886 17-07-2019 17:05:17 24.9 C 20 %
1887 17-07-2019 17:17:17 24.8 C 20 %
1888 17-07-2019 17:29:17 25.2 C 20 %
1889 17-07-2019 17:41:17 25.4 C 20 %
1890 17-07-2019 17:53:18 25 C 20 %
1891 17-07-2019 18:05:17 25.1 C 20 %
1892 17-07-2019 18:17:18 24.6 C 20 %
1893 17-07-2019 18:29:18 24.1 C 20 %
1894 17-07-2019 18:41:18 24.1 C 20 %
1895 17-07-2019 18:53:18 23.7 C 20 %
1896 17-07-2019 19:05:18 24.3 C 20 %
1897 17-07-2019 19:17:17 23.4 C 20 %
1898 17-07-2019 19:29:17 23.1 C 20 %
1899 17-07-2019 19:41:17 22.5 C 20 %
1900 17-07-2019 19:53:17 22.4 C 20 %
Sensor: Nr:Datum:Temp:Feuchte:
Aussen-T/F 1901 17-07-2019 20:05:17 22.1 C 20 %
1902 17-07-2019 20:17:17 22 C 20 %
1903 17-07-2019 20:29:17 21.7 C 20 %
1904 17-07-2019 20:41:18 21.3 C 20 %
1905 17-07-2019 20:53:18 20.9 C 20 %
1906 17-07-2019 21:05:18 20.6 C 20 %
1907 17-07-2019 21:17:18 20.3 C 20 %
1908 17-07-2019 21:29:18 19.7 C 20 %
1909 17-07-2019 21:41:18 18.3 C 20 %
1910 17-07-2019 21:53:18 17.6 C 22 %
1911 17-07-2019 22:05:18 17.2 C 25 %
1912 17-07-2019 22:17:18 17 C 26 %
1913 17-07-2019 22:29:18 16.8 C 26 %
1914 17-07-2019 22:41:18 16.4 C 27 %
1915 17-07-2019 22:53:17 16.3 C 29 %
1916 17-07-2019 23:05:18 16.4 C 29 %
1917 17-07-2019 23:17:18 16.1 C 29 %
1918 17-07-2019 23:29:18 15.9 C 31 %
1919 17-07-2019 23:41:18 15.6 C 30 %
1920 17-07-2019 23:53:18 15.6 C 31 %
1921 18-07-2019 00:05:18 15.5 C 32 %
1922 18-07-2019 00:17:18 15.5 C 32 %
1923 18-07-2019 00:29:18 15.2 C 32 %
1924 18-07-2019 00:41:18 15.2 C 33 %
1925 18-07-2019 00:53:18 14.8 C 35 %
Sensor: Nr:Datum:Temp:Feuchte:
Aussen-T/F 1926 18-07-2019 01:05:18 14.5 C 35 %
1927 18-07-2019 01:17:18 14.3 C 36 %
1928 18-07-2019 01:29:18 14 C 37 %
1929 18-07-2019 01:41:18 13.8 C 39 %
1930 18-07-2019 01:53:17 13.7 C 40 %
1931 18-07-2019 02:05:18 13.8 C 41 %
1932 18-07-2019 02:17:18 13.6 C 41 %
1933 18-07-2019 02:29:18 13.7 C 41 %
1934 18-07-2019 02:41:17 13.8 C 41 %
1935 18-07-2019 02:53:17 13.7 C 41 %
1936 18-07-2019 03:05:17 13.6 C 41 %
1937 18-07-2019 03:17:17 13.6 C 42 %
1938 18-07-2019 03:29:17 13.5 C 42 %
1939 18-07-2019 03:41:17 13.7 C 42 %
1940 18-07-2019 03:53:17 13.6 C 42 %
1941 18-07-2019 04:05:17 13.6 C 42 %
1942 18-07-2019 04:17:17 13.4 C 42 %
1943 18-07-2019 04:29:17 13.3 C 43 %
1944 18-07-2019 04:41:17 13.1 C 43 %
1945 18-07-2019 04:53:18 12.9 C 44 %
1946 18-07-2019 05:05:17 12.8 C 45 %
1947 18-07-2019 05:17:17 12.7 C 45 %
1948 18-07-2019 05:29:17 12.5 C 45 %
1949 18-07-2019 05:41:17 12.4 C 45 %
1950 18-07-2019 05:53:18 12.4 C 45 %
Sensor: Nr:Datum:Temp:Feuchte:
Aussen-T/F 1951 18-07-2019 06:05:17 12.4 C 45 %
1952 18-07-2019 06:17:17 12.4 C 46 %
1953 18-07-2019 06:29:17 12.5 C 46 %
1954 18-07-2019 06:41:17 12.7 C 46 %
1955 18-07-2019 06:53:18 12.9 C 46 %
1956 18-07-2019 07:05:17 13.3 C 46 %
1957 18-07-2019 07:17:17 13.7 C 44 %
1958 18-07-2019 07:29:18 13.8 C 42 %
1959 18-07-2019 07:41:17 14 C 41 %
1960 18-07-2019 07:53:17 14.2 C 39 %
1961 18-07-2019 08:05:18 14.5 C 37 %
1962 18-07-2019 08:17:17 14.7 C 37 %
1963 18-07-2019 08:29:17 15.1 C 35 %
1964 18-07-2019 08:41:18 15.5 C 34 %
1965 18-07-2019 08:53:17 16 C 32 %
1966 18-07-2019 09:05:17 16.4 C 32 %
1967 18-07-2019 09:17:17 17 C 31 %
1968 18-07-2019 09:29:17 17.7 C 27 %
1969 18-07-2019 09:41:17 19 C 25 %
1970 18-07-2019 09:53:17 20.4 C 21 %
1971 18-07-2019 10:05:17 19.7 C 20 %
1972 18-07-2019 10:17:17 20 C 20 %
1973 18-07-2019 10:29:17 20.1 C 20 %
1974 18-07-2019 10:41:17 21 C 20 %
1975 18-07-2019 10:53:17 22.2 C 20 %
Sensor: Nr:Datum:Temp:Feuchte:
Aussen-T/F 1976 18-07-2019 11:05:17 23.5 C 20 %
1977 18-07-2019 11:17:17 24.5 C 20 %
1978 18-07-2019 11:29:17 24.8 C 20 %
1979 18-07-2019 11:41:17 27 C 20 %
1980 18-07-2019 11:53:17 25.9 C 20 %
1981 18-07-2019 12:05:18 25.1 C 20 %
1982 18-07-2019 12:17:17 25.1 C 20 %
1983 18-07-2019 12:29:17 25.6 C 20 %
1984 18-07-2019 12:41:17 25.4 C 20 %
1985 18-07-2019 12:53:17 24.9 C 20 %
1986 18-07-2019 13:05:17 25.6 C 20 %
1987 18-07-2019 13:17:18 26.2 C 20 %
1988 18-07-2019 13:29:18 26.6 C 20 %
1989 18-07-2019 13:41:17 27 C 20 %
1990 18-07-2019 13:53:17 27.6 C 20 %
1991 18-07-2019 14:05:18 27.9 C 20 %
1992 18-07-2019 14:17:17 28.6 C 20 %
1993 18-07-2019 14:29:17 27.6 C 20 %
1994 18-07-2019 14:41:17 27.7 C 20 %
1995 18-07-2019 14:53:18 27.4 C 20 %
1996 18-07-2019 15:05:17 26.6 C 20 %
1997 18-07-2019 15:17:17 26.1 C 20 %
1998 18-07-2019 15:29:18 25.7 C 20 %
1999 18-07-2019 15:41:17 25.4 C 20 %
2000 18-07-2019 15:53:17 25.5 C 20 %
Sensor: Nr:Datum:Temp:Feuchte:
Aussen-T/F 2001 18-07-2019 16:05:17 24.1 C 20 %
2002 18-07-2019 16:17:18 24.1 C 20 %
2003 18-07-2019 16:29:18 24.4 C 20 %
2004 18-07-2019 16:41:17 24.5 C 20 %
2005 18-07-2019 16:53:17 25.2 C 20 %
2006 18-07-2019 17:05:17 25.1 C 20 %
2007 18-07-2019 17:17:17 24.8 C 20 %
2008 18-07-2019 17:29:17 25.1 C 20 %
2009 18-07-2019 17:41:18 24.5 C 20 %
2010 18-07-2019 17:53:17 24 C 20 %
2011 18-07-2019 18:05:18 24.6 C 20 %
2012 18-07-2019 18:17:18 24.9 C 20 %
2013 18-07-2019 18:29:18 23.7 C 20 %
2014 18-07-2019 18:41:17 21 C 22 %
2015 18-07-2019 18:53:18 20 C 29 %
2016 18-07-2019 19:05:18 20.3 C 27 %
2017 18-07-2019 19:17:18 20.6 C 25 %
2018 18-07-2019 19:29:18 20.6 C 23 %
2019 18-07-2019 19:41:17 20.6 C 21 %
2020 18-07-2019 19:53:17 20.5 C 20 %
2021 18-07-2019 20:05:17 20.9 C 20 %
2022 18-07-2019 20:17:17 21.2 C 20 %
2023 18-07-2019 20:29:17 21 C 20 %
2024 18-07-2019 20:41:17 20.8 C 20 %
2025 18-07-2019 20:53:17 20.5 C 20 %
Sensor: Nr:Datum:Temp:Feuchte:
Aussen-T/F 2026 18-07-2019 21:05:18 20.3 C 20 %
2027 18-07-2019 21:17:17 20 C 20 %
2028 18-07-2019 21:29:17 19.7 C 20 %
2029 18-07-2019 21:41:18 19.5 C 20 %
2030 18-07-2019 21:53:18 19.4 C 20 %
2031 18-07-2019 22:05:18 19.4 C 20 %
2032 18-07-2019 22:17:17 19.4 C 20 %
2033 18-07-2019 22:29:17 19.5 C 20 %
2034 18-07-2019 22:41:17 19.4 C 20 %
2035 18-07-2019 22:53:17 19.3 C 20 %
2036 18-07-2019 23:05:17 19.1 C 20 %
2037 18-07-2019 23:17:17 19 C 20 %
2038 18-07-2019 23:29:17 19.3 C 20 %
2039 18-07-2019 23:41:17 19.4 C 20 %
2040 18-07-2019 23:53:17 19.6 C 20 %
2041 19-07-2019 00:05:17 19.4 C 20 %
2042 19-07-2019 00:17:17 19.1 C 20 %
2043 19-07-2019 00:29:17 18.9 C 21 %
2044 19-07-2019 00:41:17 18.8 C 23 %
2045 19-07-2019 00:53:17 18.7 C 24 %
2046 19-07-2019 01:05:18 18.6 C 25 %
2047 19-07-2019 01:17:18 17.5 C 35 %
2048 19-07-2019 01:29:18 17 C 39 %
2049 19-07-2019 01:41:18 16.7 C 42 %
2050 19-07-2019 01:53:18 16.6 C 45 %
Sensor: Nr:Datum:Temp:Feuchte:
Aussen-T/F 2051 19-07-2019 02:05:18 16.5 C 45 %
2052 19-07-2019 02:17:18 16.2 C 45 %
2053 19-07-2019 02:29:18 16.4 C 46 %
2054 19-07-2019 02:41:17 16.4 C 46 %
2055 19-07-2019 02:53:18 16.4 C 46 %
2056 19-07-2019 03:05:18 16.2 C 46 %
2057 19-07-2019 03:17:18 16.2 C 46 %
2058 19-07-2019 03:29:18 16.3 C 46 %
2059 19-07-2019 03:41:18 16.3 C 46 %
2060 19-07-2019 03:53:17 16.2 C 46 %
2061 19-07-2019 04:05:18 16.2 C 45 %
2062 19-07-2019 04:17:17 16.1 C 46 %
2063 19-07-2019 04:29:17 16 C 45 %
2064 19-07-2019 04:41:18 16 C 45 %
2065 19-07-2019 04:53:17 16 C 46 %
2066 19-07-2019 05:05:17 16 C 46 %
2067 19-07-2019 05:17:18 16 C 47 %
2068 19-07-2019 05:29:18 16 C 47 %
2069 19-07-2019 05:41:18 16 C 48 %
2070 19-07-2019 05:53:18 16.1 C 48 %
2071 19-07-2019 06:05:18 16.1 C 49 %
2072 19-07-2019 06:17:17 16 C 49 %
2073 19-07-2019 06:29:18 16 C 49 %
2074 19-07-2019 06:41:17 16.2 C 50 %
2075 19-07-2019 06:53:18 16.2 C 52 %
Sensor: Nr:Datum:Temp:Feuchte:
Aussen-T/F 2076 19-07-2019 07:05:18 16.4 C 54 %
2077 19-07-2019 07:17:18 16.4 C 55 %
2078 19-07-2019 07:29:18 16.5 C 54 %
2079 19-07-2019 07:41:18 16.6 C 54 %
2080 19-07-2019 07:53:17 16.8 C 54 %
2081 19-07-2019 08:05:17 16.8 C 52 %
2082 19-07-2019 08:17:17 17 C 50 %
2083 19-07-2019 08:29:17 17.2 C 47 %
2084 19-07-2019 08:41:18 17.4 C 46 %
2085 19-07-2019 08:53:18 17.6 C 45 %
2086 19-07-2019 09:05:17 18 C 43 %
2087 19-07-2019 09:17:17 18.1 C 41 %
2088 19-07-2019 09:29:17 18.1 C 40 %
2089 19-07-2019 09:41:18 18.3 C 38 %
2090 19-07-2019 09:53:18 18.7 C 35 %
2091 19-07-2019 10:05:17 19.1 C 35 %
2092 19-07-2019 10:17:17 19.4 C 33 %
2093 19-07-2019 10:29:17 19.8 C 32 %
2094 19-07-2019 10:41:18 20 C 30 %
2095 19-07-2019 10:53:18 20.5 C 29 %
2096 19-07-2019 11:05:17 20.4 C 30 %
2097 19-07-2019 11:17:17 20.6 C 27 %
2098 19-07-2019 11:29:17 21.6 C 26 %
2099 19-07-2019 11:41:18 22.1 C 22 %
2100 19-07-2019 11:53:17 20.7 C 28 %
Sensor: Nr:Datum:Temp:Feuchte:
Aussen-T/F 2101 19-07-2019 12:05:17 19.1 C 32 %
2102 19-07-2019 12:17:17 19.2 C 35 %
2103 19-07-2019 12:29:17 19.5 C 34 %
2104 19-07-2019 12:41:18 20.7 C 30 %
2105 19-07-2019 12:53:18 21.2 C 26 %
2106 19-07-2019 13:05:17 21.4 C 25 %
2107 19-07-2019 13:17:18 22.1 C 21 %
2108 19-07-2019 13:29:18 23.2 C 20 %
2109 19-07-2019 13:41:18 23.1 C 20 %
2110 19-07-2019 13:53:17 22.5 C 20 %
2111 19-07-2019 14:05:17 22.8 C 20 %
2112 19-07-2019 14:17:18 23.2 C 20 %
2113 19-07-2019 14:29:18 24.5 C 20 %
2114 19-07-2019 14:41:17 24.9 C 20 %
2115 19-07-2019 14:53:17 25 C 20 %
2116 19-07-2019 15:05:18 25.2 C 20 %
2117 19-07-2019 15:17:17 25.9 C 20 %
2118 19-07-2019 15:29:17 25.5 C 20 %
2119 19-07-2019 15:41:17 25.5 C 20 %
2120 19-07-2019 15:53:17 25.5 C 20 %
2121 19-07-2019 16:05:18 25.3 C 20 %
2122 19-07-2019 16:17:17 25.3 C 20 %
2123 19-07-2019 16:29:17 25.9 C 20 %
2124 19-07-2019 16:41:17 26.3 C 20 %
2125 19-07-2019 16:53:18 25.5 C 20 %
Sensor: Nr:Datum:Temp:Feuchte:
Aussen-T/F 2126 19-07-2019 17:05:18 26.4 C 20 %
2127 19-07-2019 17:17:18 26.4 C 20 %
2128 19-07-2019 17:29:18 26.6 C 20 %
2129 19-07-2019 17:41:18 25.8 C 20 %
2130 19-07-2019 17:53:17 26.1 C 20 %
2131 19-07-2019 18:05:17 26.1 C 20 %
2132 19-07-2019 18:17:17 25.8 C 20 %
2133 19-07-2019 18:29:17 25.5 C 20 %
2134 19-07-2019 18:41:17 25.3 C 20 %
2135 19-07-2019 18:53:17 24.9 C 20 %
2136 19-07-2019 19:05:18 25 C 20 %
2137 19-07-2019 19:17:17 25.1 C 20 %
2138 19-07-2019 19:29:17 24.3 C 20 %
2139 19-07-2019 19:41:17 23.9 C 20 %
2140 19-07-2019 19:53:17 23.6 C 20 %
2141 19-07-2019 20:05:17 23.4 C 20 %
2142 19-07-2019 20:17:17 23.4 C 20 %
2143 19-07-2019 20:29:17 22.6 C 20 %
2144 19-07-2019 20:41:17 21.9 C 20 %
2145 19-07-2019 20:53:17 21.5 C 20 %
2146 19-07-2019 21:05:18 20.8 C 20 %
2147 19-07-2019 21:17:18 20.3 C 20 %
2148 19-07-2019 21:29:18 20.1 C 21 %
2149 19-07-2019 21:41:18 19.4 C 25 %
2150 19-07-2019 21:53:17 19.1 C 26 %
Sensor: Nr:Datum:Temp:Feuchte:
Aussen-T/F 2151 19-07-2019 22:05:17 18.9 C 27 %
2152 19-07-2019 22:17:17 18.7 C 28 %
2153 19-07-2019 22:29:17 18.6 C 29 %
2154 19-07-2019 22:41:17 18.8 C 30 %
2155 19-07-2019 22:53:17 18.6 C 30 %
2156 19-07-2019 23:05:18 18.5 C 29 %
2157 19-07-2019 23:17:17 18.3 C 30 %
2158 19-07-2019 23:29:17 18.1 C 31 %
2159 19-07-2019 23:41:18 17.9 C 32 %
2160 19-07-2019 23:53:17 17.8 C 32 %
2161 20-07-2019 00:05:18 17.5 C 34 %
2162 20-07-2019 00:17:17 17.2 C 34 %
2163 20-07-2019 00:29:17 17 C 35 %
2164 20-07-2019 00:41:17 16.8 C 35 %
2165 20-07-2019 00:53:18 16.5 C 36 %
2166 20-07-2019 01:05:18 16.4 C 37 %
2167 20-07-2019 01:17:18 16.2 C 38 %
2168 20-07-2019 01:29:18 16 C 38 %
2169 20-07-2019 01:41:18 16 C 39 %
2170 20-07-2019 01:53:18 15.9 C 40 %
2171 20-07-2019 02:05:18 15.7 C 40 %
2172 20-07-2019 02:17:17 15.5 C 41 %
2173 20-07-2019 02:29:17 15.3 C 41 %
2174 20-07-2019 02:41:18 15.1 C 42 %
2175 20-07-2019 02:53:18 15 C 42 %
Sensor: Nr:Datum:Temp:Feuchte:
Aussen-T/F 2176 20-07-2019 03:05:18 14.8 C 43 %
2177 20-07-2019 03:17:17 14.8 C 44 %
2178 20-07-2019 03:29:17 14.7 C 45 %
2179 20-07-2019 03:41:17 14.6 C 45 %
2180 20-07-2019 03:53:17 14.5 C 45 %
2181 20-07-2019 04:05:18 14.4 C 45 %
2182 20-07-2019 04:17:17 14.4 C 45 %
2183 20-07-2019 04:29:17 14.2 C 45 %
2184 20-07-2019 04:41:18 14.2 C 45 %
2185 20-07-2019 04:53:18 14.1 C 46 %
2186 20-07-2019 05:05:17 14 C 46 %
2187 20-07-2019 05:17:17 13.9 C 46 %
2188 20-07-2019 05:29:17 14 C 46 %
2189 20-07-2019 05:41:17 13.9 C 47 %
2190 20-07-2019 05:53:17 13.9 C 47 %
2191 20-07-2019 06:05:17 13.9 C 47 %
2192 20-07-2019 06:17:17 13.9 C 47 %
2193 20-07-2019 06:29:17 14 C 47 %
2194 20-07-2019 06:41:17 14 C 47 %
2195 20-07-2019 06:53:17 14.2 C 47 %
2196 20-07-2019 07:05:18 14.3 C 47 %
2197 20-07-2019 07:17:18 14.3 C 47 %
2198 20-07-2019 07:29:18 14.7 C 47 %
2199 20-07-2019 07:41:17 14.8 C 47 %
2200 20-07-2019 07:53:17 15 C 46 %
Sensor: Nr:Datum:Temp:Feuchte:
Aussen-T/F 2201 20-07-2019 08:05:18 15.5 C 47 %
2202 20-07-2019 08:17:18 16 C 46 %
2203 20-07-2019 08:29:18 16.3 C 46 %
2204 20-07-2019 08:41:18 16.8 C 45 %
2205 20-07-2019 08:53:18 17.2 C 42 %
2206 20-07-2019 09:05:18 17.5 C 40 %
2207 20-07-2019 09:17:17 18.3 C 36 %
2208 20-07-2019 09:29:17 19.3 C 32 %
2209 20-07-2019 09:41:18 22.5 C 25 %
2210 20-07-2019 09:53:17 22 C 24 %
2211 20-07-2019 10:05:18 22.1 C 25 %
2212 20-07-2019 10:17:18 22.9 C 23 %
2213 20-07-2019 10:29:18 22.9 C 25 %
2214 20-07-2019 10:41:18 23.1 C 25 %
2215 20-07-2019 10:53:18 24.5 C 22 %
2216 20-07-2019 11:05:18 26.3 C 20 %
2217 20-07-2019 11:17:18 28 C 20 %
2218 20-07-2019 11:29:18 28.9 C 20 %
2219 20-07-2019 11:41:18 28.8 C 20 %
2220 20-07-2019 11:53:17 28.3 C 20 %
2221 20-07-2019 12:05:17 28.1 C 20 %
2222 20-07-2019 12:17:17 28.2 C 20 %
2223 20-07-2019 12:29:17 28.1 C 20 %
2224 20-07-2019 12:41:17 28 C 20 %
2225 20-07-2019 12:53:17 28.2 C 20 %
Sensor: Nr:Datum:Temp:Feuchte:
Aussen-T/F 2226 20-07-2019 13:05:17 28.5 C 20 %
2227 20-07-2019 13:17:17 28.4 C 20 %
2228 20-07-2019 13:29:17 28.2 C 20 %
2229 20-07-2019 13:41:18 28.7 C 20 %
2230 20-07-2019 13:53:18 29.1 C 20 %
2231 20-07-2019 14:05:18 29.9 C 20 %
2232 20-07-2019 14:17:18 30.4 C 20 %
2233 20-07-2019 14:29:18 30.4 C 20 %
2234 20-07-2019 14:41:18 31.6 C 20 %
2235 20-07-2019 14:53:18 32.3 C 20 %
2236 20-07-2019 15:05:18 32.1 C 20 %
2237 20-07-2019 15:17:18 32.1 C 20 %
2238 20-07-2019 15:29:18 31.5 C 20 %
2239 20-07-2019 15:41:18 31 C 20 %
2240 20-07-2019 15:53:17 30.2 C 20 %
2241 20-07-2019 16:05:18 30.8 C 20 %
2242 20-07-2019 16:17:17 30.2 C 20 %
2243 20-07-2019 16:29:17 24.4 C 30 %
2244 20-07-2019 16:41:17 26.2 C 27 %
2245 20-07-2019 16:53:18 25.1 C 26 %
2246 20-07-2019 17:05:18 26.3 C 22 %
2247 20-07-2019 17:17:17 28.7 C 20 %
2248 20-07-2019 17:29:17 28.3 C 20 %
2249 20-07-2019 17:41:18 29 C 20 %
2250 20-07-2019 17:53:18 29 C 20 %
Sensor: Nr:Datum:Temp:Feuchte:
Aussen-T/F 2251 20-07-2019 18:05:18 29.2 C 20 %
2252 20-07-2019 18:17:17 29.1 C 20 %
2253 20-07-2019 18:29:17 29.3 C 20 %
2254 20-07-2019 18:41:17 29.3 C 20 %
2255 20-07-2019 18:53:17 29.5 C 20 %
2256 20-07-2019 19:05:17 29.4 C 20 %
2257 20-07-2019 19:17:18 29.5 C 20 %
2258 20-07-2019 19:29:18 27.4 C 20 %
2259 20-07-2019 19:41:18 25.2 C 20 %
2260 20-07-2019 19:53:17 24.4 C 20 %
2261 20-07-2019 20:05:18 24.3 C 20 %
2262 20-07-2019 20:17:18 23.9 C 20 %
2263 20-07-2019 20:29:18 23.6 C 20 %
2264 20-07-2019 20:41:18 23.5 C 20 %
2265 20-07-2019 20:53:17 22.9 C 20 %
2266 20-07-2019 21:05:18 22.3 C 20 %
2267 20-07-2019 21:17:18 21.6 C 21 %
2268 20-07-2019 21:29:18 21.5 C 21 %
2269 20-07-2019 21:41:18 21.3 C 22 %
2270 20-07-2019 21:53:17 21.2 C 23 %
2271 20-07-2019 22:05:18 20.8 C 25 %
2272 20-07-2019 22:17:18 20.6 C 25 %
2273 20-07-2019 22:29:18 20.4 C 26 %
2274 20-07-2019 22:41:18 20 C 27 %
2275 20-07-2019 22:53:17 20 C 28 %
Sensor: Nr:Datum:Temp:Feuchte:
Aussen-T/F 2276 20-07-2019 23:05:17 20 C 28 %
2277 20-07-2019 23:17:17 19.6 C 30 %
2278 20-07-2019 23:29:18 19.4 C 30 %
2279 20-07-2019 23:41:18 19.5 C 31 %
2280 20-07-2019 23:53:18 19.5 C 31 %
2281 21-07-2019 00:05:18 19.3 C 32 %
2282 21-07-2019 00:17:18 18.9 C 32 %
2283 21-07-2019 00:29:18 18.9 C 33 %
2284 21-07-2019 00:41:18 18.7 C 34 %
2285 21-07-2019 00:53:17 18.7 C 35 %
2286 21-07-2019 01:05:18 18.5 C 36 %
2287 21-07-2019 01:17:18 18.5 C 36 %
2288 21-07-2019 01:29:18 18.2 C 36 %
2289 21-07-2019 01:41:18 18.3 C 37 %
2290 21-07-2019 01:53:17 18.8 C 36 %
2291 21-07-2019 02:05:18 19.1 C 34 %
2292 21-07-2019 02:17:18 19.1 C 33 %
2293 21-07-2019 02:29:18 18.8 C 34 %
2294 21-07-2019 02:41:17 18.7 C 35 %
2295 21-07-2019 02:53:17 18.7 C 36 %
2296 21-07-2019 03:05:17 18.7 C 36 %
2297 21-07-2019 03:17:17 18.7 C 37 %
2298 21-07-2019 03:29:17 18.7 C 37 %
2299 21-07-2019 03:41:18 18.5 C 37 %
2300 21-07-2019 03:53:18 18.2 C 37 %
Sensor: Nr:Datum:Temp:Feuchte:
Aussen-T/F 2301 21-07-2019 04:05:18 17.9 C 38 %
2302 21-07-2019 04:17:17 17.6 C 39 %
2303 21-07-2019 04:29:17 17.6 C 40 %
2304 21-07-2019 04:41:17 17.4 C 40 %
2305 21-07-2019 04:53:18 17.3 C 40 %
2306 21-07-2019 05:05:17 17.1 C 41 %
2307 21-07-2019 05:17:17 17.2 C 41 %
2308 21-07-2019 05:29:17 17.3 C 41 %
2309 21-07-2019 05:41:18 17.5 C 41 %
2310 21-07-2019 05:53:17 17.8 C 40 %
2311 21-07-2019 06:05:18 17.8 C 40 %
2312 21-07-2019 06:17:17 17.9 C 40 %
2313 21-07-2019 06:29:17 18.1 C 38 %
2314 21-07-2019 06:41:18 18.2 C 37 %
2315 21-07-2019 06:53:18 18.4 C 35 %
2316 21-07-2019 07:05:18 18.6 C 35 %
2317 21-07-2019 07:17:17 18.8 C 34 %
2318 21-07-2019 07:29:17 19 C 33 %
2319 21-07-2019 07:41:18 19.2 C 33 %
2320 21-07-2019 07:53:18 19.4 C 30 %
2321 21-07-2019 08:05:18 19.6 C 25 %
2322 21-07-2019 08:17:18 19.4 C 24 %
2323 21-07-2019 08:29:18 19.5 C 23 %
2324 21-07-2019 08:41:18 19.5 C 25 %
2325 21-07-2019 08:53:18 19.6 C 25 %
Sensor: Nr:Datum:Temp:Feuchte:
Aussen-T/F 2326 21-07-2019 09:05:18 20.3 C 22 %
2327 21-07-2019 09:17:18 20.5 C 20 %
2328 21-07-2019 09:29:18 21.2 C 20 %
2329 21-07-2019 09:41:18 23.4 C 20 %
2330 21-07-2019 09:53:17 22.6 C 20 %
2331 21-07-2019 10:05:18 22.1 C 20 %
2332 21-07-2019 10:17:17 22.5 C 20 %
2333 21-07-2019 10:29:17 22.7 C 20 %
2334 21-07-2019 10:41:18 23.4 C 20 %
2335 21-07-2019 10:53:17 24.4 C 20 %
2336 21-07-2019 11:05:17 25.5 C 20 %
2337 21-07-2019 11:17:17 26.1 C 20 %
2338 21-07-2019 11:29:17 26.4 C 20 %
2339 21-07-2019 11:41:18 28.3 C 20 %
2340 21-07-2019 11:53:18 26.7 C 20 %
2341 21-07-2019 12:05:17 25.9 C 20 %
2342 21-07-2019 12:17:17 25.9 C 20 %
2343 21-07-2019 12:29:17 26.2 C 20 %
2344 21-07-2019 12:41:17 25.8 C 20 %
2345 21-07-2019 12:53:17 25.8 C 20 %
2346 21-07-2019 13:05:18 25.5 C 20 %
2347 21-07-2019 13:17:18 25.4 C 20 %
2348 21-07-2019 13:29:18 25.5 C 20 %
2349 21-07-2019 13:41:17 26 C 20 %
2350 21-07-2019 13:53:17 26.2 C 20 %
Sensor: Nr:Datum:Temp:Feuchte:
Aussen-T/F 2351 21-07-2019 14:05:18 26.3 C 20 %
2352 21-07-2019 14:17:18 27 C 20 %
2353 21-07-2019 14:29:18 27.2 C 20 %
2354 21-07-2019 14:41:18 27.3 C 20 %
2355 21-07-2019 14:53:17 27.2 C 20 %
2356 21-07-2019 15:05:17 28 C 20 %
2357 21-07-2019 15:17:17 28.2 C 20 %
2358 21-07-2019 15:29:17 28.1 C 20 %
2359 21-07-2019 15:41:18 27.5 C 20 %
2360 21-07-2019 15:53:18 28.1 C 20 %
2361 21-07-2019 16:05:17 27.9 C 20 %
2362 21-07-2019 16:17:17 28.5 C 20 %
2363 21-07-2019 16:29:17 28.7 C 20 %
2364 21-07-2019 16:41:18 28.6 C 20 %
2365 21-07-2019 16:53:17 28.7 C 20 %
2366 21-07-2019 17:05:18 28.3 C 20 %
2367 21-07-2019 17:17:18 27.6 C 20 %
2368 21-07-2019 17:29:18 27.7 C 20 %
2369 21-07-2019 17:41:18 27 C 20 %
2370 21-07-2019 17:53:18 27.7 C 20 %
2371 21-07-2019 18:05:17 27.4 C 20 %
2372 21-07-2019 18:17:17 26.8 C 20 %
2373 21-07-2019 18:29:17 26.7 C 20 %
2374 21-07-2019 18:41:17 26.5 C 20 %
2375 21-07-2019 18:53:17 26.7 C 20 %
Sensor: Nr:Datum:Temp:Feuchte:
Aussen-T/F 2376 21-07-2019 19:05:17 26.6 C 20 %
2377 21-07-2019 19:17:17 26 C 20 %
2378 21-07-2019 19:29:17 25.7 C 20 %
2379 21-07-2019 19:41:17 25.3 C 20 %
2380 21-07-2019 19:53:18 25.1 C 20 %
2381 21-07-2019 20:05:17 24.9 C 20 %
2382 21-07-2019 20:17:17 24.7 C 20 %
2383 21-07-2019 20:29:17 24.9 C 20 %
2384 21-07-2019 20:41:18 24.8 C 20 %
2385 21-07-2019 20:53:18 24.6 C 20 %
2386 21-07-2019 21:05:18 24.1 C 20 %
2387 21-07-2019 21:17:17 22.5 C 20 %
2388 21-07-2019 21:29:17 21.3 C 20 %
2389 21-07-2019 21:41:17 20.9 C 20 %
2390 21-07-2019 21:53:18 20.3 C 20 %
2391 21-07-2019 22:05:18 19.8 C 20 %
2392 21-07-2019 22:17:18 19.5 C 20 %
2393 21-07-2019 22:29:18 19.5 C 20 %
2394 21-07-2019 22:41:17 19.3 C 20 %
2395 21-07-2019 22:53:18 18.8 C 20 %
2396 21-07-2019 23:05:17 18.9 C 21 %
2397 21-07-2019 23:17:17 18.3 C 25 %
2398 21-07-2019 23:29:17 18 C 25 %
2399 21-07-2019 23:41:17 17.8 C 26 %
2400 21-07-2019 23:53:17 17.5 C 26 %
Sensor: Nr:Datum:Temp:Feuchte:
Aussen-T/F 2401 22-07-2019 00:05:17 17.3 C 26 %
2402 22-07-2019 00:17:17 17 C 27 %
2403 22-07-2019 00:29:17 16.8 C 28 %
2404 22-07-2019 00:41:17 16.8 C 28 %
2405 22-07-2019 00:53:18 16.5 C 30 %
2406 22-07-2019 01:05:17 16.3 C 30 %
2407 22-07-2019 01:17:17 16.2 C 31 %
2408 22-07-2019 01:29:17 16.1 C 32 %
2409 22-07-2019 01:41:18 16 C 33 %
2410 22-07-2019 01:53:17 15.7 C 34 %
2411 22-07-2019 02:05:18 15.7 C 36 %
2412 22-07-2019 02:17:18 15.6 C 36 %
2413 22-07-2019 02:29:18 15.7 C 37 %
2414 22-07-2019 02:41:18 15.6 C 37 %
2415 22-07-2019 02:53:17 15.6 C 36 %
2416 22-07-2019 03:05:18 15.7 C 37 %
2417 22-07-2019 03:17:17 15.7 C 37 %
2418 22-07-2019 03:29:18 15.5 C 37 %
2419 22-07-2019 03:41:18 15.1 C 37 %
2420 22-07-2019 03:53:17 15 C 38 %
2421 22-07-2019 04:05:18 14.9 C 39 %
2422 22-07-2019 04:17:17 14.8 C 40 %
2423 22-07-2019 04:29:17 14.6 C 40 %
2424 22-07-2019 04:41:18 14.5 C 41 %
2425 22-07-2019 04:53:17 14.5 C 41 %
Sensor: Nr:Datum:Temp:Feuchte:
Aussen-T/F 2426 22-07-2019 05:05:17 14.3 C 40 %
2427 22-07-2019 05:17:17 14.4 C 41 %
2428 22-07-2019 05:29:17 14.3 C 41 %
2429 22-07-2019 05:41:17 14.2 C 41 %
2430 22-07-2019 05:53:18 14.2 C 41 %
2431 22-07-2019 06:05:18 14.3 C 42 %
2432 22-07-2019 06:17:18 14.2 C 41 %
2433 22-07-2019 06:29:18 14.1 C 42 %
2434 22-07-2019 06:41:18 14.2 C 42 %
2435 22-07-2019 06:53:17 14.5 C 43 %
2436 22-07-2019 07:05:17 14.5 C 42 %
2437 22-07-2019 07:17:17 14.8 C 42 %
2438 22-07-2019 07:29:17 15.4 C 41 %
2439 22-07-2019 07:41:17 15.6 C 40 %
2440 22-07-2019 07:53:18 15.8 C 36 %
2441 22-07-2019 08:05:18 16.1 C 35 %
2442 22-07-2019 08:17:18 16.6 C 33 %
2443 22-07-2019 08:29:18 17.1 C 30 %
2444 22-07-2019 08:41:18 17.7 C 28 %
2445 22-07-2019 08:53:17 17.9 C 28 %
2446 22-07-2019 09:05:17 18.1 C 27 %
2447 22-07-2019 09:17:17 18.5 C 27 %
2448 22-07-2019 09:29:18 19.5 C 23 %
2449 22-07-2019 09:41:17 22.6 C 20 %
2450 22-07-2019 09:53:17 21.2 C 20 %
Sensor: Nr:Datum:Temp:Feuchte:
Aussen-T/F 2451 22-07-2019 10:05:18 21.3 C 20 %
2452 22-07-2019 10:17:17 21.7 C 20 %
2453 22-07-2019 10:29:17 21.9 C 20 %
2454 22-07-2019 10:41:18 22.5 C 20 %
2455 22-07-2019 10:53:18 24.1 C 20 %
2456 22-07-2019 11:05:18 25.2 C 20 %
2457 22-07-2019 11:17:17 25.5 C 20 %
2458 22-07-2019 11:29:17 26.6 C 20 %
2459 22-07-2019 11:41:18 28.8 C 20 %
2460 22-07-2019 11:53:18 27.9 C 20 %
2461 22-07-2019 12:05:17 26.6 C 20 %
2462 22-07-2019 12:17:18 26.3 C 20 %
2463 22-07-2019 12:29:18 26.4 C 20 %
2464 22-07-2019 12:41:17 26.7 C 20 %
2465 22-07-2019 12:53:17 26.8 C 20 %
2466 22-07-2019 13:05:18 26.5 C 20 %
2467 22-07-2019 13:29:17 26.8 C 20 %
2468 22-07-2019 13:29:17 27 C 20 %
2469 22-07-2019 13:41:17 27.3 C 20 %
2470 22-07-2019 13:53:17 27.9 C 20 %
2471 22-07-2019 14:05:18 28.2 C 20 %
2472 22-07-2019 14:29:17 28.7 C 20 %
2473 22-07-2019 14:29:17 28.7 C 20 %
2474 22-07-2019 14:41:17 29.4 C 20 %
2475 22-07-2019 14:53:17 29.5 C 20 %
Sensor: Nr:Datum:Temp:Feuchte:
Aussen-T/F 2476 22-07-2019 15:05:18 29.7 C 20 %
2477 22-07-2019 15:29:17 30.3 C 20 %
2478 22-07-2019 15:29:18 30.2 C 20 %
2479 22-07-2019 15:41:18 30.1 C 20 %
2480 22-07-2019 15:54:17 30.6 C 20 %
2481 22-07-2019 16:05:17 30.8 C 20 %
2482 22-07-2019 16:17:18 31.5 C 20 %
2483 22-07-2019 16:29:18 31.5 C 20 %
2484 22-07-2019 16:41:18 31.3 C 20 %
2485 22-07-2019 16:54:17 31.7 C 20 %
2486 22-07-2019 17:05:17 31.8 C 20 %
2487 22-07-2019 17:17:18 31.1 C 20 %
2488 22-07-2019 17:29:18 31.8 C 20 %
2489 22-07-2019 17:41:18 32.1 C 20 %
2490 22-07-2019 17:53:18 32.1 C 20 %
2491 22-07-2019 18:06:17 32.1 C 20 %
2492 22-07-2019 18:18:17 32.8 C 20 %
2493 22-07-2019 18:29:18 32.8 C 20 %
2494 22-07-2019 18:41:18 33 C 20 %
2495 22-07-2019 18:53:17 32.1 C 20 %
2496 22-07-2019 19:05:18 32.2 C 20 %
2497 22-07-2019 19:17:18 32.2 C 20 %
2498 22-07-2019 19:29:18 31.4 C 20 %
2499 22-07-2019 19:41:18 30.6 C 20 %
2500 22-07-2019 19:53:17 30.1 C 20 %
Sensor: Nr:Datum:Temp:Feuchte:
Aussen-T/F 2501 22-07-2019 20:05:18 29.8 C 20 %
2502 22-07-2019 20:17:18 29.7 C 20 %
2503 22-07-2019 20:29:18 29.3 C 20 %
2504 22-07-2019 20:41:18 28.8 C 20 %
2505 22-07-2019 20:54:17 28.2 C 20 %
2506 22-07-2019 21:05:18 26.9 C 20 %
2507 22-07-2019 21:18:17 25.4 C 20 %
2508 22-07-2019 21:29:18 25.4 C 20 %
2509 22-07-2019 21:41:18 23.8 C 20 %
2510 22-07-2019 21:53:18 23.6 C 20 %
2511 22-07-2019 22:05:18 23.2 C 20 %
2512 22-07-2019 22:17:18 22.7 C 20 %
2513 22-07-2019 22:29:18 22.3 C 20 %
2514 22-07-2019 22:41:18 21.9 C 20 %
2515 22-07-2019 22:54:17 21.7 C 20 %
2516 22-07-2019 23:06:17 21.4 C 20 %
2517 22-07-2019 23:18:17 20.9 C 20 %
2518 22-07-2019 23:30:17 20.3 C 20 %
2519 22-07-2019 23:42:17 20.1 C 20 %
2520 22-07-2019 23:54:17 19.8 C 20 %
2521 23-07-2019 00:05:18 19.5 C 21 %
2522 23-07-2019 00:29:18 19.4 C 22 %
2523 23-07-2019 00:29:18 19.1 C 22 %
2524 23-07-2019 00:41:18 19 C 23 %
2525 23-07-2019 00:54:17 18.8 C 25 %
Sensor: Nr:Datum:Temp:Feuchte:
Aussen-T/F 2526 23-07-2019 01:06:18 18.7 C 25 %
2527 23-07-2019 01:18:18 18.5 C 26 %
2528 23-07-2019 01:29:18 18.2 C 27 %
2529 23-07-2019 01:41:18 18 C 27 %
2530 23-07-2019 01:54:17 17.9 C 28 %
2531 23-07-2019 02:06:18 17.8 C 30 %
2532 23-07-2019 02:18:17 17.6 C 30 %
2533 23-07-2019 02:30:17 17.4 C 30 %
2534 23-07-2019 02:42:17 17.2 C 31 %
2535 23-07-2019 02:54:17 17.2 C 32 %
2536 23-07-2019 03:06:17 16.9 C 32 %
2537 23-07-2019 03:18:17 17 C 33 %
2538 23-07-2019 03:30:17 16.8 C 33 %
2539 23-07-2019 03:42:17 16.6 C 34 %
2540 23-07-2019 03:54:17 16.6 C 35 %
2541 23-07-2019 04:06:17 16.5 C 36 %
2542 23-07-2019 04:18:18 16.2 C 36 %
2543 23-07-2019 04:30:18 16.2 C 36 %
2544 23-07-2019 04:42:18 16.2 C 37 %
2545 23-07-2019 04:54:17 16.1 C 38 %
2546 23-07-2019 05:06:17 16 C 38 %
2547 23-07-2019 05:18:18 15.9 C 39 %
2548 23-07-2019 05:30:18 15.9 C 40 %
2549 23-07-2019 05:42:18 15.6 C 40 %
2550 23-07-2019 05:54:17 15.7 C 40 %
Sensor: Nr:Datum:Temp:Feuchte:
Aussen-T/F 2551 23-07-2019 06:06:18 15.6 C 41 %
2552 23-07-2019 06:18:18 15.7 C 41 %
2553 23-07-2019 06:30:18 15.8 C 41 %
2554 23-07-2019 06:42:18 15.8 C 40 %
2555 23-07-2019 06:54:18 16.1 C 40 %
2556 23-07-2019 07:06:18 16.3 C 40 %
2557 23-07-2019 07:18:17 16.3 C 39 %
2558 23-07-2019 07:30:18 16.4 C 39 %
2559 23-07-2019 07:42:18 16.4 C 39 %
2560 23-07-2019 07:54:18 16.6 C 39 %
2561 23-07-2019 08:06:18 16.7 C 38 %
2562 23-07-2019 08:18:17 16.8 C 39 %
2563 23-07-2019 08:30:18 17.1 C 38 %
2564 23-07-2019 08:42:18 17.2 C 37 %
2565 23-07-2019 08:54:17 17.7 C 36 %
2566 23-07-2019 09:06:17 18.4 C 33 %
2567 23-07-2019 09:18:17 18.9 C 31 %
2568 23-07-2019 09:30:17 20 C 27 %
2569 23-07-2019 09:42:17 23.8 C 20 %
2570 23-07-2019 09:54:17 22.2 C 20 %
2571 23-07-2019 10:06:18 22.2 C 20 %
2572 23-07-2019 10:18:17 22.9 C 20 %
2573 23-07-2019 10:30:18 23.6 C 20 %
2574 23-07-2019 10:42:18 25.1 C 20 %
2575 23-07-2019 10:54:17 27 C 20 %
Sensor: Nr:Datum:Temp:Feuchte:
Aussen-T/F 2576 23-07-2019 11:06:17 28.6 C 20 %
2577 23-07-2019 11:18:18 29.3 C 20 %
2578 23-07-2019 11:30:17 30.5 C 20 %
2579 23-07-2019 11:42:17 31.7 C 20 %
2580 23-07-2019 11:54:18 31.6 C 20 %
2581 23-07-2019 12:06:18 30.4 C 20 %
2582 23-07-2019 12:18:17 30.1 C 20 %
2583 23-07-2019 12:30:17 30.4 C 20 %
2584 23-07-2019 12:42:18 30.4 C 20 %
2585 23-07-2019 12:54:18 30.5 C 20 %
2586 23-07-2019 13:06:18 30.7 C 20 %
2587 23-07-2019 13:18:17 30.9 C 20 %
2588 23-07-2019 13:30:18 31.2 C 20 %
2589 23-07-2019 13:42:18 31.5 C 20 %
2590 23-07-2019 13:54:18 31.6 C 20 %
2591 23-07-2019 14:06:17 31.7 C 20 %
2592 23-07-2019 14:18:18 32.7 C 20 %
2593 23-07-2019 14:30:18 33.1 C 20 %
2594 23-07-2019 14:42:18 33.6 C 20 %
2595 23-07-2019 14:54:17 33.8 C 20 %
2596 23-07-2019 15:06:17 34.6 C 20 %
2597 23-07-2019 15:18:18 34.7 C 20 %
2598 23-07-2019 15:30:17 35 C 20 %
2599 23-07-2019 15:42:17 35.5 C 20 %
2600 23-07-2019 15:54:17 35.5 C 20 %
Sensor: Nr:Datum:Temp:Feuchte:
Aussen-T/F 2601 23-07-2019 16:06:17 35.7 C 20 %
2602 23-07-2019 16:18:17 36 C 20 %
2603 23-07-2019 16:30:18 36.2 C 20 %
2604 23-07-2019 16:42:18 36.4 C 20 %
2605 23-07-2019 16:54:18 36.4 C 20 %
2606 23-07-2019 17:06:17 36.6 C 20 %
2607 23-07-2019 17:18:17 36 C 20 %
2608 23-07-2019 17:30:17 36.7 C 20 %
2609 23-07-2019 17:42:17 37.2 C 20 %
2610 23-07-2019 17:54:18 36.8 C 20 %
2611 23-07-2019 18:06:18 37.3 C 20 %
2612 23-07-2019 18:18:17 37.3 C 20 %
2613 23-07-2019 18:30:17 37.3 C 20 %
2614 23-07-2019 18:42:17 37.3 C 20 %
2615 23-07-2019 18:54:17 36.8 C 20 %
2616 23-07-2019 19:06:18 36.7 C 20 %
2617 23-07-2019 19:18:18 36.2 C 20 %
2618 23-07-2019 19:30:18 35.3 C 20 %
2619 23-07-2019 19:42:18 34.8 C 20 %
2620 23-07-2019 19:54:17 34.2 C 20 %
2621 23-07-2019 20:06:18 33.6 C 20 %
2622 23-07-2019 20:18:17 32.7 C 20 %
2623 23-07-2019 20:30:17 31.6 C 20 %
2624 23-07-2019 20:42:17 30 C 20 %
2625 23-07-2019 20:54:18 29 C 20 %
Sensor: Nr:Datum:Temp:Feuchte:
Aussen-T/F 2626 23-07-2019 21:06:17 27.4 C 20 %
2627 23-07-2019 21:18:17 26.4 C 20 %
2628 23-07-2019 21:30:17 26.4 C 20 %
2629 23-07-2019 21:42:17 26 C 20 %
2630 23-07-2019 21:54:17 25.8 C 20 %
2631 23-07-2019 22:06:17 25.6 C 20 %
2632 23-07-2019 22:18:17 25.3 C 20 %
2633 23-07-2019 22:30:18 24.4 C 20 %
2634 23-07-2019 22:42:18 24.1 C 20 %
2635 23-07-2019 22:54:18 23.8 C 20 %
2636 23-07-2019 23:06:18 23.1 C 20 %
2637 23-07-2019 23:18:17 22.8 C 20 %
2638 23-07-2019 23:30:17 22.7 C 20 %
2639 23-07-2019 23:42:17 22.3 C 20 %
2640 23-07-2019 23:54:17 22 C 20 %
2641 24-07-2019 00:06:18 21.6 C 20 %
2642 24-07-2019 00:18:18 21.4 C 20 %
2643 24-07-2019 00:30:18 21.3 C 20 %
2644 24-07-2019 00:42:18 21.2 C 20 %
2645 24-07-2019 00:54:17 20.7 C 20 %
2646 24-07-2019 01:06:18 20.6 C 21 %
2647 24-07-2019 01:18:17 20.6 C 22 %
2648 24-07-2019 01:30:18 20 C 24 %
2649 24-07-2019 01:42:18 19.7 C 25 %
2650 24-07-2019 01:54:17 19.5 C 25 %
Sensor: Nr:Datum:Temp:Feuchte:
Aussen-T/F 2651 24-07-2019 02:06:18 19.5 C 25 %
2652 24-07-2019 02:18:18 19.3 C 25 %
2653 24-07-2019 02:30:17 19.3 C 27 %
2654 24-07-2019 02:42:17 19 C 26 %
2655 24-07-2019 02:54:18 18.8 C 28 %
2656 24-07-2019 03:06:18 19 C 27 %
2657 24-07-2019 03:18:18 18.6 C 28 %
2658 24-07-2019 03:30:18 18.3 C 30 %
2659 24-07-2019 03:42:18 18.3 C 30 %
2660 24-07-2019 03:54:18 18.2 C 31 %
2661 24-07-2019 04:06:18 17.9 C 32 %
2662 24-07-2019 04:18:18 17.9 C 33 %
2663 24-07-2019 04:30:18 17.7 C 33 %
2664 24-07-2019 04:42:18 17.6 C 34 %
2665 24-07-2019 04:54:18 17.5 C 35 %
2666 24-07-2019 05:06:17 17.2 C 35 %
2667 24-07-2019 05:18:18 17.2 C 36 %
2668 24-07-2019 05:30:18 17.2 C 36 %
2669 24-07-2019 05:42:18 17.1 C 36 %
2670 24-07-2019 05:54:17 17.1 C 36 %
2671 24-07-2019 06:06:18 17.2 C 37 %
2672 24-07-2019 06:18:17 17.1 C 36 %
2673 24-07-2019 06:30:18 17.2 C 37 %
2674 24-07-2019 06:42:18 17.1 C 37 %
2675 24-07-2019 06:54:18 17.1 C 37 %
Sensor: Nr:Datum:Temp:Feuchte:
Aussen-T/F 2676 24-07-2019 07:06:18 17.2 C 38 %
2677 24-07-2019 07:18:18 17.4 C 38 %
2678 24-07-2019 07:30:17 17.6 C 37 %
2679 24-07-2019 07:42:17 17.8 C 37 %
2680 24-07-2019 07:54:17 18 C 36 %
2681 24-07-2019 08:06:18 18.1 C 36 %
2682 24-07-2019 08:18:17 18.3 C 36 %
2683 24-07-2019 08:30:18 18.6 C 35 %
2684 24-07-2019 08:42:18 19 C 35 %
2685 24-07-2019 08:54:18 19.5 C 33 %
2686 24-07-2019 09:06:17 19.9 C 32 %
2687 24-07-2019 09:18:17 20.4 C 30 %
2688 24-07-2019 09:30:18 21.3 C 26 %
2689 24-07-2019 09:42:18 24.2 C 20 %
2690 24-07-2019 09:54:17 23.7 C 20 %
2691 24-07-2019 10:06:17 23.6 C 20 %
2692 24-07-2019 10:18:17 24.1 C 20 %
2693 24-07-2019 10:30:18 24.7 C 20 %
2694 24-07-2019 10:42:18 25 C 20 %
2695 24-07-2019 10:54:17 26.6 C 20 %
2696 24-07-2019 11:06:18 27.5 C 20 %
2697 24-07-2019 11:18:17 29.1 C 20 %
2698 24-07-2019 11:30:18 29.9 C 20 %
2699 24-07-2019 11:42:18 34.2 C 20 %
2700 24-07-2019 11:54:18 33.7 C 20 %
Sensor: Nr:Datum:Temp:Feuchte:
Aussen-T/F 2701 24-07-2019 12:06:18 32.4 C 20 %
2702 24-07-2019 12:18:17 33 C 20 %
2703 24-07-2019 12:30:18 32.9 C 20 %
2704 24-07-2019 12:42:18 33.4 C 20 %
2705 24-07-2019 12:54:18 33.8 C 20 %
2706 24-07-2019 13:06:17 33.6 C 20 %
2707 24-07-2019 13:18:17 33.6 C 20 %
2708 24-07-2019 13:30:18 34 C 20 %
2709 24-07-2019 13:42:18 34 C 20 %
2710 24-07-2019 13:54:17 34.3 C 20 %
2711 24-07-2019 14:06:17 34.7 C 20 %
2712 24-07-2019 14:18:17 35 C 20 %
2713 24-07-2019 14:30:17 35.8 C 20 %
2714 24-07-2019 14:42:17 36.7 C 20 %
2715 24-07-2019 14:54:17 37.1 C 20 %
2716 24-07-2019 15:06:18 37.2 C 20 %
2717 24-07-2019 15:18:18 37.7 C 20 %
2718 24-07-2019 15:30:18 38.7 C 20 %
2719 24-07-2019 15:42:18 38.6 C 20 %
2720 24-07-2019 15:54:17 39 C 20 %
2721 24-07-2019 16:06:18 39.6 C 20 %
2722 24-07-2019 16:18:17 39.3 C 20 %
2723 24-07-2019 16:30:18 39.8 C 20 %
2724 24-07-2019 16:42:18 39.5 C 20 %
2725 24-07-2019 16:54:18 39.7 C 20 %
Sensor: Nr:Datum:Temp:Feuchte:
Aussen-T/F 2726 24-07-2019 17:06:17 40 C 20 %
2727 24-07-2019 17:18:17 39.8 C 20 %
2728 24-07-2019 17:30:17 39.1 C 20 %
2729 24-07-2019 17:42:17 38.9 C 20 %
2730 24-07-2019 17:54:17 39.2 C 20 %
2731 24-07-2019 18:06:17 39.7 C 20 %
2732 24-07-2019 18:18:17 39.2 C 20 %
2733 24-07-2019 18:30:17 39.1 C 20 %
2734 24-07-2019 18:42:18 38.9 C 20 %
2735 24-07-2019 18:54:17 38.5 C 20 %
2736 24-07-2019 19:06:17 38.4 C 20 %
2737 24-07-2019 19:18:18 38.5 C 20 %
2738 24-07-2019 19:30:18 38 C 20 %
2739 24-07-2019 19:42:18 36.6 C 20 %
2740 24-07-2019 19:54:17 35.8 C 20 %
2741 24-07-2019 20:06:18 33.6 C 20 %
2742 24-07-2019 20:18:17 31.8 C 20 %
2743 24-07-2019 20:30:18 30.5 C 20 %
2744 24-07-2019 20:42:18 29.8 C 20 %
2745 24-07-2019 20:54:18 29.3 C 20 %
2746 24-07-2019 21:06:18 29 C 20 %
2747 24-07-2019 21:18:18 28.5 C 20 %
2748 24-07-2019 21:30:18 28.1 C 20 %
2749 24-07-2019 21:42:18 27.7 C 20 %
2750 24-07-2019 21:54:17 27.7 C 20 %
Sensor: Nr:Datum:Temp:Feuchte:
Aussen-T/F 2751 24-07-2019 22:06:18 27.2 C 20 %
2752 24-07-2019 22:18:17 27.1 C 20 %
2753 24-07-2019 22:30:18 27 C 20 %
2754 24-07-2019 22:42:18 26.9 C 20 %
2755 24-07-2019 22:54:18 26.7 C 20 %
2756 24-07-2019 23:06:18 26.5 C 20 %
2757 24-07-2019 23:18:18 25.7 C 20 %
2758 24-07-2019 23:30:18 24.7 C 20 %
2759 24-07-2019 23:42:18 24.5 C 20 %
2760 24-07-2019 23:54:17 23.9 C 20 %
2761 25-07-2019 00:06:18 23.6 C 20 %
2762 25-07-2019 00:18:17 23.4 C 20 %
2763 25-07-2019 00:30:17 23.2 C 20 %
2764 25-07-2019 00:42:17 23 C 20 %
2765 25-07-2019 00:54:18 22.9 C 20 %
2766 25-07-2019 01:06:18 22.5 C 20 %
2767 25-07-2019 01:18:17 22.2 C 20 %
2768 25-07-2019 01:30:17 22.4 C 20 %
2769 25-07-2019 01:42:17 22.1 C 20 %
2770 25-07-2019 01:54:17 21.8 C 20 %
2771 25-07-2019 02:06:18 21.6 C 20 %
2772 25-07-2019 02:18:17 21.5 C 20 %
2773 25-07-2019 02:30:17 21.4 C 20 %
2774 25-07-2019 02:42:17 21.3 C 20 %
2775 25-07-2019 02:54:17 21.1 C 20 %
Sensor: Nr:Datum:Temp:Feuchte:
Aussen-T/F 2776 25-07-2019 03:06:17 21 C 20 %
2777 25-07-2019 03:18:17 20.8 C 20 %
2778 25-07-2019 03:30:18 20.6 C 20 %
2779 25-07-2019 03:42:18 20.4 C 22 %
2780 25-07-2019 03:54:18 20.2 C 23 %
2781 25-07-2019 04:06:18 20 C 24 %
2782 25-07-2019 04:18:18 19.9 C 25 %
2783 25-07-2019 04:30:17 19.9 C 25 %
2784 25-07-2019 04:42:17 19.7 C 25 %
2785 25-07-2019 04:54:17 19.7 C 26 %
2786 25-07-2019 05:06:18 19.4 C 26 %
2787 25-07-2019 05:18:17 19.3 C 26 %
2788 25-07-2019 05:30:17 19.2 C 28 %
2789 25-07-2019 05:42:17 19.1 C 27 %
2790 25-07-2019 05:54:18 19.1 C 28 %
2791 25-07-2019 06:06:17 19.1 C 29 %
2792 25-07-2019 06:18:17 19.2 C 29 %
2793 25-07-2019 06:30:17 19.1 C 30 %
2794 25-07-2019 06:42:17 19.2 C 30 %
2795 25-07-2019 06:54:17 19.4 C 30 %
2796 25-07-2019 07:06:17 19.4 C 30 %
2797 25-07-2019 07:18:18 19.7 C 31 %
2798 25-07-2019 07:30:17 19.9 C 31 %
2799 25-07-2019 07:42:17 20 C 30 %
2800 25-07-2019 07:54:17 20.2 C 30 %
Sensor: Nr:Datum:Temp:Feuchte:
Aussen-T/F 2801 25-07-2019 08:06:17 20.6 C 29 %
2802 25-07-2019 08:18:17 20.8 C 27 %
2803 25-07-2019 08:30:18 21.2 C 28 %
2804 25-07-2019 08:42:18 21.6 C 27 %
2805 25-07-2019 08:54:17 22 C 25 %
2806 25-07-2019 09:06:17 22.4 C 25 %
2807 25-07-2019 09:18:18 22.9 C 21 %
2808 25-07-2019 09:30:17 23.3 C 21 %
2809 25-07-2019 09:42:17 26.3 C 20 %
2810 25-07-2019 09:54:17 25.7 C 20 %
2811 25-07-2019 10:06:18 25.9 C 20 %
2812 25-07-2019 10:18:17 26.3 C 20 %
2813 25-07-2019 10:30:18 26.6 C 20 %
2814 25-07-2019 10:42:18 28 C 20 %
2815 25-07-2019 10:54:18 29 C 20 %
2816 25-07-2019 11:06:17 30.5 C 20 %
2817 25-07-2019 11:18:17 32.1 C 20 %
2818 25-07-2019 11:30:18 33.6 C 20 %
2819 25-07-2019 11:42:18 36.3 C 20 %
2820 25-07-2019 11:54:18 35.5 C 20 %
2821 25-07-2019 12:06:18 35.1 C 20 %
2822 25-07-2019 12:18:17 34.8 C 20 %
2823 25-07-2019 12:30:18 35.4 C 20 %
2824 25-07-2019 12:42:18 36.1 C 20 %
2825 25-07-2019 12:54:18 36.5 C 20 %
Sensor: Nr:Datum:Temp:Feuchte:
Aussen-T/F 2826 25-07-2019 13:06:18 36.5 C 20 %
2827 25-07-2019 13:18:17 36.4 C 20 %
2828 25-07-2019 13:30:17 36.6 C 20 %
2829 25-07-2019 13:42:17 37.3 C 20 %
2830 25-07-2019 13:54:17 37.2 C 20 %
2831 25-07-2019 14:06:17 37.4 C 20 %
2832 25-07-2019 14:18:17 38.1 C 20 %
2833 25-07-2019 14:30:17 37.7 C 20 %
2834 25-07-2019 14:42:18 38.7 C 20 %
2835 25-07-2019 14:54:18 38.9 C 20 %
2836 25-07-2019 15:06:17 39.6 C 20 %
2837 25-07-2019 15:18:17 39.6 C 20 %
2838 25-07-2019 15:30:17 39.6 C 20 %
2839 25-07-2019 15:42:17 39.5 C 20 %
2840 25-07-2019 15:54:17 40.2 C 20 %
2841 25-07-2019 16:06:18 40.3 C 20 %
2842 25-07-2019 16:18:17 40.5 C 20 %
2843 25-07-2019 16:30:18 40.4 C 20 %
2844 25-07-2019 16:42:18 40 C 20 %
2845 25-07-2019 16:54:17 39.8 C 20 %
2846 25-07-2019 17:06:18 40.3 C 20 %
2847 25-07-2019 17:18:18 39.9 C 20 %
2848 25-07-2019 17:30:17 39.5 C 20 %
2849 25-07-2019 17:42:17 39.7 C 20 %
2850 25-07-2019 17:54:17 39.6 C 20 %
Sensor: Nr:Datum:Temp:Feuchte:
Aussen-T/F 2851 25-07-2019 18:06:17 39.4 C 20 %
2852 25-07-2019 18:18:17 39.2 C 20 %
2853 25-07-2019 18:30:18 39.3 C 20 %
2854 25-07-2019 18:42:18 38.8 C 20 %
2855 25-07-2019 18:54:17 38.5 C 20 %
2856 25-07-2019 19:06:18 37.5 C 20 %
2857 25-07-2019 19:18:17 36.7 C 20 %
2858 25-07-2019 19:30:18 35.5 C 20 %
2859 25-07-2019 19:42:18 34.5 C 20 %
2860 25-07-2019 19:54:18 33.7 C 20 %
2861 25-07-2019 20:06:18 33.1 C 20 %
2862 25-07-2019 20:18:17 32.7 C 20 %
2863 25-07-2019 20:30:17 32.3 C 20 %
2864 25-07-2019 20:42:17 31.6 C 20 %
2865 25-07-2019 20:54:18 31.4 C 20 %
2866 25-07-2019 21:06:17 30.6 C 20 %
2867 25-07-2019 21:18:18 30.1 C 20 %
2868 25-07-2019 21:30:18 29.6 C 20 %
2869 25-07-2019 21:42:18 29.3 C 20 %
2870 25-07-2019 21:54:18 28.9 C 20 %
2871 25-07-2019 22:06:18 28.7 C 20 %
2872 25-07-2019 22:18:18 28.5 C 20 %
2873 25-07-2019 22:30:18 28.2 C 20 %
2874 25-07-2019 22:42:18 27.9 C 20 %
2875 25-07-2019 22:54:17 27.7 C 20 %
Sensor: Nr:Datum:Temp:Feuchte:
Aussen-T/F 2876 25-07-2019 23:06:17 27.6 C 20 %
2877 25-07-2019 23:18:17 27.5 C 20 %
2878 25-07-2019 23:30:18 26.9 C 20 %
2879 25-07-2019 23:42:18 26.8 C 20 %
2880 25-07-2019 23:54:17 26.4 C 20 %
2881 26-07-2019 00:06:17 26.2 C 20 %
2882 26-07-2019 00:18:18 26 C 20 %
2883 26-07-2019 00:30:18 25.7 C 20 %
2884 26-07-2019 00:42:18 25.5 C 20 %
2885 26-07-2019 00:54:18 25.4 C 20 %
2886 26-07-2019 01:06:18 25.3 C 20 %
2887 26-07-2019 01:18:18 25.2 C 20 %
2888 26-07-2019 01:30:18 24.9 C 20 %
2889 26-07-2019 01:42:18 24 C 20 %
2890 26-07-2019 01:54:17 23.3 C 20 %
2891 26-07-2019 02:06:18 22.9 C 20 %
2892 26-07-2019 02:18:18 22.4 C 20 %
2893 26-07-2019 02:30:18 22 C 20 %
2894 26-07-2019 02:42:18 21.6 C 20 %
2895 26-07-2019 02:54:17 21.2 C 20 %
2896 26-07-2019 03:06:18 21.1 C 20 %
2897 26-07-2019 03:18:18 21 C 20 %
2898 26-07-2019 03:30:18 20.8 C 20 %
2899 26-07-2019 03:42:18 20.5 C 20 %
2900 26-07-2019 03:54:17 20.6 C 21 %
Sensor: Nr:Datum:Temp:Feuchte:
Aussen-T/F 2901 26-07-2019 04:06:17 20.3 C 23 %
2902 26-07-2019 04:18:17 20.1 C 23 %
2903 26-07-2019 04:30:18 19.9 C 26 %
2904 26-07-2019 04:42:18 19.7 C 25 %
2905 26-07-2019 04:54:17 19.6 C 26 %
2906 26-07-2019 05:06:18 19.5 C 25 %
2907 26-07-2019 05:18:17 19.5 C 25 %
2908 26-07-2019 05:30:17 19.3 C 26 %
2909 26-07-2019 05:42:17 19.1 C 27 %
2910 26-07-2019 05:54:18 19 C 25 %
2911 26-07-2019 06:06:18 19.1 C 27 %
2912 26-07-2019 06:18:17 19.1 C 26 %
2913 26-07-2019 06:30:18 19.1 C 27 %
2914 26-07-2019 06:42:18 19.3 C 27 %
2915 26-07-2019 06:54:17 19.5 C 29 %
2916 26-07-2019 07:06:18 19.7 C 30 %
2917 26-07-2019 07:18:17 19.7 C 30 %
2918 26-07-2019 07:30:18 20 C 28 %
2919 26-07-2019 07:42:18 20.4 C 27 %
2920 26-07-2019 07:54:17 20.7 C 27 %
2921 26-07-2019 08:06:18 20.8 C 26 %
2922 26-07-2019 08:18:18 21.1 C 26 %
2923 26-07-2019 08:30:18 21.6 C 25 %
2924 26-07-2019 08:42:18 22 C 23 %
2925 26-07-2019 08:54:17 22.6 C 20 %
Sensor: Nr:Datum:Temp:Feuchte:
Aussen-T/F 2926 26-07-2019 09:06:17 23.1 C 20 %
2927 26-07-2019 09:18:17 23.7 C 20 %
2928 26-07-2019 09:30:17 24.4 C 20 %
2929 26-07-2019 09:42:17 27.5 C 20 %
2930 26-07-2019 09:54:17 27.8 C 20 %
2931 26-07-2019 10:06:17 27.9 C 20 %
2932 26-07-2019 10:18:17 28.9 C 20 %
2933 26-07-2019 10:30:17 30 C 20 %
2934 26-07-2019 10:42:17 31.1 C 20 %
2935 26-07-2019 10:54:17 32.2 C 20 %
2936 26-07-2019 11:06:17 33.1 C 20 %
2937 26-07-2019 11:18:17 34.1 C 20 %
2938 26-07-2019 11:30:18 34.6 C 20 %
2939 26-07-2019 11:42:18 37 C 20 %
2940 26-07-2019 11:54:18 35.7 C 20 %
2941 26-07-2019 12:06:18 35 C 20 %
2942 26-07-2019 12:18:18 34.2 C 20 %
2943 26-07-2019 12:30:17 34.8 C 20 %
2944 26-07-2019 12:42:17 35.6 C 20 %
2945 26-07-2019 12:54:17 35.9 C 20 %
2946 26-07-2019 13:06:17 36.2 C 20 %
2947 26-07-2019 13:18:17 35.9 C 20 %
2948 26-07-2019 13:30:17 36.4 C 20 %
2949 26-07-2019 13:42:17 36.8 C 20 %
2950 26-07-2019 13:54:17 37.1 C 20 %
Sensor: Nr:Datum:Temp:Feuchte:
Aussen-T/F 2951 26-07-2019 14:06:17 37.3 C 20 %
2952 26-07-2019 14:18:18 37.3 C 20 %
2953 26-07-2019 14:30:18 38.2 C 20 %
2954 26-07-2019 14:42:18 38.5 C 20 %
2955 26-07-2019 14:54:17 38.7 C 20 %
2956 26-07-2019 15:06:18 39.6 C 20 %
2957 26-07-2019 15:18:17 37.7 C 20 %
2958 26-07-2019 15:30:18 37.4 C 20 %
2959 26-07-2019 15:42:18 36 C 20 %
2960 26-07-2019 15:54:17 35.9 C 20 %
2961 26-07-2019 16:06:18 36 C 20 %
2962 26-07-2019 16:18:18 36.1 C 20 %
2963 26-07-2019 16:30:18 35.8 C 20 %
2964 26-07-2019 16:42:18 35.2 C 20 %
2965 26-07-2019 16:54:17 34.7 C 20 %
2966 26-07-2019 17:06:17 33.8 C 20 %
2967 26-07-2019 17:18:18 32.9 C 20 %
2968 26-07-2019 17:30:18 32.2 C 20 %
2969 26-07-2019 17:42:18 31.8 C 20 %
2970 26-07-2019 17:54:18 31.9 C 20 %
2971 26-07-2019 18:06:18 31.7 C 20 %
2972 26-07-2019 18:18:18 31.4 C 20 %
2973 26-07-2019 18:30:18 31.1 C 20 %
2974 26-07-2019 18:42:18 30.4 C 20 %
2975 26-07-2019 18:54:17 30 C 20 %
Sensor: Nr:Datum:Temp:Feuchte:
Aussen-T/F 2976 26-07-2019 19:06:18 29.2 C 20 %
2977 26-07-2019 19:18:18 29 C 20 %
2978 26-07-2019 19:30:18 28.4 C 20 %
2979 26-07-2019 19:42:18 28.2 C 20 %
2980 26-07-2019 19:54:17 27.8 C 20 %
2981 26-07-2019 20:06:17 27.7 C 20 %
2982 26-07-2019 20:18:17 27.8 C 20 %
2983 26-07-2019 20:30:17 27.4 C 20 %
2984 26-07-2019 20:42:17 27.1 C 20 %
2985 26-07-2019 20:54:18 26.8 C 20 %
2986 26-07-2019 21:06:18 26.6 C 20 %
2987 26-07-2019 21:18:18 26.3 C 20 %
2988 26-07-2019 21:30:18 26.1 C 20 %
2989 26-07-2019 21:42:18 26 C 20 %
2990 26-07-2019 21:54:17 25.8 C 20 %
2991 26-07-2019 22:06:18 25.8 C 20 %
2992 26-07-2019 22:18:17 25.9 C 20 %
2993 26-07-2019 22:30:18 25.3 C 20 %
2994 26-07-2019 22:42:18 25.1 C 20 %
2995 26-07-2019 22:54:17 24.7 C 20 %
2996 26-07-2019 23:06:17 24.6 C 20 %
2997 26-07-2019 23:18:17 24.7 C 20 %
2998 26-07-2019 23:30:17 24.5 C 20 %
2999 26-07-2019 23:42:17 23.9 C 20 %
3000 26-07-2019 23:54:17 23.7 C 20 %
Sensor: Nr:Datum:Temp:Feuchte:
Aussen-T/F 3001 27-07-2019 00:06:17 23.7 C 20 %
3002 27-07-2019 00:18:17 23.3 C 20 %
3003 27-07-2019 00:30:18 22.8 C 20 %
3004 27-07-2019 00:42:18 23.1 C 20 %
3005 27-07-2019 00:54:18 22.9 C 20 %
3006 27-07-2019 01:06:18 22.7 C 20 %
3007 27-07-2019 01:18:18 22.7 C 20 %
3008 27-07-2019 01:30:18 22.9 C 20 %
3009 27-07-2019 01:42:18 22.5 C 20 %
3010 27-07-2019 01:54:17 22.3 C 20 %
3011 27-07-2019 02:06:18 22.3 C 20 %
3012 27-07-2019 02:18:18 22.6 C 20 %
3013 27-07-2019 02:30:18 22.5 C 20 %
3014 27-07-2019 02:42:18 22.5 C 21 %
3015 27-07-2019 02:54:18 22.6 C 20 %
3016 27-07-2019 03:06:18 22.7 C 20 %
3017 27-07-2019 03:18:17 23 C 20 %
3018 27-07-2019 03:30:17 23 C 20 %
3019 27-07-2019 03:42:17 22.4 C 20 %
3020 27-07-2019 03:54:18 20.5 C 36 %
3021 27-07-2019 04:06:17 20.1 C 40 %
3022 27-07-2019 04:18:17 20.1 C 41 %
3023 27-07-2019 04:30:18 20.1 C 40 %
3024 27-07-2019 04:42:18 20.2 C 40 %
3025 27-07-2019 04:54:18 20.4 C 38 %
Sensor: Nr:Datum:Temp:Feuchte:
Aussen-T/F 3026 27-07-2019 05:06:18 20.4 C 38 %
3027 27-07-2019 05:18:18 20.4 C 38 %
3028 27-07-2019 05:30:17 20.3 C 38 %
3029 27-07-2019 05:42:17 20.3 C 38 %
3030 27-07-2019 05:54:18 20.4 C 37 %
3031 27-07-2019 06:06:18 20.3 C 39 %
3032 27-07-2019 06:18:18 20.5 C 39 %
3033 27-07-2019 06:30:18 20.5 C 39 %
3034 27-07-2019 06:42:18 21 C 35 %
3035 27-07-2019 06:54:17 21.3 C 35 %
3036 27-07-2019 07:06:18 21.2 C 35 %
3037 27-07-2019 07:18:18 21.5 C 35 %
3038 27-07-2019 07:30:18 21.9 C 35 %
3039 27-07-2019 07:42:18 22 C 32 %
3040 27-07-2019 07:54:17 22.2 C 30 %
3041 27-07-2019 08:06:17 22.3 C 30 %
3042 27-07-2019 08:18:18 22.5 C 25 %
3043 27-07-2019 08:30:18 23.1 C 22 %
3044 27-07-2019 08:42:18 23.6 C 20 %
3045 27-07-2019 08:54:18 24.1 C 20 %
3046 27-07-2019 09:06:18 24.9 C 20 %
3047 27-07-2019 09:18:18 25.4 C 20 %
3048 27-07-2019 09:30:18 25.7 C 20 %
3049 27-07-2019 09:42:18 25.7 C 20 %
3050 27-07-2019 09:54:17 25.9 C 20 %
Sensor: Nr:Datum:Temp:Feuchte:
Aussen-T/F 3051 27-07-2019 10:06:18 25.8 C 20 %
3052 27-07-2019 10:18:18 23.8 C 24 %
3053 27-07-2019 10:30:18 23.2 C 32 %
3054 27-07-2019 10:42:18 23.3 C 38 %
3055 27-07-2019 10:54:17 23.6 C 37 %
3056 27-07-2019 11:06:18 24 C 35 %
3057 27-07-2019 11:18:18 24.1 C 34 %
3058 27-07-2019 11:30:18 23.9 C 35 %
3059 27-07-2019 11:42:18 22.9 C 33 %
3060 27-07-2019 11:54:17 22.2 C 35 %
3061 27-07-2019 12:06:18 22.6 C 37 %
3062 27-07-2019 12:18:18 23 C 32 %
3063 27-07-2019 12:30:18 24.5 C 27 %
3064 27-07-2019 12:42:18 25.5 C 20 %
3065 27-07-2019 12:54:17 26.2 C 20 %
3066 27-07-2019 13:06:17 26.7 C 20 %
3067 27-07-2019 13:18:17 26.9 C 20 %
3068 27-07-2019 13:30:18 26.8 C 20 %
3069 27-07-2019 13:42:18 26.9 C 20 %
3070 27-07-2019 13:54:18 26.7 C 20 %
3071 27-07-2019 14:06:18 26.3 C 20 %
3072 27-07-2019 14:18:17 26 C 20 %
3073 27-07-2019 14:30:18 25.7 C 20 %
3074 27-07-2019 14:42:18 25.8 C 20 %
3075 27-07-2019 14:54:17 25.7 C 20 %
Sensor: Nr:Datum:Temp:Feuchte:
Aussen-T/F 3076 27-07-2019 15:06:18 25 C 20 %
3077 27-07-2019 15:18:18 25 C 20 %
3078 27-07-2019 15:30:18 25.5 C 20 %
3079 27-07-2019 15:42:18 26.1 C 20 %
3080 27-07-2019 15:54:17 26.4 C 20 %
3081 27-07-2019 16:06:18 27.2 C 20 %
3082 27-07-2019 16:18:18 27.1 C 20 %
3083 27-07-2019 16:30:18 27.4 C 20 %
3084 27-07-2019 16:42:18 26.5 C 20 %
3085 27-07-2019 16:54:17 25.6 C 20 %
3086 27-07-2019 17:06:17 25 C 20 %
3087 27-07-2019 17:18:17 25 C 20 %
3088 27-07-2019 17:30:18 25 C 20 %
3089 27-07-2019 17:42:18 24.8 C 20 %
3090 27-07-2019 17:54:17 25.1 C 20 %
3091 27-07-2019 18:06:18 25.1 C 20 %
3092 27-07-2019 18:18:17 25.8 C 20 %
3093 27-07-2019 18:30:17 26 C 20 %
3094 27-07-2019 18:42:17 26 C 20 %
3095 27-07-2019 18:54:17 25.6 C 20 %
3096 27-07-2019 19:06:17 24.6 C 21 %
3097 27-07-2019 19:18:17 24.6 C 21 %
3098 27-07-2019 19:30:18 23.9 C 27 %
3099 27-07-2019 19:42:18 23.7 C 27 %
3100 27-07-2019 19:54:18 23.7 C 28 %
Sensor: Nr:Datum:Temp:Feuchte:
Aussen-T/F 3101 27-07-2019 20:06:17 23.4 C 29 %
3102 27-07-2019 20:18:17 23.4 C 30 %
3103 27-07-2019 20:30:17 23.3 C 28 %
3104 27-07-2019 20:42:17 23.3 C 28 %
3105 27-07-2019 20:54:18 22.9 C 30 %
3106 27-07-2019 21:06:18 22.7 C 30 %
3107 27-07-2019 21:18:18 22.6 C 30 %
3108 27-07-2019 21:30:18 22.4 C 31 %
3109 27-07-2019 21:42:18 22.1 C 31 %
3110 27-07-2019 21:54:18 22 C 31 %
3111 27-07-2019 22:06:18 21.8 C 33 %
3112 27-07-2019 22:18:18 21.7 C 33 %
3113 27-07-2019 22:30:18 21.7 C 34 %
3114 27-07-2019 22:42:18 21.6 C 34 %
3115 27-07-2019 22:54:17 21.6 C 35 %
3116 27-07-2019 23:06:17 21.5 C 35 %
3117 27-07-2019 23:18:17 21.5 C 35 %
3118 27-07-2019 23:30:17 21.4 C 35 %
3119 27-07-2019 23:42:17 21.3 C 35 %
3120 27-07-2019 23:54:17 21.2 C 36 %
3121 28-07-2019 00:06:18 21.2 C 36 %
3122 28-07-2019 00:18:18 21.1 C 36 %
3123 28-07-2019 00:30:18 21.2 C 36 %
3124 28-07-2019 00:42:18 21.1 C 36 %
3125 28-07-2019 00:54:18 21.1 C 36 %
Sensor: Nr:Datum:Temp:Feuchte:
Aussen-T/F 3126 28-07-2019 01:06:17 21 C 36 %
3127 28-07-2019 01:18:17 21 C 36 %
3128 28-07-2019 01:30:18 21 C 36 %
3129 28-07-2019 01:42:18 20.9 C 37 %
3130 28-07-2019 01:54:17 21 C 36 %
3131 28-07-2019 02:06:18 20.9 C 37 %
3132 28-07-2019 02:18:18 20.9 C 37 %
3133 28-07-2019 02:30:18 21 C 36 %
3134 28-07-2019 02:42:18 20.9 C 37 %
3135 28-07-2019 02:54:17 20.9 C 37 %
3136 28-07-2019 03:06:18 21 C 36 %
3137 28-07-2019 03:18:18 20.9 C 37 %
3138 28-07-2019 03:30:18 20.9 C 37 %
3139 28-07-2019 03:42:18 20.8 C 38 %
3140 28-07-2019 03:54:17 20.8 C 38 %
3141 28-07-2019 04:06:17 20.7 C 39 %
3142 28-07-2019 04:18:18 20.7 C 39 %
3143 28-07-2019 04:30:18 20.8 C 39 %
3144 28-07-2019 04:42:18 20.8 C 38 %
3145 28-07-2019 04:54:17 20.8 C 38 %
3146 28-07-2019 05:06:17 20.8 C 38 %
3147 28-07-2019 05:18:17 20.7 C 38 %
3148 28-07-2019 05:30:17 20.7 C 39 %
3149 28-07-2019 05:42:17 20.7 C 39 %
3150 28-07-2019 05:54:17 20.7 C 39 %
Sensor: Nr:Datum:Temp:Feuchte:
Aussen-T/F 3151 28-07-2019 06:06:17 20.7 C 39 %
3152 28-07-2019 06:18:17 20.7 C 39 %
3153 28-07-2019 06:30:18 20.8 C 38 %
3154 28-07-2019 06:42:18 20.8 C 38 %
3155 28-07-2019 06:54:17 20.9 C 37 %
3156 28-07-2019 07:06:18 21 C 36 %
3157 28-07-2019 07:18:18 21 C 35 %
3158 28-07-2019 07:30:17 21 C 35 %
3159 28-07-2019 07:42:17 21 C 34 %
3160 28-07-2019 07:54:17 21 C 34 %
3161 28-07-2019 08:06:17 21 C 34 %
3162 28-07-2019 08:18:17 20.9 C 35 %
3163 28-07-2019 08:30:17 21 C 34 %
3164 28-07-2019 08:42:17 21.1 C 34 %
3165 28-07-2019 08:54:17 21 C 35 %
3166 28-07-2019 09:06:17 20.9 C 36 %
3167 28-07-2019 09:18:17 20.8 C 36 %
3168 28-07-2019 09:30:17 20.7 C 36 %
3169 28-07-2019 09:42:17 20.5 C 37 %
3170 28-07-2019 09:54:17 20.4 C 38 %
3171 28-07-2019 10:06:17 20.4 C 39 %
3172 28-07-2019 10:18:17 20.4 C 39 %
3173 28-07-2019 10:30:17 20 C 41 %
3174 28-07-2019 10:42:17 20 C 41 %
3175 28-07-2019 10:54:17 19.9 C 41 %
Sensor: Nr:Datum:Temp:Feuchte:
Aussen-T/F 3176 28-07-2019 11:06:17 19.8 C 43 %
3177 28-07-2019 11:18:17 20 C 41 %
3178 28-07-2019 11:30:18 20.5 C 38 %
3179 28-07-2019 11:42:18 20.9 C 33 %
3180 28-07-2019 11:54:18 21 C 31 %
3181 28-07-2019 12:06:18 20.9 C 32 %
3182 28-07-2019 12:18:18 20.8 C 32 %
3183 28-07-2019 12:30:18 20.7 C 30 %
3184 28-07-2019 12:42:18 20.7 C 31 %
3185 28-07-2019 12:54:17 20.8 C 30 %
3186 28-07-2019 13:06:18 20.8 C 30 %
3187 28-07-2019 13:18:17 20.7 C 30 %
3188 28-07-2019 13:30:18 20.6 C 31 %
3189 28-07-2019 13:42:18 20.1 C 35 %
3190 28-07-2019 13:54:17 19.9 C 38 %
3191 28-07-2019 14:06:17 20 C 36 %
3192 28-07-2019 14:18:17 20 C 36 %
3193 28-07-2019 14:30:17 20.3 C 34 %
3194 28-07-2019 14:42:17 20.2 C 35 %
3195 28-07-2019 14:54:18 20.1 C 35 %
3196 28-07-2019 15:06:18 20.1 C 34 %
3197 28-07-2019 15:18:18 20 C 35 %
3198 28-07-2019 15:30:18 20.2 C 33 %
3199 28-07-2019 15:42:18 20.2 C 32 %
3200 28-07-2019 15:54:18 20.1 C 33 %
Sensor: Nr:Datum:Temp:Feuchte:
Aussen-T/F 3201 28-07-2019 16:06:18 20.1 C 32 %
3202 28-07-2019 16:18:17 20 C 32 %
3203 28-07-2019 16:30:17 19.8 C 35 %
3204 28-07-2019 16:42:17 19.8 C 35 %
3205 28-07-2019 16:54:18 19.9 C 34 %
3206 28-07-2019 17:06:18 19.5 C 35 %
3207 28-07-2019 17:18:18 19 C 40 %
3208 28-07-2019 17:30:18 19 C 40 %
3209 28-07-2019 17:42:18 18.8 C 41 %
3210 28-07-2019 17:54:17 19 C 43 %
3211 28-07-2019 18:06:17 19.1 C 41 %
3212 28-07-2019 18:18:17 19.1 C 37 %
3213 28-07-2019 18:30:17 19.1 C 38 %
3214 28-07-2019 18:42:17 18.9 C 38 %
3215 28-07-2019 18:54:18 18.8 C 40 %
3216 28-07-2019 19:06:18 18.8 C 42 %
3217 28-07-2019 19:18:18 18.7 C 42 %
3218 28-07-2019 19:30:17 18.7 C 43 %
3219 28-07-2019 19:42:17 18.6 C 43 %
3220 28-07-2019 19:54:18 18.4 C 42 %
3221 28-07-2019 20:06:18 18.3 C 43 %
3222 28-07-2019 20:18:17 18.3 C 43 %
3223 28-07-2019 20:30:17 18.1 C 43 %
3224 28-07-2019 20:42:17 18.1 C 44 %
3225 28-07-2019 20:54:17 17.9 C 45 %
Sensor: Nr:Datum:Temp:Feuchte:
Aussen-T/F 3226 28-07-2019 21:06:18 17.9 C 45 %
3227 28-07-2019 21:18:17 17.9 C 46 %
3228 28-07-2019 21:30:18 17.9 C 46 %
3229 28-07-2019 21:42:18 17.8 C 46 %
3230 28-07-2019 21:54:17 17.7 C 46 %
3231 28-07-2019 22:06:17 17.6 C 46 %
3232 28-07-2019 22:18:18 17.7 C 47 %
3233 28-07-2019 22:30:18 17.7 C 47 %
3234 28-07-2019 22:42:18 17.6 C 47 %
3235 28-07-2019 22:54:17 17.4 C 47 %
3236 28-07-2019 23:06:18 17.4 C 47 %
3237 28-07-2019 23:18:18 17.4 C 47 %
3238 28-07-2019 23:30:18 17.2 C 47 %
3239 28-07-2019 23:42:18 17.2 C 47 %
3240 28-07-2019 23:54:18 17.2 C 48 %
3241 29-07-2019 00:06:18 17.2 C 48 %
3242 29-07-2019 00:18:18 17.2 C 48 %
3243 29-07-2019 00:30:18 17.1 C 49 %
3244 29-07-2019 00:42:18 17 C 49 %
3245 29-07-2019 00:54:17 17 C 49 %
3246 29-07-2019 01:06:17 17 C 49 %
3247 29-07-2019 01:18:17 17 C 47 %
3248 29-07-2019 01:30:18 16.9 C 47 %
3249 29-07-2019 01:42:18 17 C 46 %
3250 29-07-2019 01:54:18 17 C 45 %
Sensor: Nr:Datum:Temp:Feuchte:
Aussen-T/F 3251 29-07-2019 02:06:18 16.9 C 46 %
3252 29-07-2019 02:18:17 16.9 C 45 %
3253 29-07-2019 02:30:18 16.9 C 45 %
3254 29-07-2019 02:42:18 16.9 C 45 %
3255 29-07-2019 02:54:17 16.9 C 45 %
3256 29-07-2019 03:06:18 16.8 C 45 %
3257 29-07-2019 03:18:18 16.8 C 45 %
3258 29-07-2019 03:30:18 16.8 C 45 %
3259 29-07-2019 03:42:18 16.8 C 45 %
3260 29-07-2019 03:54:18 16.9 C 45 %
3261 29-07-2019 04:06:17 16.8 C 44 %
3262 29-07-2019 04:18:17 16.9 C 44 %
3263 29-07-2019 04:30:17 16.8 C 44 %
3264 29-07-2019 04:42:17 16.8 C 44 %
3265 29-07-2019 04:54:17 16.8 C 44 %
3266 29-07-2019 05:06:17 16.8 C 44 %
3267 29-07-2019 05:18:18 16.7 C 44 %
3268 29-07-2019 05:30:18 16.7 C 44 %
3269 29-07-2019 05:42:18 16.7 C 44 %
3270 29-07-2019 05:54:17 16.7 C 44 %
3271 29-07-2019 06:06:17 16.7 C 44 %
3272 29-07-2019 06:18:17 16.6 C 43 %
3273 29-07-2019 06:30:17 16.7 C 45 %
3274 29-07-2019 06:42:18 16.9 C 44 %
3275 29-07-2019 06:54:18 16.9 C 44 %
Sensor: Nr:Datum:Temp:Feuchte:
Aussen-T/F 3276 29-07-2019 07:06:18 17 C 43 %
3277 29-07-2019 07:18:18 17.1 C 43 %
3278 29-07-2019 07:30:17 17.1 C 42 %
3279 29-07-2019 07:42:17 17.3 C 38 %
3280 29-07-2019 07:54:18 17.3 C 36 %
3281 29-07-2019 08:06:18 17.7 C 36 %
3282 29-07-2019 08:18:17 17.8 C 35 %
3283 29-07-2019 08:30:18 18.1 C 33 %
3284 29-07-2019 08:42:18 18.2 C 31 %
3285 29-07-2019 08:54:17 18.4 C 30 %
3286 29-07-2019 09:06:18 18.7 C 30 %
3287 29-07-2019 09:18:17 18.7 C 30 %
3288 29-07-2019 09:30:18 19.2 C 27 %
3289 29-07-2019 09:42:18 19.3 C 26 %
3290 29-07-2019 09:54:17 19.1 C 26 %
3291 29-07-2019 10:06:17 19.2 C 26 %
3292 29-07-2019 10:18:17 19.5 C 26 %
3293 29-07-2019 10:30:17 20.2 C 22 %
3294 29-07-2019 10:42:17 20.5 C 21 %
3295 29-07-2019 10:54:18 21 C 20 %
3296 29-07-2019 11:06:18 21.7 C 20 %
3297 29-07-2019 11:18:18 21.7 C 20 %
3298 29-07-2019 11:30:18 23.1 C 20 %
3299 29-07-2019 11:42:18 25.7 C 20 %
3300 29-07-2019 11:54:17 23.7 C 20 %
Sensor: Nr:Datum:Temp:Feuchte:
Aussen-T/F 3301 29-07-2019 12:06:18 22.7 C 20 %
3302 29-07-2019 12:18:18 22.9 C 20 %
3303 29-07-2019 12:30:18 22.9 C 20 %
3304 29-07-2019 12:42:18 23.1 C 20 %
3305 29-07-2019 12:54:18 23.2 C 20 %
3306 29-07-2019 13:06:18 23.5 C 20 %
3307 29-07-2019 13:18:18 23.9 C 20 %
3308 29-07-2019 13:30:18 24.1 C 20 %
3309 29-07-2019 13:42:18 24 C 20 %
3310 29-07-2019 13:54:17 24.4 C 20 %
3311 29-07-2019 14:06:18 24.7 C 20 %
3312 29-07-2019 14:18:18 25.3 C 20 %
3313 29-07-2019 14:30:18 25.8 C 20 %
3314 29-07-2019 14:42:18 26.1 C 20 %
3315 29-07-2019 14:54:17 25.5 C 20 %
3316 29-07-2019 15:06:18 26.2 C 20 %
3317 29-07-2019 15:18:18 26.6 C 20 %
3318 29-07-2019 15:30:18 26.9 C 20 %
3319 29-07-2019 15:42:18 26.8 C 20 %
3320 29-07-2019 15:54:17 27.3 C 20 %
3321 29-07-2019 16:06:17 27.7 C 20 %
3322 29-07-2019 16:18:17 27.4 C 20 %
3323 29-07-2019 16:30:18 27.9 C 20 %
3324 29-07-2019 16:42:18 28.3 C 20 %
3325 29-07-2019 16:54:18 27.6 C 20 %
Sensor: Nr:Datum:Temp:Feuchte:
Aussen-T/F 3326 29-07-2019 17:06:18 28.9 C 20 %
3327 29-07-2019 17:18:18 28.6 C 20 %
3328 29-07-2019 17:30:18 28.7 C 20 %
3329 29-07-2019 17:42:18 28.2 C 20 %
3330 29-07-2019 17:54:17 27.6 C 20 %
3331 29-07-2019 18:06:18 27.5 C 20 %
3332 29-07-2019 18:18:17 28.2 C 20 %
3333 29-07-2019 18:30:18 28 C 20 %
3334 29-07-2019 18:42:18 28.8 C 20 %
3335 29-07-2019 18:54:17 28.5 C 20 %
3336 29-07-2019 19:06:17 29.3 C 20 %
3337 29-07-2019 19:18:17 28.5 C 20 %
3338 29-07-2019 19:30:18 27.8 C 20 %
3339 29-07-2019 19:42:18 27.4 C 20 %
3340 29-07-2019 19:54:18 27 C 20 %
3341 29-07-2019 20:06:18 26.7 C 20 %
3342 29-07-2019 20:18:18 26.4 C 20 %
3343 29-07-2019 20:30:18 26.3 C 20 %
3344 29-07-2019 20:42:18 25.9 C 20 %
3345 29-07-2019 20:54:18 25.3 C 20 %
3346 29-07-2019 21:06:18 24.1 C 20 %
3347 29-07-2019 21:18:18 22.5 C 20 %
3348 29-07-2019 21:30:18 21.7 C 20 %
3349 29-07-2019 21:42:18 21.4 C 20 %
3350 29-07-2019 21:54:17 21.2 C 20 %
Sensor: Nr:Datum:Temp:Feuchte:
Aussen-T/F 3351 29-07-2019 22:06:18 20.9 C 20 %
3352 29-07-2019 22:18:18 20.7 C 20 %
3353 29-07-2019 22:30:18 20.5 C 20 %
3354 29-07-2019 22:42:18 20.4 C 20 %
3355 29-07-2019 22:54:17 20 C 20 %
3356 29-07-2019 23:06:17 19.7 C 20 %
3357 29-07-2019 23:18:17 19.4 C 21 %
3358 29-07-2019 23:30:17 19.1 C 21 %
3359 29-07-2019 23:42:18 18.6 C 24 %
3360 29-07-2019 23:54:18 18.3 C 25 %
3361 30-07-2019 00:06:18 18 C 26 %
3362 30-07-2019 00:18:18 17.9 C 27 %
3363 30-07-2019 00:30:18 17.9 C 27 %
3364 30-07-2019 00:42:18 17.6 C 28 %
3365 30-07-2019 00:54:17 17.8 C 29 %
3366 30-07-2019 01:06:17 17.9 C 29 %
3367 30-07-2019 01:18:18 17.7 C 28 %
3368 30-07-2019 01:30:18 17.3 C 29 %
3369 30-07-2019 01:42:18 17 C 30 %
3370 30-07-2019 01:54:17 16.8 C 31 %
3371 30-07-2019 02:06:18 16.7 C 32 %
3372 30-07-2019 02:18:18 16.6 C 32 %
3373 30-07-2019 02:30:18 16.5 C 32 %
3374 30-07-2019 02:42:18 16.3 C 32 %
3375 30-07-2019 02:54:17 16.2 C 33 %
Sensor: Nr:Datum:Temp:Feuchte:
Aussen-T/F 3376 30-07-2019 03:06:18 16 C 34 %
3377 30-07-2019 03:18:18 16 C 35 %
3378 30-07-2019 03:30:18 15.8 C 36 %
3379 30-07-2019 03:42:18 15.7 C 36 %
3380 30-07-2019 03:54:17 15.6 C 36 %
3381 30-07-2019 04:06:17 15.6 C 37 %
3382 30-07-2019 04:18:17 15.4 C 38 %
3383 30-07-2019 04:30:17 15.4 C 38 %
3384 30-07-2019 04:42:17 15.3 C 38 %
3385 30-07-2019 04:54:18 15.2 C 39 %
3386 30-07-2019 05:06:18 15 C 39 %
3387 30-07-2019 05:18:18 15 C 40 %
3388 30-07-2019 05:30:18 14.9 C 41 %
3389 30-07-2019 05:42:18 14.8 C 41 %
3390 30-07-2019 05:54:17 14.8 C 41 %
3391 30-07-2019 06:06:17 14.7 C 42 %
3392 30-07-2019 06:18:17 14.7 C 43 %
3393 30-07-2019 06:30:18 14.8 C 43 %
3394 30-07-2019 06:42:18 14.9 C 43 %
3395 30-07-2019 06:54:17 14.8 C 43 %
3396 30-07-2019 07:06:18 15 C 42 %
3397 30-07-2019 07:18:17 15 C 42 %
3398 30-07-2019 07:30:18 15.2 C 42 %
3399 30-07-2019 07:42:18 15.2 C 42 %
3400 30-07-2019 07:54:17 15.4 C 42 %
Sensor: Nr:Datum:Temp:Feuchte:
Aussen-T/F 3401 30-07-2019 08:06:18 16 C 42 %
3402 30-07-2019 08:18:17 16 C 40 %
3403 30-07-2019 08:30:18 16.3 C 41 %
3404 30-07-2019 08:42:18 16.6 C 40 %
3405 30-07-2019 08:54:17 17.1 C 38 %
3406 30-07-2019 09:06:18 17.3 C 36 %
3407 30-07-2019 09:18:18 17.6 C 36 %
3408 30-07-2019 09:30:18 17.6 C 36 %
3409 30-07-2019 09:42:18 21.1 C 25 %
3410 30-07-2019 09:54:17 21.1 C 20 %
3411 30-07-2019 10:06:17 20.4 C 25 %
3412 30-07-2019 10:18:17 20.8 C 25 %
3413 30-07-2019 10:30:18 21.3 C 22 %
3414 30-07-2019 10:42:18 21.4 C 22 %
3415 30-07-2019 10:54:17 24 C 20 %
3416 30-07-2019 11:06:17 26.2 C 20 %
3417 30-07-2019 11:18:17 27.1 C 20 %
3418 30-07-2019 11:30:17 29.9 C 20 %
3419 30-07-2019 11:42:17 28.3 C 20 %
3420 30-07-2019 11:54:18 27.8 C 20 %
3421 30-07-2019 12:06:18 27.3 C 20 %
3422 30-07-2019 12:18:18 27.4 C 20 %
3423 30-07-2019 12:30:18 27.5 C 20 %
3424 30-07-2019 12:42:18 27.6 C 20 %
3425 30-07-2019 12:54:18 27.9 C 20 %
Sensor: Nr:Datum:Temp:Feuchte:
Aussen-T/F 3426 30-07-2019 13:06:18 27.7 C 20 %
3427 30-07-2019 13:18:18 28.2 C 20 %
3428 30-07-2019 13:30:18 28.3 C 20 %
3429 30-07-2019 13:42:18 28.8 C 20 %
3430 30-07-2019 13:54:17 29.1 C 20 %
3431 30-07-2019 14:06:17 29.1 C 20 %
3432 30-07-2019 14:18:17 29.6 C 20 %
3433 30-07-2019 14:30:18 30.5 C 20 %
3434 30-07-2019 14:42:18 31.1 C 20 %
3435 30-07-2019 14:54:17 31.1 C 20 %
3436 30-07-2019 15:06:17 31.8 C 20 %
3437 30-07-2019 15:18:18 31.8 C 20 %
3438 30-07-2019 15:30:18 31.9 C 20 %
3439 30-07-2019 15:42:18 32.4 C 20 %
3440 30-07-2019 15:54:17 32.4 C 20 %
3441 30-07-2019 16:06:18 32.5 C 20 %
3442 30-07-2019 16:18:18 33.2 C 20 %
3443 30-07-2019 16:30:18 33.2 C 20 %
3444 30-07-2019 16:42:18 31.2 C 20 %
3445 30-07-2019 16:54:17 30.7 C 20 %
3446 30-07-2019 17:06:17 31.5 C 20 %
3447 30-07-2019 17:18:17 30.2 C 20 %
3448 30-07-2019 17:30:18 29.4 C 20 %
3449 30-07-2019 17:42:18 29.1 C 20 %
3450 30-07-2019 17:54:18 28.2 C 20 %
Sensor: Nr:Datum:Temp:Feuchte:
Aussen-T/F 3451 30-07-2019 18:06:18 27.9 C 20 %
3452 30-07-2019 18:18:17 27.4 C 20 %
3453 30-07-2019 18:30:18 27.1 C 20 %
3454 30-07-2019 18:42:18 26.7 C 20 %
3455 30-07-2019 18:54:17 26.3 C 20 %
3456 30-07-2019 19:06:18 26.2 C 20 %
3457 30-07-2019 19:18:18 26.1 C 20 %
3458 30-07-2019 19:30:18 25.5 C 20 %
3459 30-07-2019 19:42:18 24.8 C 20 %
3460 30-07-2019 19:54:17 24.9 C 20 %
3461 30-07-2019 20:06:17 25 C 20 %
3462 30-07-2019 20:18:17 24.9 C 20 %
3463 30-07-2019 20:30:17 25 C 20 %
3464 30-07-2019 20:42:18 25.1 C 20 %
3465 30-07-2019 20:54:17 24.8 C 20 %
3466 30-07-2019 21:06:17 24.1 C 20 %
3467 30-07-2019 21:18:17 23.9 C 20 %
3468 30-07-2019 21:30:17 23.3 C 20 %
3469 30-07-2019 21:42:17 23.1 C 20 %
3470 30-07-2019 21:54:17 22.5 C 20 %
3471 30-07-2019 22:06:18 22.4 C 20 %
3472 30-07-2019 22:18:18 22.4 C 20 %
3473 30-07-2019 22:30:18 22.1 C 20 %
3474 30-07-2019 22:42:18 22 C 20 %
3475 30-07-2019 22:54:17 22 C 20 %
Sensor: Nr:Datum:Temp:Feuchte:
Aussen-T/F 3476 30-07-2019 23:06:18 21.2 C 20 %
3477 30-07-2019 23:18:18 21.1 C 20 %
3478 30-07-2019 23:30:18 20.8 C 20 %
3479 30-07-2019 23:42:18 20.7 C 20 %
3480 30-07-2019 23:54:18 20.7 C 20 %
3481 31-07-2019 00:06:18 20.6 C 20 %
3482 31-07-2019 00:18:18 20.6 C 20 %
3483 31-07-2019 00:30:18 20.4 C 20 %
3484 31-07-2019 00:42:18 20.5 C 20 %
3485 31-07-2019 00:54:17 20.6 C 20 %
3486 31-07-2019 01:06:18 20.7 C 20 %
3487 31-07-2019 01:18:18 20.8 C 20 %
3488 31-07-2019 01:30:18 20.6 C 20 %
3489 31-07-2019 01:42:18 20.7 C 20 %
3490 31-07-2019 01:54:17 20.4 C 20 %
3491 31-07-2019 02:06:18 19.7 C 20 %
3492 31-07-2019 02:18:17 19.7 C 20 %
3493 31-07-2019 02:30:17 19.6 C 20 %
3494 31-07-2019 02:42:17 19.5 C 20 %
3495 31-07-2019 02:54:18 18.9 C 20 %
3496 31-07-2019 03:06:18 18.7 C 20 %
3497 31-07-2019 03:18:17 18.3 C 20 %
3498 31-07-2019 03:30:17 18.3 C 22 %
3499 31-07-2019 03:42:17 18.5 C 22 %
3500 31-07-2019 03:54:17 18.5 C 22 %
Sensor: Nr:Datum:Temp:Feuchte:
Aussen-T/F 3501 31-07-2019 04:06:17 18.7 C 22 %
3502 31-07-2019 04:18:18 19.2 C 20 %
3503 31-07-2019 04:30:18 19.1 C 20 %
3504 31-07-2019 04:42:18 19.1 C 20 %
3505 31-07-2019 04:54:17 18.7 C 20 %
3506 31-07-2019 05:06:18 17.7 C 23 %
3507 31-07-2019 05:18:17 17.6 C 23 %
3508 31-07-2019 05:30:18 17.6 C 23 %
3509 31-07-2019 05:42:18 17.9 C 24 %
3510 31-07-2019 05:54:17 17.9 C 24 %
3511 31-07-2019 06:06:17 18 C 23 %
3512 31-07-2019 06:18:17 18 C 22 %
3513 31-07-2019 06:30:17 17.7 C 22 %
3514 31-07-2019 06:42:17 17.3 C 24 %
3515 31-07-2019 06:54:17 17.3 C 25 %
3516 31-07-2019 07:06:18 17.2 C 25 %
3517 31-07-2019 07:18:18 17.4 C 25 %
3518 31-07-2019 07:30:18 17.6 C 25 %
3519 31-07-2019 07:42:18 17.8 C 23 %
3520 31-07-2019 07:54:17 18 C 22 %
3521 31-07-2019 08:06:18 18.2 C 21 %
3522 31-07-2019 08:18:17 18.4 C 22 %
3523 31-07-2019 08:30:18 18.9 C 20 %
3524 31-07-2019 08:42:18 19.4 C 20 %
3525 31-07-2019 08:54:18 19.7 C 20 %
Sensor: Nr:Datum:Temp:Feuchte:
Aussen-T/F 3526 31-07-2019 09:06:18 19.8 C 20 %
3527 31-07-2019 09:18:18 20.2 C 20 %
3528 31-07-2019 09:30:18 20.7 C 20 %
3529 31-07-2019 09:42:18 21.9 C 20 %
3530 31-07-2019 09:54:17 21.5 C 20 %
3531 31-07-2019 10:06:18 21.8 C 20 %
3532 31-07-2019 10:18:18 22.2 C 20 %
3533 31-07-2019 10:30:18 22.2 C 20 %
3534 31-07-2019 10:42:18 22.6 C 20 %
3535 31-07-2019 10:54:18 22.1 C 20 %
3536 31-07-2019 11:06:18 21.6 C 20 %
3537 31-07-2019 11:18:18 21.7 C 20 %
3538 31-07-2019 11:30:18 24.4 C 20 %
3539 31-07-2019 11:42:18 24.8 C 20 %
3540 31-07-2019 11:54:17 23.5 C 20 %
3541 31-07-2019 12:06:18 23.1 C 20 %
3542 31-07-2019 12:18:18 23.6 C 20 %
3543 31-07-2019 12:30:18 23.6 C 20 %
3544 31-07-2019 12:42:18 23.5 C 20 %
3545 31-07-2019 12:54:17 23.5 C 20 %
3546 31-07-2019 13:06:17 23.6 C 20 %
3547 31-07-2019 13:18:17 24 C 20 %
3548 31-07-2019 13:30:18 24.8 C 20 %
3549 31-07-2019 13:42:18 24.7 C 20 %
3550 31-07-2019 13:54:18 24.7 C 20 %
Sensor: Nr:Datum:Temp:Feuchte:
Aussen-T/F 3551 31-07-2019 14:06:17 24.9 C 20 %
3552 31-07-2019 14:18:17 25.4 C 20 %
3553 31-07-2019 14:30:17 25.9 C 20 %
3554 31-07-2019 14:42:17 26.4 C 20 %
3555 31-07-2019 14:54:18 26.6 C 20 %
3556 31-07-2019 15:06:18 26.7 C 20 %
3557 31-07-2019 15:18:18 27 C 20 %
3558 31-07-2019 15:30:18 27.6 C 20 %
3559 31-07-2019 15:42:18 26.7 C 20 %
3560 31-07-2019 15:54:18 26.3 C 20 %
3561 31-07-2019 16:06:18 27.3 C 20 %
3562 31-07-2019 16:18:18 25.5 C 20 %
3563 31-07-2019 16:30:18 25.4 C 20 %
3564 31-07-2019 16:42:18 25.2 C 20 %
3565 31-07-2019 16:54:17 25.7 C 20 %
3566 31-07-2019 17:06:18 26.5 C 20 %
3567 31-07-2019 17:18:17 26.7 C 20 %
3568 31-07-2019 17:30:18 25.9 C 20 %
3569 31-07-2019 17:42:18 26.1 C 20 %
3570 31-07-2019 17:54:18 25.6 C 20 %
3571 31-07-2019 18:06:17 25 C 20 %
3572 31-07-2019 18:18:17 24.5 C 20 %
3573 31-07-2019 18:30:18 24.2 C 20 %
3574 31-07-2019 18:42:18 24.2 C 20 %
3575 31-07-2019 18:54:17 24.3 C 20 %
Sensor: Nr:Datum:Temp:Feuchte:
Aussen-T/F 3576 31-07-2019 19:06:18 24.4 C 20 %
3577 31-07-2019 19:18:18 24.2 C 20 %
3578 31-07-2019 19:30:18 23.4 C 20 %
3579 31-07-2019 19:42:18 23.5 C 20 %
3580 31-07-2019 19:54:17 23.3 C 20 %
3581 31-07-2019 20:06:17 22.8 C 20 %
3582 31-07-2019 20:18:17 22.6 C 20 %
3583 31-07-2019 20:30:17 22.3 C 20 %
3584 31-07-2019 20:42:17 21.4 C 20 %
3585 31-07-2019 20:54:17 20.7 C 20 %
3586 31-07-2019 21:06:18 20.4 C 20 %
3587 31-07-2019 21:18:18 19.8 C 20 %
3588 31-07-2019 21:30:18 19.3 C 20 %
3589 31-07-2019 21:42:18 18.9 C 20 %
3590 31-07-2019 21:54:18 18.7 C 20 %
3591 31-07-2019 22:06:18 18.5 C 20 %
3592 31-07-2019 22:18:18 18.9 C 20 %
3593 31-07-2019 22:30:18 19.1 C 20 %
3594 31-07-2019 22:42:18 19.2 C 20 %
3595 31-07-2019 22:54:17 19.5 C 20 %
3596 31-07-2019 23:06:18 19.4 C 20 %
3597 31-07-2019 23:18:18 19 C 20 %
3598 31-07-2019 23:30:18 18.3 C 20 %
3599 31-07-2019 23:42:18 17.5 C 20 %
3600 31-07-2019 23:54:18 17.3 C 20 %
Sensor: Nr:Datum:Temp:Feuchte:
Aussen-T/F 3601 01-08-2019 00:06:18 16.9 C 20 %
3602 01-08-2019 00:18:18 17 C 20 %
3603 01-08-2019 00:30:18 16.8 C 20 %
3604 01-08-2019 00:42:18 16.4 C 20 %
3605 01-08-2019 00:54:17 16 C 20 %
3606 01-08-2019 01:06:18 15.5 C 20 %
3607 01-08-2019 01:18:18 15.4 C 20 %
3608 01-08-2019 01:30:18 15.3 C 20 %
3609 01-08-2019 01:42:18 15.1 C 20 %
3610 01-08-2019 01:54:17 15.1 C 20 %
3611 01-08-2019 02:06:17 14.8 C 22 %
3612 01-08-2019 02:18:18 14.7 C 24 %
3613 01-08-2019 02:30:18 14.7 C 25 %
3614 01-08-2019 02:42:18 14.8 C 25 %
3615 01-08-2019 02:54:18 14.8 C 25 %
3616 01-08-2019 03:06:18 14.8 C 25 %
3617 01-08-2019 03:18:17 14.8 C 25 %
3618 01-08-2019 03:30:18 14 C 26 %
3619 01-08-2019 03:42:18 13.5 C 28 %
3620 01-08-2019 03:54:17 13.4 C 30 %
3621 01-08-2019 04:06:18 13.1 C 30 %
3622 01-08-2019 04:18:18 13.1 C 32 %
3623 01-08-2019 04:30:18 13 C 32 %
3624 01-08-2019 04:42:18 13.1 C 32 %
3625 01-08-2019 04:54:18 13 C 33 %
Sensor: Nr:Datum:Temp:Feuchte:
Aussen-T/F 3626 01-08-2019 05:06:18 12.8 C 34 %
3627 01-08-2019 05:18:18 12.7 C 35 %
3628 01-08-2019 05:30:18 12.7 C 35 %
3629 01-08-2019 05:42:18 12.4 C 34 %
3630 01-08-2019 05:54:17 12.4 C 36 %
3631 01-08-2019 06:06:18 12.4 C 36 %
3632 01-08-2019 06:18:17 12.1 C 37 %
3633 01-08-2019 06:30:18 12.2 C 38 %
3634 01-08-2019 06:42:18 12.2 C 38 %
3635 01-08-2019 06:54:18 12.3 C 38 %
3636 01-08-2019 07:06:18 12.3 C 37 %
3637 01-08-2019 07:18:18 12.5 C 38 %
3638 01-08-2019 07:30:18 12.8 C 38 %
3639 01-08-2019 07:42:18 13.2 C 38 %
3640 01-08-2019 07:54:17 14.8 C 27 %
3641 01-08-2019 08:06:18 15.5 C 23 %
3642 01-08-2019 08:18:17 16 C 21 %
3643 01-08-2019 08:30:17 16.2 C 20 %
3644 01-08-2019 08:42:17 16.7 C 20 %
3645 01-08-2019 08:54:18 17.1 C 20 %
3646 01-08-2019 09:06:18 18.1 C 20 %
3647 01-08-2019 09:18:17 18.3 C 20 %
3648 01-08-2019 09:30:17 18.3 C 20 %
3649 01-08-2019 09:42:17 19.6 C 20 %
3650 01-08-2019 09:54:17 20.9 C 20 %
Sensor: Nr:Datum:Temp:Feuchte:
Aussen-T/F 3651 01-08-2019 10:06:17 20.9 C 20 %
3652 01-08-2019 10:18:17 21.3 C 20 %
3653 01-08-2019 10:30:17 21.2 C 20 %
3654 01-08-2019 10:42:17 21.7 C 20 %
3655 01-08-2019 10:54:17 21.9 C 20 %
3656 01-08-2019 11:06:17 22.1 C 20 %
3657 01-08-2019 11:18:18 22.9 C 20 %
3658 01-08-2019 11:30:18 23.6 C 20 %
3659 01-08-2019 11:42:18 23.6 C 20 %
3660 01-08-2019 11:54:17 23.8 C 20 %
3661 01-08-2019 12:06:17 23.6 C 20 %
3662 01-08-2019 12:18:17 23.6 C 20 %
3663 01-08-2019 12:30:17 23.5 C 20 %
3664 01-08-2019 12:42:17 22.4 C 20 %
3665 01-08-2019 12:54:18 22.7 C 20 %
3666 01-08-2019 13:06:17 24 C 20 %
3667 01-08-2019 13:18:18 23.8 C 20 %
3668 01-08-2019 13:30:18 23.6 C 20 %
3669 01-08-2019 13:42:18 24.3 C 20 %
3670 01-08-2019 13:54:17 24.4 C 20 %
3671 01-08-2019 14:06:17 24.8 C 20 %
3672 01-08-2019 14:18:17 24.5 C 20 %
3673 01-08-2019 14:30:17 24.5 C 20 %
3674 01-08-2019 14:42:17 24.9 C 20 %
3675 01-08-2019 14:54:17 24.9 C 20 %
Sensor: Nr:Datum:Temp:Feuchte:
Aussen-T/F 3676 01-08-2019 15:06:18 25.2 C 20 %
3677 01-08-2019 15:18:18 25.5 C 20 %
3678 01-08-2019 15:30:18 25.2 C 20 %
3679 01-08-2019 15:42:18 24.9 C 20 %
3680 01-08-2019 15:54:17 24.5 C 20 %
3681 01-08-2019 16:06:18 24.5 C 20 %
3682 01-08-2019 16:18:18 24.7 C 20 %
3683 01-08-2019 16:30:18 25.1 C 20 %
3684 01-08-2019 16:42:18 25.3 C 20 %
3685 01-08-2019 16:54:18 25.5 C 20 %
3686 01-08-2019 17:06:17 25.6 C 20 %
3687 01-08-2019 17:18:18 25.3 C 20 %
3688 01-08-2019 17:30:17 25.3 C 20 %
3689 01-08-2019 17:42:17 26.4 C 20 %
3690 01-08-2019 17:54:18 26.9 C 20 %
3691 01-08-2019 18:06:18 27.5 C 20 %
3692 01-08-2019 18:18:17 26.7 C 20 %
3693 01-08-2019 18:30:18 25.9 C 20 %
3694 01-08-2019 18:42:18 26.6 C 20 %
3695 01-08-2019 18:54:17 27.4 C 20 %
3696 01-08-2019 19:06:18 27.5 C 20 %
3697 01-08-2019 19:18:18 26.8 C 20 %
3698 01-08-2019 19:30:18 26.3 C 20 %
3699 01-08-2019 19:42:18 25.8 C 20 %
3700 01-08-2019 19:54:18 25.4 C 20 %
Sensor: Nr:Datum:Temp:Feuchte:
Aussen-T/F 3701 01-08-2019 20:06:18 25.1 C 20 %
3702 01-08-2019 20:18:18 24.5 C 20 %
3703 01-08-2019 20:30:17 24.1 C 20 %
3704 01-08-2019 20:42:17 23.1 C 20 %
3705 01-08-2019 20:54:17 21.9 C 20 %
3706 01-08-2019 21:06:18 21.3 C 20 %
3707 01-08-2019 21:18:18 20.9 C 20 %
3708 01-08-2019 21:30:18 20.5 C 20 %
3709 01-08-2019 21:42:18 20.4 C 20 %
3710 01-08-2019 21:54:18 20.2 C 20 %
3711 01-08-2019 22:06:18 19.9 C 20 %
3712 01-08-2019 22:18:18 19.7 C 20 %
3713 01-08-2019 22:30:18 19.2 C 20 %
3714 01-08-2019 22:42:18 19.6 C 20 %
3715 01-08-2019 22:54:17 19.6 C 20 %
3716 01-08-2019 23:06:18 19.3 C 20 %
3717 01-08-2019 23:18:17 19.3 C 20 %
3718 01-08-2019 23:30:18 19.2 C 20 %
3719 01-08-2019 23:42:18 19.2 C 20 %
3720 01-08-2019 23:54:17 19.2 C 20 %
3721 02-08-2019 00:06:18 19 C 20 %
3722 02-08-2019 00:18:18 18.9 C 20 %
3723 02-08-2019 00:30:18 18.8 C 20 %
3724 02-08-2019 00:42:18 18.7 C 20 %
3725 02-08-2019 00:54:17 18.8 C 20 %
Sensor: Nr:Datum:Temp:Feuchte:
Aussen-T/F 3726 02-08-2019 01:06:18 18.6 C 20 %
3727 02-08-2019 01:18:18 18.5 C 20 %
3728 02-08-2019 01:30:18 18.4 C 20 %
3729 02-08-2019 01:42:18 18.3 C 20 %
3730 02-08-2019 01:54:17 18.2 C 20 %
3731 02-08-2019 02:06:18 18 C 21 %
3732 02-08-2019 02:18:17 18.1 C 21 %
3733 02-08-2019 02:30:18 17.9 C 21 %
3734 02-08-2019 02:42:18 17.6 C 22 %
3735 02-08-2019 02:54:18 17.4 C 23 %
3736 02-08-2019 03:06:17 17.2 C 24 %
3737 02-08-2019 03:18:17 16.8 C 25 %
3738 02-08-2019 03:30:18 16.7 C 26 %
3739 02-08-2019 03:42:18 16.6 C 26 %
3740 02-08-2019 03:54:18 16.4 C 27 %
3741 02-08-2019 04:06:17 16.4 C 28 %
3742 02-08-2019 04:18:17 16.2 C 28 %
3743 02-08-2019 04:30:18 16.2 C 29 %
3744 02-08-2019 04:42:18 16.3 C 30 %
3745 02-08-2019 04:54:18 16.4 C 30 %
3746 02-08-2019 05:06:17 16.3 C 29 %
3747 02-08-2019 05:18:18 16.3 C 30 %
3748 02-08-2019 05:30:18 16.2 C 30 %
3749 02-08-2019 05:42:18 16.3 C 30 %
3750 02-08-2019 05:54:18 16.4 C 30 %
Sensor: Nr:Datum:Temp:Feuchte:
Aussen-T/F 3751 02-08-2019 06:06:18 16.3 C 30 %
3752 02-08-2019 06:18:17 16.3 C 31 %
3753 02-08-2019 06:30:18 16.6 C 31 %
3754 02-08-2019 06:42:18 16.7 C 31 %
3755 02-08-2019 06:54:18 16.9 C 31 %
3756 02-08-2019 07:06:18 17.1 C 30 %
3757 02-08-2019 07:18:17 17.4 C 29 %
3758 02-08-2019 07:30:17 17.6 C 28 %
3759 02-08-2019 07:42:17 17.8 C 27 %
3760 02-08-2019 07:54:17 18 C 26 %
3761 02-08-2019 08:06:17 18.2 C 25 %
3762 02-08-2019 08:18:17 18.4 C 26 %
3763 02-08-2019 08:30:17 18.7 C 25 %
3764 02-08-2019 08:42:17 18.8 C 25 %
3765 02-08-2019 08:54:18 18.9 C 25 %
3766 02-08-2019 09:06:17 19.3 C 20 %
3767 02-08-2019 09:18:17 19.8 C 20 %
3768 02-08-2019 09:30:17 20.4 C 20 %
3769 02-08-2019 09:42:18 21.1 C 20 %
3770 02-08-2019 09:54:17 21 C 20 %
3771 02-08-2019 10:06:17 20.9 C 20 %
3772 02-08-2019 10:18:17 21.5 C 20 %
3773 02-08-2019 10:30:17 21.6 C 20 %
3774 02-08-2019 10:42:17 21.9 C 20 %
3775 02-08-2019 10:54:18 23 C 20 %
Sensor: Nr:Datum:Temp:Feuchte:
Aussen-T/F 3776 02-08-2019 11:06:17 23.6 C 20 %
3777 02-08-2019 11:18:18 24 C 20 %
3778 02-08-2019 11:30:17 24.6 C 20 %
3779 02-08-2019 11:42:17 24 C 20 %
3780 02-08-2019 11:54:17 23.1 C 20 %
3781 02-08-2019 12:06:17 20.6 C 24 %
3782 02-08-2019 12:18:17 19.8 C 30 %
3783 02-08-2019 12:30:17 20 C 27 %
3784 02-08-2019 12:42:17 20.2 C 25 %
3785 02-08-2019 12:54:18 20.7 C 20 %
3786 02-08-2019 13:06:17 21.2 C 20 %
3787 02-08-2019 13:18:18 21.5 C 20 %
3788 02-08-2019 13:30:17 22.5 C 20 %
3789 02-08-2019 13:42:17 22.5 C 20 %
3790 02-08-2019 13:54:17 22.7 C 20 %
3791 02-08-2019 14:06:17 23.3 C 20 %
3792 02-08-2019 14:18:17 23.7 C 20 %
3793 02-08-2019 14:30:17 24.3 C 20 %
3794 02-08-2019 14:42:17 25.3 C 20 %
3795 02-08-2019 14:54:17 26 C 20 %
3796 02-08-2019 15:06:17 25.7 C 20 %
3797 02-08-2019 15:18:17 25.9 C 20 %
3798 02-08-2019 15:30:17 24.9 C 20 %
3799 02-08-2019 15:42:17 25.1 C 20 %
3800 02-08-2019 15:54:17 26 C 20 %
Sensor: Nr:Datum:Temp:Feuchte:
Aussen-T/F 3801 02-08-2019 16:06:17 26.1 C 20 %
3802 02-08-2019 16:18:17 27.2 C 20 %
3803 02-08-2019 16:30:18 27.1 C 20 %
3804 02-08-2019 16:42:18 25.5 C 20 %
3805 02-08-2019 16:54:17 25.7 C 20 %
3806 02-08-2019 17:06:18 27.5 C 20 %
3807 02-08-2019 17:18:17 27.7 C 20 %
3808 02-08-2019 17:30:18 28.1 C 20 %
3809 02-08-2019 17:42:18 26.4 C 20 %
3810 02-08-2019 17:54:17 26.2 C 20 %
3811 02-08-2019 18:06:17 26.3 C 20 %
3812 02-08-2019 18:18:17 25.9 C 20 %
3813 02-08-2019 18:30:17 24.4 C 20 %
3814 02-08-2019 18:42:17 24.9 C 20 %
3815 02-08-2019 18:54:18 25 C 20 %
3816 02-08-2019 19:06:17 24.4 C 20 %
3817 02-08-2019 19:18:17 24.2 C 20 %
3818 02-08-2019 19:30:17 23.9 C 20 %
3819 02-08-2019 19:42:17 23.8 C 20 %
3820 02-08-2019 19:54:18 23.4 C 20 %
3821 02-08-2019 20:06:17 23 C 20 %
3822 02-08-2019 20:18:17 22.6 C 20 %
3823 02-08-2019 20:30:17 22.8 C 20 %
3824 02-08-2019 20:42:17 22.4 C 20 %
3825 02-08-2019 20:54:17 21.7 C 20 %
Sensor: Nr:Datum:Temp:Feuchte:
Aussen-T/F 3826 02-08-2019 21:06:17 21.1 C 20 %
3827 02-08-2019 21:18:17 20.7 C 20 %
3828 02-08-2019 21:30:17 21.6 C 20 %
3829 02-08-2019 21:42:17 21.7 C 20 %
3830 02-08-2019 21:54:18 21.7 C 20 %
3831 02-08-2019 22:06:17 20.9 C 20 %
3832 02-08-2019 22:18:17 21.1 C 20 %
3833 02-08-2019 22:30:17 21.2 C 20 %
3834 02-08-2019 22:42:17 21.2 C 20 %
3835 02-08-2019 22:54:17 21.2 C 20 %
3836 02-08-2019 23:06:17 19.5 C 20 %
3837 02-08-2019 23:18:17 18.2 C 31 %
3838 02-08-2019 23:30:17 17.5 C 37 %
3839 02-08-2019 23:42:17 17.1 C 39 %
3840 02-08-2019 23:54:17 17.1 C 39 %
3841 03-08-2019 00:06:17 17.4 C 36 %
3842 03-08-2019 00:18:18 17.7 C 35 %
3843 03-08-2019 00:30:17 18.6 C 26 %
3844 03-08-2019 00:42:17 18.6 C 26 %
3845 03-08-2019 00:54:18 18.6 C 26 %
3846 03-08-2019 01:06:17 18.6 C 26 %
3847 03-08-2019 01:19:17 18.6 C 26 %
3848 03-08-2019 01:30:17 18.5 C 27 %
3849 03-08-2019 01:42:17 18.4 C 28 %
3850 03-08-2019 01:54:17 18.4 C 30 %
Sensor: Nr:Datum:Temp:Feuchte:
Aussen-T/F 3851 03-08-2019 02:06:17 18.4 C 30 %
3852 03-08-2019 02:18:17 18.5 C 30 %
3853 03-08-2019 02:30:17 18.5 C 30 %
3854 03-08-2019 02:42:17 18.4 C 31 %
3855 03-08-2019 02:54:17 18.3 C 31 %
3856 03-08-2019 03:06:17 18.3 C 31 %
3857 03-08-2019 03:18:18 18.3 C 32 %
3858 03-08-2019 03:30:17 18.3 C 33 %
3859 03-08-2019 03:42:17 18.3 C 33 %
3860 03-08-2019 03:54:17 18.3 C 34 %
3861 03-08-2019 04:06:17 18.2 C 35 %
3862 03-08-2019 04:19:17 18.3 C 35 %
3863 03-08-2019 04:30:17 18.3 C 35 %
3864 03-08-2019 04:42:17 18.3 C 35 %
3865 03-08-2019 04:54:18 18.2 C 35 %
3866 03-08-2019 05:06:17 18.3 C 35 %
3867 03-08-2019 05:18:18 18.3 C 35 %
3868 03-08-2019 05:30:17 18.2 C 35 %
3869 03-08-2019 05:42:17 18.2 C 35 %
3870 03-08-2019 05:55:17 18.1 C 35 %
3871 03-08-2019 06:06:18 18 C 35 %
3872 03-08-2019 06:18:17 18.1 C 35 %
3873 03-08-2019 06:30:18 17.9 C 35 %
3874 03-08-2019 06:42:18 18 C 35 %
3875 03-08-2019 06:54:17 18 C 34 %
Sensor: Nr:Datum:Temp:Feuchte:
Aussen-T/F 3876 03-08-2019 07:07:17 18 C 33 %
3877 03-08-2019 07:18:17 18 C 31 %
3878 03-08-2019 07:31:17 18.1 C 31 %
3879 03-08-2019 07:43:17 18.1 C 30 %
3880 03-08-2019 07:54:18 17.9 C 31 %
3881 03-08-2019 08:06:17 18 C 31 %
3882 03-08-2019 08:19:17 18 C 31 %
3883 03-08-2019 08:30:17 18.3 C 30 %
3884 03-08-2019 08:42:17 18.4 C 28 %
3885 03-08-2019 08:54:17 18.4 C 26 %
3886 03-08-2019 09:07:17 18.5 C 24 %
3887 03-08-2019 09:18:17 18.9 C 22 %
3888 03-08-2019 09:31:17 18.9 C 21 %
3889 03-08-2019 09:43:17 19.2 C 20 %
3890 03-08-2019 09:54:17 19.3 C 20 %
3891 03-08-2019 10:07:17 19.8 C 20 %
3892 03-08-2019 10:18:17 20.5 C 20 %
3893 03-08-2019 10:31:17 20 C 20 %
3894 03-08-2019 10:43:17 20.3 C 20 %
3895 03-08-2019 10:54:17 20.5 C 20 %
3896 03-08-2019 11:06:18 20.5 C 20 %
3897 03-08-2019 11:19:17 20.7 C 20 %
3898 03-08-2019 11:31:17 21.8 C 20 %
3899 03-08-2019 11:43:17 22.7 C 20 %
3900 03-08-2019 11:54:18 22 C 20 %
Sensor: Nr:Datum:Temp:Feuchte:
Aussen-T/F 3901 03-08-2019 12:07:17 22.1 C 20 %
3902 03-08-2019 12:18:17 22.5 C 20 %
3903 03-08-2019 12:31:17 22.8 C 20 %
3904 03-08-2019 12:43:17 22.6 C 20 %
3905 03-08-2019 12:54:18 22.8 C 20 %
3906 03-08-2019 13:07:17 22.6 C 20 %
3907 03-08-2019 13:19:17 23 C 20 %
3908 03-08-2019 13:31:17 23.1 C 20 %
3909 03-08-2019 13:43:17 22.7 C 20 %
3910 03-08-2019 13:54:18 22.2 C 20 %
3911 03-08-2019 14:07:17 22.1 C 20 %
3912 03-08-2019 14:19:17 22 C 20 %
3913 03-08-2019 14:30:18 23.2 C 20 %
3914 03-08-2019 14:42:18 23.9 C 20 %
3915 03-08-2019 14:55:17 24.6 C 20 %
3916 03-08-2019 15:06:18 24 C 20 %
3917 03-08-2019 15:19:17 24.8 C 20 %
3918 03-08-2019 15:31:17 24.2 C 20 %
3919 03-08-2019 15:43:17 24.9 C 20 %
3920 03-08-2019 15:55:17 25.1 C 20 %
3921 03-08-2019 16:06:18 25.8 C 20 %
3922 03-08-2019 16:19:17 25.9 C 20 %
3923 03-08-2019 16:30:18 26 C 20 %
3924 03-08-2019 16:42:18 26.4 C 20 %
3925 03-08-2019 16:55:17 26.1 C 20 %
Sensor: Nr:Datum:Temp:Feuchte:
Aussen-T/F 3926 03-08-2019 17:06:18 26.5 C 20 %
3927 03-08-2019 17:19:17 25.8 C 20 %
3928 03-08-2019 17:30:18 25.8 C 20 %
3929 03-08-2019 17:42:18 26.3 C 20 %
3930 03-08-2019 17:55:17 25.8 C 20 %
3931 03-08-2019 18:07:17 26.3 C 20 %
3932 03-08-2019 18:19:18 26.5 C 20 %
3933 03-08-2019 18:31:17 25.5 C 20 %
3934 03-08-2019 18:43:17 25.2 C 20 %
3935 03-08-2019 18:55:17 26.1 C 20 %
3936 03-08-2019 19:07:17 25.5 C 20 %
3937 03-08-2019 19:19:17 25.1 C 20 %
3938 03-08-2019 19:31:17 23.9 C 20 %
3939 03-08-2019 19:43:17 24.1 C 20 %
3940 03-08-2019 19:55:17 23.7 C 20 %
3941 03-08-2019 20:07:17 23.4 C 20 %
3942 03-08-2019 20:19:17 23.2 C 20 %
3943 03-08-2019 20:31:17 22.8 C 20 %
3944 03-08-2019 20:43:18 22.3 C 20 %
3945 03-08-2019 20:55:17 22 C 20 %
3946 03-08-2019 21:07:17 21.6 C 20 %
3947 03-08-2019 21:19:17 20.8 C 20 %
3948 03-08-2019 21:31:17 20.4 C 20 %
3949 03-08-2019 21:43:18 20.1 C 20 %
3950 03-08-2019 21:55:17 19 C 20 %
Sensor: Nr:Datum:Temp:Feuchte:
Aussen-T/F 3951 03-08-2019 22:07:18 18.5 C 20 %
3952 03-08-2019 22:19:17 18.1 C 20 %
3953 03-08-2019 22:31:18 17.9 C 20 %
3954 03-08-2019 22:43:18 17.6 C 20 %
3955 03-08-2019 22:55:17 17.7 C 20 %
3956 03-08-2019 23:07:18 17.5 C 22 %
3957 03-08-2019 23:19:17 17.4 C 24 %
3958 03-08-2019 23:31:17 17.1 C 24 %
3959 03-08-2019 23:43:17 16.8 C 26 %
3960 03-08-2019 23:55:17 16.7 C 26 %
3961 04-08-2019 00:07:17 16.5 C 27 %
3962 04-08-2019 00:19:17 16.3 C 28 %
3963 04-08-2019 00:31:17 16.1 C 29 %
3964 04-08-2019 00:43:17 16 C 30 %
3965 04-08-2019 00:55:18 15.7 C 31 %
3966 04-08-2019 01:07:17 15.6 C 33 %
3967 04-08-2019 01:19:18 15.1 C 34 %
3968 04-08-2019 01:31:17 14.8 C 36 %
3969 04-08-2019 01:43:17 14.6 C 37 %
3970 04-08-2019 01:55:17 14.3 C 37 %
3971 04-08-2019 02:07:18 14.2 C 38 %
3972 04-08-2019 02:19:17 13.9 C 40 %
3973 04-08-2019 02:31:17 13.8 C 41 %
3974 04-08-2019 02:43:17 13.8 C 41 %
3975 04-08-2019 02:55:17 13.6 C 41 %
Sensor: Nr:Datum:Temp:Feuchte:
Aussen-T/F 3976 04-08-2019 03:07:18 13.6 C 41 %
3977 04-08-2019 03:19:17 13.4 C 41 %
3978 04-08-2019 03:31:18 13.4 C 42 %
3979 04-08-2019 03:43:18 13.2 C 41 %
3980 04-08-2019 03:55:17 13 C 42 %
3981 04-08-2019 04:07:17 13 C 42 %
3982 04-08-2019 04:19:17 13 C 43 %
3983 04-08-2019 04:31:17 13 C 43 %
3984 04-08-2019 04:43:17 12.9 C 44 %
3985 04-08-2019 04:55:17 12.8 C 44 %
3986 04-08-2019 05:07:17 12.8 C 44 %
3987 04-08-2019 05:19:17 12.7 C 44 %
3988 04-08-2019 05:31:17 12.5 C 44 %
3989 04-08-2019 05:43:17 12.4 C 44 %
3990 04-08-2019 05:55:17 12.4 C 45 %
3991 04-08-2019 06:07:17 12.4 C 45 %
3992 04-08-2019 06:19:17 12.4 C 45 %
3993 04-08-2019 06:31:17 12.5 C 45 %
3994 04-08-2019 06:43:17 12.7 C 45 %
3995 04-08-2019 06:55:17 12.8 C 45 %
3996 04-08-2019 07:07:17 12.8 C 45 %
3997 04-08-2019 07:19:16 13 C 44 %
3998 04-08-2019 07:31:17 13.1 C 44 %
3999 04-08-2019 07:43:17 13.3 C 44 %
4000 04-08-2019 07:55:17 13.6 C 43 %
Sensor: Nr:Datum:Temp:Feuchte:
Aussen-T/F 4001 04-08-2019 08:07:17 13.8 C 43 %
4002 04-08-2019 08:19:17 14 C 42 %
4003 04-08-2019 08:31:17 14.2 C 42 %
4004 04-08-2019 08:43:17 14.7 C 42 %
4005 04-08-2019 08:55:17 15 C 40 %
4006 04-08-2019 09:07:17 15.5 C 38 %
4007 04-08-2019 09:19:17 16 C 35 %
4008 04-08-2019 09:31:17 16.6 C 33 %
4009 04-08-2019 09:43:17 17 C 32 %
4010 04-08-2019 09:55:17 18.4 C 25 %
4011 04-08-2019 10:07:17 18.4 C 24 %
4012 04-08-2019 10:19:16 18.4 C 24 %
4013 04-08-2019 10:31:17 18.4 C 24 %
4014 04-08-2019 10:43:17 20.5 C 20 %
4015 04-08-2019 10:55:17 21.6 C 20 %
4016 04-08-2019 11:07:17 23.1 C 20 %
4017 04-08-2019 11:19:17 23 C 20 %
4018 04-08-2019 11:31:17 25.1 C 20 %
4019 04-08-2019 11:43:17 25.2 C 20 %
4020 04-08-2019 11:55:17 24.4 C 20 %
4021 04-08-2019 12:07:17 24 C 20 %
4022 04-08-2019 12:19:17 23.7 C 20 %
4023 04-08-2019 12:31:16 24.2 C 20 %
4024 04-08-2019 12:43:16 24.7 C 20 %
4025 04-08-2019 12:55:17 24.7 C 20 %
Sensor: Nr:Datum:Temp:Feuchte:
Aussen-T/F 4026 04-08-2019 13:07:17 24.7 C 20 %
4027 04-08-2019 13:19:17 25 C 20 %
4028 04-08-2019 13:31:17 25.1 C 20 %
4029 04-08-2019 13:43:17 25.3 C 20 %
4030 04-08-2019 13:55:17 25.4 C 20 %
4031 04-08-2019 14:07:16 25.8 C 20 %
4032 04-08-2019 14:19:16 26.3 C 20 %
4033 04-08-2019 14:31:17 27 C 20 %
4034 04-08-2019 14:43:17 27.2 C 20 %
4035 04-08-2019 14:55:16 28 C 20 %
4036 04-08-2019 15:07:16 28.5 C 20 %
4037 04-08-2019 15:19:16 28.2 C 20 %
4038 04-08-2019 15:31:17 29.4 C 20 %
4039 04-08-2019 15:43:17 30.4 C 20 %
4040 04-08-2019 15:55:16 30.8 C 20 %
4041 04-08-2019 16:07:16 31 C 20 %
4042 04-08-2019 16:19:16 30.6 C 20 %
4043 04-08-2019 16:31:17 30.2 C 20 %
4044 04-08-2019 16:43:18 30.6 C 20 %
4045 04-08-2019 16:55:17 30.8 C 20 %
4046 04-08-2019 17:07:16 31 C 20 %
4047 04-08-2019 17:19:17 31.9 C 20 %
4048 04-08-2019 17:31:16 32.2 C 20 %
4049 04-08-2019 17:43:16 32.5 C 20 %
4050 04-08-2019 17:55:16 31.9 C 20 %
Sensor: Nr:Datum:Temp:Feuchte:
Aussen-T/F 4051 04-08-2019 18:07:16 31.5 C 20 %
4052 04-08-2019 18:19:16 31.5 C 20 %
4053 04-08-2019 18:31:16 32.5 C 20 %
4054 04-08-2019 18:43:16 31.4 C 20 %
4055 04-08-2019 18:55:17 30.4 C 20 %
4056 04-08-2019 19:07:16 29.4 C 20 %
4057 04-08-2019 19:19:17 28.9 C 20 %
4058 04-08-2019 19:31:16 28.3 C 20 %
4059 04-08-2019 19:43:16 27.4 C 20 %
4060 04-08-2019 19:55:17 26.6 C 20 %
4061 04-08-2019 20:07:16 26.1 C 20 %
4062 04-08-2019 20:19:16 25.6 C 20 %
4063 04-08-2019 20:31:17 24.9 C 20 %
4064 04-08-2019 20:43:17 24.2 C 20 %
4065 04-08-2019 20:55:16 23.5 C 20 %
4066 04-08-2019 21:07:16 22.8 C 20 %
4067 04-08-2019 21:19:16 22.4 C 20 %
4068 04-08-2019 21:31:16 22.1 C 20 %
4069 04-08-2019 21:43:16 22 C 20 %
4070 04-08-2019 21:55:16 21.8 C 20 %
4071 04-08-2019 22:07:17 22 C 20 %
4072 04-08-2019 22:19:16 22 C 20 %
4073 04-08-2019 22:31:16 22.4 C 20 %
4074 04-08-2019 22:43:16 22.3 C 20 %
4075 04-08-2019 22:55:16 22.5 C 20 %
Sensor: Nr:Datum:Temp:Feuchte:
Aussen-T/F 4076 04-08-2019 23:07:16 22.6 C 20 %
4077 04-08-2019 23:19:16 22.6 C 20 %
4078 04-08-2019 23:31:16 22.9 C 20 %
4079 04-08-2019 23:43:16 23.3 C 20 %
4080 04-08-2019 23:55:16 23.5 C 20 %
4081 05-08-2019 00:07:16 23.5 C 20 %
4082 05-08-2019 00:19:16 23.6 C 20 %
4083 05-08-2019 00:31:16 23.1 C 20 %
4084 05-08-2019 00:43:16 22.9 C 20 %
4085 05-08-2019 00:55:16 22.3 C 20 %
4086 05-08-2019 01:07:16 21.7 C 20 %
4087 05-08-2019 01:19:16 21.4 C 20 %
4088 05-08-2019 01:31:16 21.1 C 20 %
4089 05-08-2019 01:43:16 20.9 C 20 %
4090 05-08-2019 01:55:16 20.5 C 20 %
4091 05-08-2019 02:07:15 20.2 C 20 %
4092 05-08-2019 02:19:16 20.1 C 20 %
4093 05-08-2019 02:31:16 20.1 C 20 %
4094 05-08-2019 02:43:16 19.9 C 20 %
4095 05-08-2019 02:55:18 19.8 C 20 %
4096 05-08-2019 03:07:17 19.6 C 20 %
4097 05-08-2019 03:19:17 19.5 C 20 %
4098 05-08-2019 03:31:17 19.4 C 20 %
4099 05-08-2019 03:43:17 19.5 C 20 %
4100 05-08-2019 03:55:18 19.7 C 20 %
Sensor: Nr:Datum:Temp:Feuchte:
Aussen-T/F 4101 05-08-2019 04:07:17 19.1 C 20 %
4102 05-08-2019 04:19:18 18.7 C 26 %
4103 05-08-2019 04:31:17 18.8 C 25 %
4104 05-08-2019 04:43:17 19 C 22 %
4105 05-08-2019 04:55:18 19.7 C 20 %
4106 05-08-2019 05:07:17 19.4 C 21 %
4107 05-08-2019 05:19:17 19.4 C 21 %
4108 05-08-2019 05:31:17 19.7 C 20 %
4109 05-08-2019 05:43:17 19.1 C 25 %
4110 05-08-2019 05:55:18 18.2 C 35 %
4111 05-08-2019 06:07:17 18.3 C 34 %
4112 05-08-2019 06:19:17 17.8 C 37 %
4113 05-08-2019 06:31:17 17.6 C 43 %
4114 05-08-2019 06:43:17 17.5 C 44 %
4115 05-08-2019 06:55:17 17.2 C 44 %
4116 05-08-2019 07:07:17 17.2 C 45 %
4117 05-08-2019 07:19:18 17.1 C 46 %
4118 05-08-2019 07:31:17 17.3 C 47 %
4119 05-08-2019 07:43:17 16.8 C 47 %
4120 05-08-2019 07:55:17 17.1 C 47 %
4121 05-08-2019 08:07:17 17.2 C 48 %
4122 05-08-2019 08:19:18 17.2 C 47 %
4123 05-08-2019 08:31:17 17.7 C 49 %
4124 05-08-2019 08:43:17 17.7 C 48 %
4125 05-08-2019 08:55:17 17.9 C 48 %
Sensor: Nr:Datum:Temp:Feuchte:
Aussen-T/F 4126 05-08-2019 09:07:17 18.1 C 46 %
4127 05-08-2019 09:19:17 18.5 C 45 %
4128 05-08-2019 09:31:17 18.9 C 41 %
4129 05-08-2019 09:43:17 19.4 C 39 %
4130 05-08-2019 09:55:18 19.7 C 36 %
4131 05-08-2019 10:07:17 20.4 C 34 %
4132 05-08-2019 10:19:17 20.8 C 32 %
4133 05-08-2019 10:31:17 21 C 33 %
4134 05-08-2019 10:43:17 21.2 C 28 %
4135 05-08-2019 10:55:17 21.6 C 27 %
4136 05-08-2019 11:07:17 22.2 C 25 %
4137 05-08-2019 11:19:17 22.5 C 25 %
4138 05-08-2019 11:31:17 23.2 C 24 %
4139 05-08-2019 11:43:17 23.9 C 21 %
4140 05-08-2019 11:55:17 24.2 C 20 %
4141 05-08-2019 12:07:17 24 C 20 %
4142 05-08-2019 12:19:17 24.2 C 20 %
4143 05-08-2019 12:31:17 24.7 C 20 %
4144 05-08-2019 12:43:17 25.2 C 20 %
4145 05-08-2019 12:55:18 25.5 C 20 %
4146 05-08-2019 13:07:17 25.8 C 20 %
4147 05-08-2019 13:19:17 26.1 C 20 %
4148 05-08-2019 13:31:17 26.6 C 20 %
4149 05-08-2019 13:43:17 27 C 20 %
4150 05-08-2019 13:55:17 27 C 20 %
Sensor: Nr:Datum:Temp:Feuchte:
Aussen-T/F 4151 05-08-2019 14:07:17 27.1 C 20 %
4152 05-08-2019 14:19:17 27.7 C 20 %
4153 05-08-2019 14:31:17 27.7 C 20 %
4154 05-08-2019 14:43:17 27.7 C 20 %
4155 05-08-2019 14:55:17 28.3 C 20 %
4156 05-08-2019 15:07:17 28.4 C 20 %
4157 05-08-2019 15:19:17 28.8 C 20 %
4158 05-08-2019 15:31:17 28.9 C 20 %
4159 05-08-2019 15:43:17 28.9 C 20 %
4160 05-08-2019 15:55:18 29.4 C 20 %
4161 05-08-2019 16:07:17 29.4 C 20 %
4162 05-08-2019 16:19:18 29.6 C 20 %
4163 05-08-2019 16:31:17 29.2 C 20 %
4164 05-08-2019 16:43:17 28.9 C 20 %
4165 05-08-2019 16:55:17 28.6 C 20 %
4166 05-08-2019 17:07:18 28.8 C 20 %
4167 05-08-2019 17:19:17 28.8 C 20 %
4168 05-08-2019 17:31:18 28.7 C 20 %
4169 05-08-2019 17:43:18 28.3 C 20 %
4170 05-08-2019 17:55:17 28.2 C 20 %
4171 05-08-2019 18:07:18 28.2 C 20 %
4172 05-08-2019 18:19:17 27.9 C 20 %
4173 05-08-2019 18:31:18 27.6 C 20 %
4174 05-08-2019 18:43:18 27.6 C 20 %
4175 05-08-2019 18:55:17 27.2 C 20 %
Sensor: Nr:Datum:Temp:Feuchte:
Aussen-T/F 4176 05-08-2019 19:07:17 27 C 20 %
4177 05-08-2019 19:19:18 26.8 C 20 %
4178 05-08-2019 19:31:17 26.7 C 20 %
4179 05-08-2019 19:43:17 26.4 C 20 %
4180 05-08-2019 19:55:18 26 C 20 %
4181 05-08-2019 20:07:17 26 C 20 %
4182 05-08-2019 20:19:18 25.2 C 20 %
4183 05-08-2019 20:31:17 24.3 C 20 %
4184 05-08-2019 20:43:17 23.7 C 20 %
4185 05-08-2019 20:55:17 22.4 C 20 %
4186 05-08-2019 21:07:17 21.9 C 20 %
4187 05-08-2019 21:19:17 21.6 C 20 %
4188 05-08-2019 21:31:17 21.2 C 20 %
4189 05-08-2019 21:43:17 20.8 C 20 %
4190 05-08-2019 21:55:17 20.5 C 20 %
4191 05-08-2019 22:07:18 20.4 C 20 %
4192 05-08-2019 22:19:17 20.3 C 20 %
4193 05-08-2019 22:31:17 20 C 20 %
4194 05-08-2019 22:43:17 20 C 20 %
4195 05-08-2019 22:55:17 19.8 C 20 %
4196 05-08-2019 23:07:18 19.5 C 20 %
4197 05-08-2019 23:19:17 19.2 C 20 %
4198 05-08-2019 23:31:18 18.7 C 21 %
4199 05-08-2019 23:43:18 18.5 C 22 %
4200 05-08-2019 23:55:17 18.2 C 22 %
Sensor: Nr:Datum:Temp:Feuchte:
Aussen-T/F 4201 06-08-2019 00:07:17 18 C 24 %
4202 06-08-2019 00:19:17 17.9 C 25 %
4203 06-08-2019 00:31:17 17.7 C 25 %
4204 06-08-2019 00:43:17 17.7 C 25 %
4205 06-08-2019 00:55:17 17.7 C 25 %
4206 06-08-2019 01:07:18 17.1 C 27 %
4207 06-08-2019 01:19:17 17 C 27 %
4208 06-08-2019 01:31:17 16.9 C 28 %
4209 06-08-2019 01:43:17 16.8 C 28 %
4210 06-08-2019 01:55:17 16.7 C 28 %
4211 06-08-2019 02:07:18 16.5 C 30 %
4212 06-08-2019 02:19:17 16.6 C 30 %
4213 06-08-2019 02:31:18 17.2 C 29 %
4214 06-08-2019 02:43:18 17.7 C 27 %
4215 06-08-2019 02:55:17 17.6 C 28 %
4216 06-08-2019 03:07:17 17.6 C 28 %
4217 06-08-2019 03:19:17 17.6 C 29 %
4218 06-08-2019 03:31:17 17.7 C 29 %
4219 06-08-2019 03:43:18 17.5 C 28 %
4220 06-08-2019 03:55:17 17.8 C 27 %
4221 06-08-2019 04:07:18 17.5 C 28 %
4222 06-08-2019 04:19:17 17.4 C 29 %
4223 06-08-2019 04:31:17 16.8 C 30 %
4224 06-08-2019 04:43:17 16.8 C 31 %
4225 06-08-2019 04:55:18 17 C 30 %
Sensor: Nr:Datum:Temp:Feuchte:
Aussen-T/F 4226 06-08-2019 05:07:17 16.6 C 31 %
4227 06-08-2019 05:19:18 16.5 C 32 %
4228 06-08-2019 05:31:17 16.5 C 33 %
4229 06-08-2019 05:43:17 16.5 C 32 %
4230 06-08-2019 05:55:18 16.4 C 32 %
4231 06-08-2019 06:07:17 16.2 C 34 %
4232 06-08-2019 06:19:17 16.7 C 33 %
4233 06-08-2019 06:31:18 17.2 C 30 %
4234 06-08-2019 06:43:18 17.3 C 30 %
4235 06-08-2019 06:55:17 17.3 C 30 %
4236 06-08-2019 07:07:18 17.9 C 27 %
4237 06-08-2019 07:19:17 18.1 C 25 %
4238 06-08-2019 07:31:18 18.3 C 26 %
4239 06-08-2019 07:43:18 18.5 C 26 %
4240 06-08-2019 07:55:17 18.6 C 25 %
4241 06-08-2019 08:07:17 18.6 C 25 %
4242 06-08-2019 08:19:17 19 C 25 %
4243 06-08-2019 08:31:18 18.9 C 25 %
4244 06-08-2019 08:43:18 19.1 C 25 %
4245 06-08-2019 08:55:17 19.4 C 25 %
4246 06-08-2019 09:07:17 20 C 20 %
4247 06-08-2019 09:19:17 20.3 C 20 %
4248 06-08-2019 09:31:17 20.4 C 20 %
4249 06-08-2019 09:43:17 21.1 C 20 %
4250 06-08-2019 09:55:17 21 C 20 %
Sensor: Nr:Datum:Temp:Feuchte:
Aussen-T/F 4251 06-08-2019 10:07:18 19.4 C 24 %
4252 06-08-2019 10:19:17 18.6 C 36 %
4253 06-08-2019 10:31:18 18.7 C 41 %
4254 06-08-2019 10:43:18 18.5 C 41 %
4255 06-08-2019 10:55:17 18.6 C 42 %
4256 06-08-2019 11:07:18 18.6 C 42 %
4257 06-08-2019 11:19:17 18.9 C 41 %
4258 06-08-2019 11:31:18 20.1 C 38 %
4259 06-08-2019 11:43:18 20.6 C 33 %
4260 06-08-2019 11:55:17 20.7 C 29 %
4261 06-08-2019 12:07:18 21.3 C 28 %
4262 06-08-2019 12:19:17 21.9 C 25 %
4263 06-08-2019 12:31:18 22.1 C 24 %
4264 06-08-2019 12:43:18 22 C 21 %
4265 06-08-2019 12:55:17 22.2 C 22 %
4266 06-08-2019 13:07:17 22.3 C 21 %
4267 06-08-2019 13:19:18 22.3 C 22 %
4268 06-08-2019 13:31:17 22.6 C 22 %
4269 06-08-2019 13:43:17 23.1 C 20 %
4270 06-08-2019 13:55:17 23.5 C 20 %
4271 06-08-2019 14:07:17 23.8 C 20 %
4272 06-08-2019 14:19:17 23.7 C 20 %
4273 06-08-2019 14:31:17 24.4 C 20 %
4274 06-08-2019 14:43:17 24.4 C 20 %
4275 06-08-2019 14:55:18 25 C 20 %
Sensor: Nr:Datum:Temp:Feuchte:
Aussen-T/F 4276 06-08-2019 15:07:17 25.2 C 20 %
4277 06-08-2019 15:19:18 25.1 C 20 %
4278 06-08-2019 15:31:17 25.6 C 20 %
4279 06-08-2019 15:43:17 25.7 C 20 %
4280 06-08-2019 15:55:17 25.8 C 20 %
4281 06-08-2019 16:07:17 26 C 20 %
4282 06-08-2019 16:19:17 25.9 C 20 %
4283 06-08-2019 16:31:17 26.1 C 20 %
4284 06-08-2019 16:43:18 26.2 C 20 %
4285 06-08-2019 16:55:17 26.9 C 20 %
4286 06-08-2019 17:07:17 27.2 C 20 %
4287 06-08-2019 17:19:17 27.7 C 20 %
4288 06-08-2019 17:31:17 27.2 C 20 %
4289 06-08-2019 17:43:17 26.3 C 20 %
4290 06-08-2019 17:55:17 26.8 C 20 %
4291 06-08-2019 18:07:18 26.1 C 20 %
4292 06-08-2019 18:19:17 25.6 C 20 %
4293 06-08-2019 18:31:18 25.2 C 20 %
4294 06-08-2019 18:43:18 24.7 C 20 %
4295 06-08-2019 18:55:17 23.7 C 20 %
4296 06-08-2019 19:07:18 22.6 C 20 %
4297 06-08-2019 19:19:17 21.2 C 28 %
4298 06-08-2019 19:31:17 21 C 29 %
4299 06-08-2019 19:43:17 20.4 C 33 %
4300 06-08-2019 19:55:17 19.1 C 43 %
Sensor: Nr:Datum:Temp:Feuchte:
Aussen-T/F 4301 06-08-2019 20:07:18 19 C 45 %
4302 06-08-2019 20:19:17 18.5 C 46 %
4303 06-08-2019 20:31:18 18.4 C 46 %
4304 06-08-2019 20:43:18 18.2 C 46 %
4305 06-08-2019 20:55:17 17.8 C 46 %
4306 06-08-2019 21:07:17 18 C 47 %
4307 06-08-2019 21:19:17 17.9 C 48 %
4308 06-08-2019 21:31:17 17.8 C 49 %
4309 06-08-2019 21:43:17 17.6 C 51 %
4310 06-08-2019 21:55:17 17.4 C 51 %
4311 06-08-2019 22:07:18 17.4 C 52 %
4312 06-08-2019 22:19:17 17.3 C 55 %
4313 06-08-2019 22:31:18 17.3 C 55 %
4314 06-08-2019 22:43:18 17.3 C 56 %
4315 06-08-2019 22:55:17 17 C 55 %
4316 06-08-2019 23:07:18 17 C 56 %
4317 06-08-2019 23:19:17 17 C 56 %
4318 06-08-2019 23:31:17 16.8 C 57 %
4319 06-08-2019 23:43:17 16.8 C 57 %
4320 06-08-2019 23:55:17 16.6 C 55 %
4321 07-08-2019 00:07:17 16.4 C 53 %
4322 07-08-2019 00:19:18 16.5 C 57 %
4323 07-08-2019 00:31:17 16.5 C 57 %
4324 07-08-2019 00:43:17 16.4 C 57 %
4325 07-08-2019 00:55:17 16.3 C 56 %
Sensor: Nr:Datum:Temp:Feuchte:
Aussen-T/F 4326 07-08-2019 01:07:17 16.1 C 55 %
4327 07-08-2019 01:19:17 15.9 C 55 %
4328 07-08-2019 01:31:17 15.9 C 57 %
4329 07-08-2019 01:43:17 16.2 C 59 %
4330 07-08-2019 01:55:17 16.3 C 60 %
4331 07-08-2019 02:07:17 16.4 C 60 %
4332 07-08-2019 02:19:17 16.3 C 59 %
4333 07-08-2019 02:31:17 16.3 C 59 %
4334 07-08-2019 02:43:17 16.3 C 59 %
4335 07-08-2019 02:55:18 16.3 C 59 %
4336 07-08-2019 03:07:17 16.4 C 59 %
4337 07-08-2019 03:19:18 16.4 C 59 %
4338 07-08-2019 03:31:17 16.4 C 59 %
4339 07-08-2019 03:43:17 16.4 C 59 %
4340 07-08-2019 03:55:17 16.4 C 59 %
4341 07-08-2019 04:07:17 16.4 C 59 %
4342 07-08-2019 04:19:17 16.3 C 58 %
4343 07-08-2019 04:31:17 16.3 C 58 %
4344 07-08-2019 04:43:17 16.4 C 59 %
4345 07-08-2019 04:55:18 16.4 C 59 %
4346 07-08-2019 05:07:17 16.4 C 60 %
4347 07-08-2019 05:19:17 16.4 C 60 %
4348 07-08-2019 05:31:17 16.5 C 61 %
4349 07-08-2019 05:43:17 16.5 C 60 %
4350 07-08-2019 05:55:18 16.6 C 61 %
Sensor: Nr:Datum:Temp:Feuchte:
Aussen-T/F 4351 07-08-2019 06:07:18 16.6 C 62 %
4352 07-08-2019 06:19:17 16.6 C 61 %
4353 07-08-2019 06:31:18 16.7 C 62 %
4354 07-08-2019 06:43:18 16.9 C 62 %
4355 07-08-2019 06:55:17 16.9 C 62 %
4356 07-08-2019 07:07:18 16.9 C 62 %
4357 07-08-2019 07:19:17 17 C 61 %
4358 07-08-2019 07:31:17 17 C 61 %
4359 07-08-2019 07:43:17 17.2 C 61 %
4360 07-08-2019 07:55:18 17.1 C 61 %
4361 07-08-2019 08:07:17 17.2 C 61 %
4362 07-08-2019 08:19:18 17.5 C 62 %
4363 07-08-2019 08:31:17 17.6 C 62 %
4364 07-08-2019 08:43:17 17.8 C 61 %
4365 07-08-2019 08:55:17 17.9 C 61 %
4366 07-08-2019 09:07:17 17.7 C 58 %
4367 07-08-2019 09:19:17 17.8 C 59 %
4368 07-08-2019 09:31:17 18.2 C 59 %
4369 07-08-2019 09:43:17 18.4 C 52 %
4370 07-08-2019 09:55:17 18.9 C 47 %
4371 07-08-2019 10:07:17 18.9 C 44 %
4372 07-08-2019 10:19:17 18.8 C 40 %
4373 07-08-2019 10:31:18 19 C 40 %
4374 07-08-2019 10:43:18 19.1 C 40 %
4375 07-08-2019 10:55:17 19.3 C 37 %
Sensor: Nr:Datum:Temp:Feuchte:
Aussen-T/F 4376 07-08-2019 11:07:17 19.9 C 37 %
4377 07-08-2019 11:19:17 20 C 35 %
4378 07-08-2019 11:31:17 21.2 C 32 %
4379 07-08-2019 11:43:18 21 C 30 %
4380 07-08-2019 11:55:17 20.8 C 30 %
4381 07-08-2019 12:07:17 21 C 29 %
4382 07-08-2019 12:19:17 21.3 C 29 %
4383 07-08-2019 12:31:17 21.5 C 27 %
4384 07-08-2019 12:43:17 22 C 27 %
4385 07-08-2019 12:55:17 22 C 25 %
4386 07-08-2019 13:07:17 22 C 25 %
4387 07-08-2019 13:19:17 22.1 C 23 %
4388 07-08-2019 13:31:17 22.5 C 22 %
4389 07-08-2019 13:43:17 22.7 C 21 %
4390 07-08-2019 13:55:18 23 C 21 %
4391 07-08-2019 14:07:17 23.2 C 22 %
4392 07-08-2019 14:19:18 22.8 C 22 %
4393 07-08-2019 14:31:17 22.9 C 22 %
4394 07-08-2019 14:43:17 22.8 C 23 %
4395 07-08-2019 14:55:18 23.2 C 21 %
4396 07-08-2019 15:07:17 23.4 C 21 %
4397 07-08-2019 15:19:17 23.3 C 21 %
4398 07-08-2019 15:31:17 23 C 21 %
4399 07-08-2019 15:43:17 23 C 20 %
4400 07-08-2019 15:55:17 22.8 C 21 %
Sensor: Nr:Datum:Temp:Feuchte:
Aussen-T/F 4401 07-08-2019 16:07:17 22.6 C 22 %
4402 07-08-2019 16:19:17 22.3 C 22 %
4403 07-08-2019 16:31:18 22.2 C 21 %
4404 07-08-2019 16:43:18 22.5 C 21 %
4405 07-08-2019 16:55:17 22.5 C 21 %
4406 07-08-2019 17:07:17 22.2 C 21 %
4407 07-08-2019 17:19:17 22.7 C 20 %
4408 07-08-2019 17:31:17 23.2 C 20 %
4409 07-08-2019 17:43:17 23.2 C 20 %
4410 07-08-2019 17:55:18 22.8 C 20 %
4411 07-08-2019 18:07:17 22.7 C 21 %
4412 07-08-2019 18:19:17 23.3 C 20 %
4413 07-08-2019 18:31:17 24.3 C 20 %
4414 07-08-2019 18:43:17 24.7 C 20 %
4415 07-08-2019 18:55:17 24 C 20 %
4416 07-08-2019 19:07:17 23.2 C 20 %
4417 07-08-2019 19:19:17 22.8 C 20 %
4418 07-08-2019 19:31:17 21.3 C 25 %
4419 07-08-2019 19:43:17 21.1 C 28 %
4420 07-08-2019 19:55:18 20.3 C 32 %
4421 07-08-2019 20:07:17 20 C 33 %
4422 07-08-2019 20:19:17 19.7 C 34 %
4423 07-08-2019 20:31:17 19.1 C 36 %
4424 07-08-2019 20:43:18 18.9 C 37 %
4425 07-08-2019 20:55:17 19 C 35 %
Sensor: Nr:Datum:Temp:Feuchte:
Aussen-T/F 4426 07-08-2019 21:07:17 18.7 C 37 %
4427 07-08-2019 21:19:17 18.1 C 36 %
4428 07-08-2019 21:31:17 17.4 C 39 %
4429 07-08-2019 21:43:18 17 C 40 %
4430 07-08-2019 21:55:17 16.9 C 41 %
4431 07-08-2019 22:07:17 16.8 C 40 %
4432 07-08-2019 22:19:18 16.6 C 41 %
4433 07-08-2019 22:31:17 16.5 C 41 %
4434 07-08-2019 22:43:17 16.6 C 41 %
4435 07-08-2019 22:55:18 17 C 35 %
4436 07-08-2019 23:07:17 17.2 C 35 %
4437 07-08-2019 23:19:17 17 C 35 %
4438 07-08-2019 23:31:17 16.8 C 38 %
4439 07-08-2019 23:43:17 16.5 C 39 %
4440 07-08-2019 23:55:17 15.8 C 42 %
4441 08-08-2019 00:07:17 15.5 C 44 %
4442 08-08-2019 00:19:17 15.4 C 45 %
4443 08-08-2019 00:31:17 15.6 C 45 %
4444 08-08-2019 00:43:18 15.9 C 45 %
4445 08-08-2019 00:55:17 16.4 C 40 %
4446 08-08-2019 01:07:18 16.5 C 40 %
4447 08-08-2019 01:19:17 16.6 C 39 %
4448 08-08-2019 01:31:18 16.6 C 40 %
4449 08-08-2019 01:43:18 16.5 C 41 %
4450 08-08-2019 01:55:17 16.5 C 42 %
Sensor: Nr:Datum:Temp:Feuchte:
Aussen-T/F 4451 08-08-2019 02:07:17 16.6 C 40 %
4452 08-08-2019 02:19:17 16.6 C 40 %
4453 08-08-2019 02:31:17 16.4 C 42 %
4454 08-08-2019 02:43:17 16.4 C 43 %
4455 08-08-2019 02:55:17 16.2 C 44 %
4456 08-08-2019 03:07:17 16.5 C 41 %
4457 08-08-2019 03:19:17 16.7 C 39 %
4458 08-08-2019 03:31:17 16.6 C 40 %
4459 08-08-2019 03:43:17 16.2 C 40 %
4460 08-08-2019 03:55:17 15.9 C 44 %
4461 08-08-2019 04:07:17 16.2 C 44 %
4462 08-08-2019 04:19:17 15.9 C 45 %
4463 08-08-2019 04:31:17 15.9 C 46 %
4464 08-08-2019 04:43:17 16.1 C 45 %
4465 08-08-2019 04:55:17 15.6 C 44 %
4466 08-08-2019 05:07:17 15.1 C 45 %
4467 08-08-2019 05:19:17 14.7 C 46 %
4468 08-08-2019 05:31:17 14.6 C 47 %
4469 08-08-2019 05:43:17 14.8 C 48 %
4470 08-08-2019 05:55:17 15.1 C 47 %
4471 08-08-2019 06:07:17 15.4 C 47 %
4472 08-08-2019 06:19:18 15.8 C 45 %
4473 08-08-2019 06:31:17 16.2 C 41 %
4474 08-08-2019 06:43:17 16.1 C 40 %
4475 08-08-2019 06:55:17 15.9 C 41 %
Sensor: Nr:Datum:Temp:Feuchte:
Aussen-T/F 4476 08-08-2019 07:07:17 15.9 C 42 %
4477 08-08-2019 07:19:17 15.8 C 43 %
4478 08-08-2019 07:31:17 15.9 C 43 %
4479 08-08-2019 07:43:17 16.1 C 43 %
4480 08-08-2019 07:55:17 16.2 C 42 %
4481 08-08-2019 08:07:17 16.7 C 40 %
4482 08-08-2019 08:19:17 17 C 38 %
4483 08-08-2019 08:31:17 17.2 C 37 %
4484 08-08-2019 08:43:17 17.5 C 36 %
4485 08-08-2019 08:55:17 17.7 C 36 %
4486 08-08-2019 09:07:17 17.8 C 35 %
4487 08-08-2019 09:19:17 18.5 C 32 %
4488 08-08-2019 09:31:18 18.7 C 31 %
4489 08-08-2019 09:43:18 19.4 C 26 %
4490 08-08-2019 09:55:18 19.6 C 25 %
4491 08-08-2019 10:07:18 19.9 C 24 %
4492 08-08-2019 10:19:17 20.2 C 22 %
4493 08-08-2019 10:31:17 20.7 C 22 %
4494 08-08-2019 10:43:17 21.1 C 21 %
4495 08-08-2019 10:55:18 22.1 C 20 %
4496 08-08-2019 11:07:17 23.4 C 20 %
4497 08-08-2019 11:19:17 23.8 C 20 %
4498 08-08-2019 11:31:17 24.5 C 20 %
4499 08-08-2019 11:43:17 24.2 C 20 %
4500 08-08-2019 11:55:18 23.7 C 20 %
Sensor: Nr:Datum:Temp:Feuchte:
Aussen-T/F 4501 08-08-2019 12:07:17 23.1 C 20 %
4502 08-08-2019 12:19:17 23.3 C 20 %
4503 08-08-2019 12:31:18 23.3 C 20 %
4504 08-08-2019 12:43:18 23.6 C 20 %
4505 08-08-2019 12:55:17 24 C 20 %
4506 08-08-2019 13:07:17 24.5 C 20 %
4507 08-08-2019 13:19:18 24.8 C 20 %
4508 08-08-2019 13:31:17 24.5 C 20 %
4509 08-08-2019 13:43:17 24.3 C 20 %
4510 08-08-2019 13:55:17 24.7 C 20 %
4511 08-08-2019 14:07:18 24.5 C 20 %
4512 08-08-2019 14:19:17 24.7 C 20 %
4513 08-08-2019 14:31:17 24.7 C 20 %
4514 08-08-2019 14:43:17 24.5 C 20 %
4515 08-08-2019 14:55:18 24.6 C 20 %
4516 08-08-2019 15:07:17 24.6 C 20 %
4517 08-08-2019 15:19:17 25.3 C 20 %
4518 08-08-2019 15:31:18 24.7 C 20 %
4519 08-08-2019 15:43:18 25 C 20 %
4520 08-08-2019 15:55:17 26 C 20 %
4521 08-08-2019 16:07:18 26.5 C 20 %
4522 08-08-2019 16:19:17 27 C 20 %
4523 08-08-2019 16:31:17 27.5 C 20 %
4524 08-08-2019 16:43:17 27.8 C 20 %
4525 08-08-2019 16:55:17 28.2 C 20 %
Sensor: Nr:Datum:Temp:Feuchte:
Aussen-T/F 4526 08-08-2019 17:07:17 28 C 20 %
4527 08-08-2019 17:19:17 27.2 C 20 %
4528 08-08-2019 17:31:17 28.4 C 20 %
4529 08-08-2019 17:43:18 27.2 C 20 %
4530 08-08-2019 17:55:17 28 C 20 %
4531 08-08-2019 18:07:17 28.1 C 20 %
4532 08-08-2019 18:19:17 28.5 C 20 %
4533 08-08-2019 18:31:17 28.3 C 20 %
4534 08-08-2019 18:43:17 28.3 C 20 %
4535 08-08-2019 18:55:18 26.7 C 20 %
4536 08-08-2019 19:07:17 25.8 C 20 %
4537 08-08-2019 19:19:18 25 C 20 %
4538 08-08-2019 19:31:17 24.6 C 20 %
4539 08-08-2019 19:43:17 24.3 C 20 %
4540 08-08-2019 19:55:17 24.8 C 20 %
4541 08-08-2019 20:07:17 24.2 C 20 %
4542 08-08-2019 20:19:17 23 C 20 %
4543 08-08-2019 20:31:18 22.1 C 22 %
4544 08-08-2019 20:43:18 21.5 C 24 %
4545 08-08-2019 20:55:17 21.1 C 25 %
4546 08-08-2019 21:07:18 20.5 C 26 %
4547 08-08-2019 21:19:17 20.2 C 27 %
4548 08-08-2019 21:31:18 19.8 C 30 %
4549 08-08-2019 21:43:18 19.6 C 30 %
4550 08-08-2019 21:55:17 19.5 C 30 %
Sensor: Nr:Datum:Temp:Feuchte:
Aussen-T/F 4551 08-08-2019 22:07:18 19.3 C 31 %
4552 08-08-2019 22:19:17 18.9 C 33 %
4553 08-08-2019 22:31:18 18.7 C 34 %
4554 08-08-2019 22:43:18 18.5 C 35 %
4555 08-08-2019 22:55:17 18.4 C 35 %
4556 08-08-2019 23:07:18 18.1 C 37 %
4557 08-08-2019 23:19:17 18.2 C 39 %
4558 08-08-2019 23:31:18 18.3 C 38 %
4559 08-08-2019 23:43:18 17.9 C 38 %
4560 08-08-2019 23:55:17 17.5 C 40 %
4561 09-08-2019 00:07:17 17.2 C 40 %
4562 09-08-2019 00:19:17 16.9 C 42 %
4563 09-08-2019 00:31:17 16.7 C 42 %
4564 09-08-2019 00:43:17 16.6 C 43 %
4565 09-08-2019 00:55:17 16.5 C 43 %
4566 09-08-2019 01:07:18 16.3 C 43 %
4567 09-08-2019 01:19:17 16.2 C 43 %
4568 09-08-2019 01:31:18 16.2 C 43 %
4569 09-08-2019 01:43:18 16 C 43 %
4570 09-08-2019 01:55:17 16.1 C 44 %
4571 09-08-2019 02:07:17 16 C 44 %
4572 09-08-2019 02:19:17 16 C 44 %
4573 09-08-2019 02:31:17 16.1 C 44 %
4574 09-08-2019 02:43:18 15.7 C 44 %
4575 09-08-2019 02:55:17 15.4 C 45 %
Sensor: Nr:Datum:Temp:Feuchte:
Aussen-T/F 4576 09-08-2019 03:07:17 15.2 C 45 %
4577 09-08-2019 03:19:17 15 C 45 %
4578 09-08-2019 03:31:17 15 C 46 %
4579 09-08-2019 03:43:17 15 C 46 %
4580 09-08-2019 03:55:17 15 C 46 %
4581 09-08-2019 04:07:17 14.8 C 46 %
4582 09-08-2019 04:19:17 14.5 C 46 %
4583 09-08-2019 04:31:17 14.7 C 47 %
4584 09-08-2019 04:43:17 14.7 C 47 %
4585 09-08-2019 04:55:18 14.6 C 47 %
4586 09-08-2019 05:07:17 14.4 C 46 %
4587 09-08-2019 05:19:18 14.4 C 47 %
4588 09-08-2019 05:31:17 14.4 C 47 %
4589 09-08-2019 05:43:17 14.4 C 47 %
4590 09-08-2019 05:55:18 14.5 C 47 %
4591 09-08-2019 06:07:17 14.6 C 47 %
4592 09-08-2019 06:19:17 14.7 C 47 %
4593 09-08-2019 06:31:17 14.7 C 47 %
4594 09-08-2019 06:43:17 14.8 C 48 %
4595 09-08-2019 06:55:17 15 C 47 %
4596 09-08-2019 07:07:18 15.6 C 47 %
4597 09-08-2019 07:19:17 16.1 C 44 %
4598 09-08-2019 07:31:18 16.2 C 40 %
4599 09-08-2019 07:43:18 16.4 C 40 %
4600 09-08-2019 07:55:17 16.6 C 39 %
Sensor: Nr:Datum:Temp:Feuchte:
Aussen-T/F 4601 09-08-2019 08:07:17 16.8 C 38 %
4602 09-08-2019 08:19:17 16.9 C 38 %
4603 09-08-2019 08:31:18 17.1 C 36 %
4604 09-08-2019 08:43:18 17.5 C 37 %
4605 09-08-2019 08:55:17 17.9 C 35 %
4606 09-08-2019 09:07:17 18.3 C 33 %
4607 09-08-2019 09:19:17 18.7 C 31 %
4608 09-08-2019 09:31:18 19.3 C 30 %
4609 09-08-2019 09:43:18 19.6 C 30 %
4610 09-08-2019 09:55:17 20 C 28 %
4611 09-08-2019 10:07:18 20.6 C 27 %
4612 09-08-2019 10:19:17 20.8 C 27 %
4613 09-08-2019 10:31:18 21.6 C 25 %
4614 09-08-2019 10:43:18 21.8 C 25 %
4615 09-08-2019 10:55:17 23.2 C 24 %
4616 09-08-2019 11:07:17 24.1 C 20 %
4617 09-08-2019 11:19:17 25.8 C 20 %
4618 09-08-2019 11:31:18 25.5 C 20 %
4619 09-08-2019 11:43:18 25.6 C 20 %
4620 09-08-2019 11:55:17 25.3 C 20 %
4621 09-08-2019 12:07:17 25.2 C 20 %
4622 09-08-2019 12:19:17 25.2 C 20 %
4623 09-08-2019 12:31:18 25.3 C 20 %
4624 09-08-2019 12:43:18 25.3 C 20 %
4625 09-08-2019 12:55:17 25.2 C 20 %
Sensor: Nr:Datum:Temp:Feuchte:
Aussen-T/F 4626 09-08-2019 13:07:17 24.8 C 20 %
4627 09-08-2019 13:19:17 24.6 C 21 %
4628 09-08-2019 13:31:17 25.2 C 20 %
4629 09-08-2019 13:43:18 25.5 C 20 %
4630 09-08-2019 13:55:17 25.4 C 20 %
4631 09-08-2019 14:07:17 25 C 20 %
4632